GFSWCAN_850_thetae_000.txt.gz
Theta_e
300 300 300 301 300 300 301 301 301 302 301 301 302 302 302 301 301 302 302 302 303 302 303 304 304 304 305 307 311 310 310 313 316 326 326 324 326 327 327 331 337 337 337 334 336 339 338 334 336 342 341 338 339 339
300 300 300 301 300 300 301 301 301 302 301 301 302 302 301 302 301 301 302 303 303 302 303 304 304 304 304 304 305 307 309 309 310 320 325 328 334 332 330 330 334 335 333 333 335 334 335 332 334 336 337 339 339 339
300 300 300 302 302 301 301 301 302 301 301 302 302 301 301 302 301 302 302 303 302 303 303 304 305 305 304 303 305 307 307 308 313 312 314 323 331 333 336 335 333 334 333 335 337 335 333 332 332 333 334 335 335 336
301 300 301 302 302 301 301 301 300 300 302 301 301 301 302 302 302 302 302 302 302 303 304 305 305 305 305 305 304 305 306 308 309 311 317 320 329 329 333 336 338 333 334 335 335 333 330 329 329 330 330 332 333 334
300 301 301 301 302 302 300 301 302 301 302 302 301 301 301 300 302 302 302 303 302 303 304 303 303 308 307 304 306 306 306 306 307 311 319 322 321 325 330 332 329 324 332 336 334 332 330 324 324 325 326 327 328 329
300 301 301 301 301 301 301 301 301 302 301 300 300 302 301 302 302 303 303 303 303 303 302 306 306 308 310 308 306 307 308 308 309 313 319 316 317 324 330 328 321 323 326 329 331 327 322 322 322 321 321 322 323 324
300 301 301 301 301 301 301 302 302 301 301 301 301 301 301 301 301 303 303 302 301 302 303 306 311 311 311 311 310 310 310 311 311 315 316 319 321 324 322 324 321 323 323 324 323 321 321 321 319 320 321 320 320 320
301 301 301 301 300 300 300 300 301 301 301 301 301 300 300 301 301 302 304 301 300 302 304 307 311 313 312 313 313 311 311 311 313 315 315 321 322 322 322 321 321 320 320 319 319 320 320 319 318 321 320 320 319 320
301 301 300 300 300 300 300 300 300 300 301 301 300 301 302 303 303 305 305 306 303 303 305 308 312 315 313 313 313 313 311 314 315 319 324 321 321 323 320 320 320 320 320 320 319 319 318 320 321 320 319 321 321 322
300 300 300 301 301 301 301 301 301 302 302 303 304 305 306 306 305 306 307 306 306 305 305 309 309 314 312 316 315 314 315 316 319 323 321 321 321 317 317 319 316 316 320 319 317 317 315 319 319 319 317 319 321 321
300 300 300 301 301 301 302 302 302 303 303 305 305 307 306 306 307 308 309 309 310 311 310 311 312 314 314 317 319 317 319 319 321 323 323 322 318 319 317 316 316 315 315 319 321 318 315 317 320 320 321 321 322 322
300 301 301 301 302 302 302 302 303 303 303 303 303 304 305 308 309 310 312 311 311 314 313 314 313 313 312 314 318 319 319 320 322 322 324 319 317 317 318 319 318 318 318 319 319 319 319 320 320 320 320 320 321 322
301 301 301 301 302 302 303 303 304 304 304 304 306 307 308 309 312 313 314 314 315 313 314 315 316 313 316 316 318 320 320 323 320 323 324 321 319 318 318 319 320 320 319 319 318 318 318 318 319 320 320 321 320 320
302 302 303 304 304 304 304 304 305 305 305 306 307 308 306 309 311 313 313 314 314 314 315 315 316 316 317 318 319 320 321 322 323 322 323 321 320 319 319 319 318 318 317 318 318 318 318 318 318 320 321 321 320 321
301 302 303 304 304 304 305 305 306 305 306 305 303 306 309 308 311 313 313 314 313 314 315 316 315 316 318 319 319 321 321 322 321 320 321 320 318 320 319 319 319 319 318 319 319 318 318 318 318 319 321 322 322 323
301 302 302 303 303 304 306 307 307 307 308 309 310 311 311 312 312 311 312 313 313 314 316 315 315 316 318 319 320 321 321 318 319 318 319 320 320 320 320 320 320 320 320 319 318 319 318 318 319 319 319 319 321 323
301 303 302 303 303 304 306 307 309 310 310 310 311 310 311 311 311 310 311 312 313 315 317 316 318 319 318 318 317 315 313 311 318 319 320 321 321 318 318 320 319 319 317 320 320 319 320 320 319 318 318 319 318 319
303 302 303 304 303 304 307 308 309 310 310 309 310 309 310 310 311 311 311 312 313 315 316 317 315 316 317 316 317 317 316 317 319 320 320 320 319 318 319 318 319 321 320 320 320 320 319 319 316 316 317 317 317 315
302 303 304 305 304 304 308 308 309 309 309 308 308 309 309 310 310 311 312 312 313 314 315 314 316 316 317 316 316 317 317 318 319 318 319 318 318 318 317 317 319 320 319 317 315 316 317 316 316 315 315 315 315 315
305 305 306 305 304 308 309 309 308 309 309 308 309 309 310 310 311 311 312 313 313 313 314 314 315 313 314 313 314 315 316 317 319 318 319 318 318 318 317 317 315 314 314 313 312 312 313 313 312 313 313 314 314 314
308 308 307 305 306 307 307 307 309 308 308 309 309 310 311 311 312 312 312 311 312 312 313 312 312 313 315 314 314 315 317 318 318 318 317 314 312 312 311 310 310 310 310 310 310 310 310 309 309 309 309 310 310 310
308 308 307 306 307 308 309 308 308 308 309 310 310 311 312 312 313 313 313 314 315 315 315 315 316 316 316 316 318 317 316 315 315 315 315 314 314 312 311 310 309 309 308 308 307 307 307 306 305 305 306 306 307 308
308 308 307 308 308 309 309 308 310 309 311 311 312 313 312 313 312 312 312 313 314 314 315 315 315 315 315 314 313 313 314 314 315 314 314 314 313 310 308 307 307 307 307 306 306 305 305 304 304 303 304 305 306 307
309 308 307 308 309 312 311 312 311 313 313 313 310 311 312 313 313 314 316 315 314 314 314 314 312 312 312 311 310 310 309 310 310 313 312 310 310 309 308 307 306 306 305 305 305 304 304 303 303 303 303 303 305 305
309 309 310 310 310 313 316 316 315 315 316 316 317 317 316 315 317 317 317 315 314 314 312 311 310 310 310 309 308 308 307 307 307 308 309 309 309 309 308 307 306 304 303 303 303 302 302 302 302 302 302 302 302 302
309 313 312 315 316 316 317 318 318 318 317 317 317 316 316 317 315 316 315 314 313 312 311 309 309 308 308 307 306 305 305 304 306 306 307 306 306 306 306 306 306 305 301 301 301 301 301 301 302 302 302 302 301 301
317 319 316 313 312 313 317 316 316 317 318 318 318 317 316 315 315 314 311 310 308 308 307 307 307 307 306 305 304 303 302 302 304 304 305 304 302 302 302 302 301 300 300 300 300 300 300 301 301 301 300 300 300 300
317 317 319 318 316 315 317 317 316 316 316 317 316 317 317 316 313 310 308 308 307 307 306 306 305 305 305 304 303 302 301 300 301 301 302 302 301 300 299 299 299 298 299 298 297 297 297 297 297 297 297 297 297 296
318 318 317 319 317 317 318 317 315 315 314 316 316 316 311 308 307 306 305 305 305 306 306 306 304 304 303 302 302 301 300 299 299 299 299 299 299 298 297 296 296 295 295 295 294 293 292 292 293 292 293 293 293 293
319 318 319 318 318 319 318 318 315 313 312 311 311 309 307 307 307 307 307 306 305 304 304 303 302 301 301 300 299 298 298 298 298 297 298 297 296 295 294 293 293 292 292 292 292 292 291 291 291 292 291 291 291 290
319 319 318 318 318 318 317 315 314 313 313 311 309 309 309 308 307 306 306 304 303 303 303 302 302 300 298 297 297 297 296 296 295 294 293 293 293 292 292 291 291 291 291 290 290 290 290 290 290 290 290 290 290 289
318 318 318 318 318 319 318 317 316 313 311 310 310 310 310 311 311 310 304 304 303 302 301 300 299 297 296 295 295 295 293 293 292 291 290 290 289 289 290 290 289 289 289 289 289 289 289 289 289 289 289 288 289 288
317 316 316 315 315 314 317 318 317 315 314 314 313 313 312 312 311 309 303 301 300 300 299 298 296 295 294 294 293 293 293 292 291 290 289 288 287 287 288 288 288 288 289 289 289 289 289 289 289 288 288 288 288 288

GFSWCAN_850_thetae_006.txt.gz
Theta_e
301 300 301 302 301 301 302 302 302 301 301 302 302 301 302 302 303 303 304 304 304 303 304 305 306 306 306 307 309 309 308 314 314 311 311 314 317 319 321 324 327 326 326 330 336 340 341 337 337 340 342 340 339 339
301 299 300 301 301 301 301 300 301 301 301 301 301 301 302 303 302 302 303 304 304 304 304 304 306 307 306 307 307 308 309 309 313 316 318 320 320 324 324 324 323 324 325 327 330 333 335 338 341 340 339 339 341 342
300 300 301 301 301 301 301 301 302 302 302 301 302 302 302 302 302 302 303 303 304 303 304 306 307 308 308 308 307 307 307 309 311 311 315 317 322 324 328 326 326 326 329 329 331 333 339 338 337 337 338 342 342 343
301 301 301 301 300 300 301 301 302 302 302 302 301 302 302 302 302 302 303 303 305 303 306 305 306 308 308 309 309 307 306 309 312 312 313 316 320 320 323 326 333 331 330 336 333 343 339 337 337 337 337 338 338 337
300 300 300 300 301 301 300 300 301 301 301 302 300 301 302 302 302 303 304 304 304 304 306 306 306 307 309 307 308 308 307 308 309 310 315 315 318 320 323 325 325 326 330 335 342 338 337 335 334 332 332 332 332 332
300 300 300 301 301 300 300 301 301 301 301 301 302 302 301 301 301 305 305 305 305 305 305 307 308 309 311 309 307 309 308 309 309 313 314 312 316 319 324 325 323 326 328 330 327 331 327 326 325 325 325 325 326 327
300 300 300 301 301 301 301 301 302 302 302 301 301 301 301 300 301 304 306 305 303 303 306 307 309 313 313 308 309 310 309 310 312 313 313 314 319 320 323 324 324 325 328 325 325 325 325 325 324 323 323 325 325 326
300 301 301 302 302 302 302 302 302 303 303 302 301 301 301 301 301 304 306 305 305 305 304 307 310 313 313 311 312 312 313 312 314 313 312 319 318 318 323 322 323 322 325 326 327 325 325 325 324 323 324 324 324 323
301 301 301 302 303 304 304 304 304 304 304 304 304 305 305 306 307 307 306 305 305 304 305 308 310 314 311 312 314 313 313 313 314 315 318 319 318 319 320 321 320 322 323 323 323 323 323 323 322 322 323 322 324 324
301 302 303 303 303 303 304 305 305 304 305 307 308 309 310 309 308 307 307 306 305 305 305 308 311 315 313 311 314 314 313 315 318 318 317 318 317 317 318 319 319 319 320 323 322 321 321 322 323 321 320 321 321 323
302 301 302 303 303 303 304 305 305 306 307 309 309 309 308 308 310 309 311 310 310 311 310 312 315 319 314 318 320 319 322 321 321 317 320 318 318 317 317 320 319 318 318 319 320 321 319 320 318 318 318 321 322 323
301 301 301 303 303 303 304 306 306 307 308 306 307 307 309 312 311 310 310 311 312 310 313 317 317 318 317 317 318 319 322 320 323 319 318 319 317 317 316 317 316 316 318 318 319 321 322 322 323 322 321 322 323 324
301 301 301 303 303 304 304 307 308 307 308 310 310 311 311 312 315 314 315 310 315 314 317 317 319 315 317 318 317 319 320 323 320 319 318 317 317 316 317 318 317 316 317 319 320 320 320 322 321 321 322 322 322 323
301 301 303 303 303 304 305 308 309 310 310 311 311 315 312 313 313 314 316 317 316 317 317 317 318 317 314 318 320 320 320 320 322 323 320 318 316 318 318 320 320 320 319 319 319 320 321 322 322 323 322 322 324 323
301 302 306 305 303 304 307 310 312 312 312 312 313 317 315 314 315 315 315 316 316 317 318 318 319 319 320 320 321 321 319 320 318 322 320 319 318 321 320 320 319 319 320 319 319 319 320 321 322 322 323 324 324 323
302 304 309 304 304 306 311 313 314 314 315 314 314 312 312 313 314 315 315 316 317 318 317 318 319 319 318 318 317 316 318 317 315 319 318 317 319 319 320 320 319 319 320 320 320 320 320 320 320 320 319 321 321 322
304 309 306 305 305 309 311 313 313 312 312 311 312 312 313 314 315 315 316 317 316 318 319 318 319 320 318 317 314 313 315 315 317 318 319 319 318 317 318 320 321 320 320 319 320 321 320 320 319 320 319 320 320 320
308 308 308 307 306 312 312 312 313 311 311 311 313 313 314 314 315 315 316 315 316 317 317 317 316 317 318 318 319 318 318 318 318 319 319 318 318 319 319 317 317 320 318 319 318 319 318 318 317 317 317 316 317 317
309 309 307 308 311 313 312 311 313 312 312 312 313 313 313 315 315 316 315 315 315 315 316 316 316 318 319 319 319 319 321 321 321 320 320 320 319 320 320 319 319 319 317 316 317 316 316 314 314 314 314 315 315 315
312 311 309 312 312 314 313 313 312 312 313 313 313 314 315 315 316 315 315 316 316 316 317 318 320 319 318 318 319 319 320 320 318 317 317 317 317 317 317 316 316 315 315 314 314 313 314 313 312 311 311 311 311 312
314 312 313 314 314 314 314 313 313 312 313 314 315 316 316 315 316 316 316 316 315 315 317 317 316 314 314 314 315 316 317 317 317 317 317 316 315 315 314 315 314 313 313 313 312 311 311 309 308 308 308 309 308 309
313 312 315 316 316 316 315 314 314 314 315 316 316 316 316 316 315 314 314 314 315 315 314 314 314 313 312 310 309 311 314 316 315 315 316 315 314 314 314 313 313 312 311 310 310 309 308 307 306 306 307 307 307 308
313 314 317 317 317 317 317 317 317 316 317 316 316 317 317 317 316 315 315 315 315 314 313 314 314 311 311 310 308 308 309 311 314 313 313 313 313 312 311 311 310 309 309 308 308 307 307 306 305 305 306 306 306 307
313 315 317 318 319 318 318 318 318 317 317 318 318 319 319 318 316 316 316 314 313 312 312 312 311 311 310 309 308 307 306 309 310 311 310 310 311 311 311 310 309 307 307 307 307 306 305 304 304 304 305 305 305 305
316 317 319 317 320 319 318 318 317 317 317 317 318 319 319 318 317 316 315 312 311 310 310 311 310 310 310 309 308 307 305 306 307 309 307 307 307 307 308 307 306 304 303 304 303 302 302 302 302 302 303 303 302 302
315 321 318 318 318 319 320 318 318 318 318 317 318 318 316 318 317 316 313 311 311 311 310 310 310 310 308 308 307 306 305 305 305 305 306 306 305 304 303 303 302 300 299 300 299 298 299 298 297 297 298 299 299 299
319 320 321 321 320 320 320 319 318 318 319 318 319 319 318 318 315 311 310 309 310 310 310 310 309 307 307 306 305 304 304 304 303 303 304 305 302 301 300 299 298 296 297 297 296 296 296 295 295 295 296 296 297 297
319 321 315 315 320 318 319 319 319 318 318 317 318 318 317 315 311 310 309 309 309 309 308 308 308 306 305 303 303 303 302 302 301 301 303 302 300 299 297 297 296 295 296 295 295 295 294 293 294 294 295 295 295 295
320 318 319 320 318 318 318 317 317 316 315 316 318 316 312 310 309 309 309 309 309 309 308 306 305 304 303 301 301 301 300 299 298 298 298 298 297 296 295 295 295 295 295 295 294 293 293 293 293 293 293 293 293 292
317 319 320 319 318 319 317 317 316 314 313 312 311 310 310 309 310 310 311 309 307 306 305 304 303 301 300 300 300 299 299 297 296 294 293 294 294 294 294 294 294 294 294 294 294 294 293 293 293 293 293 292 292 291
317 317 318 319 318 317 316 317 315 314 313 312 312 312 311 311 311 308 306 305 304 303 302 301 301 300 299 298 298 298 297 297 295 293 291 291 292 293 293 293 293 293 293 294 294 294 293 293 293 292 292 292 291 291
318 317 316 317 320 319 318 319 317 316 315 314 313 313 312 313 312 309 307 305 303 302 300 300 299 299 298 297 297 296 295 296 294 292 291 290 291 291 292 292 292 293 293 293 293 293 292 292 291 291 291 291 291 291
317 317 317 316 316 316 320 320 320 317 315 315 314 314 314 312 310 308 307 305 302 300 299 298 298 298 298 297 296 295 295 295 293 292 291 290 290 290 291 291 291 291 291 292 292 291 291 291 291 291 291 291 291 291

GFSWCAN_850_thetae_009.txt.gz
Theta_e
300 300 300 301 301 301 301 301 301 302 302 301 301 301 301 302 302 303 303 303 304 303 304 303 304 305 306 307 308 308 308 309 309 315 311 314 314 315 319 320 321 323 326 327 333 335 336 338 337 340 342 344 346 346
300 301 301 301 301 301 300 301 302 302 302 302 302 302 302 302 302 302 302 304 305 305 305 304 305 305 305 306 307 306 308 306 306 314 316 317 315 320 321 324 321 324 326 327 325 331 336 336 336 337 340 344 345 346
300 300 300 300 300 301 300 300 301 301 302 302 302 301 301 302 302 302 302 302 303 303 304 305 306 306 307 307 307 307 307 308 308 311 313 317 319 321 324 323 327 325 328 327 333 328 333 333 333 342 338 338 338 343
300 300 300 301 301 301 300 301 301 301 301 301 301 301 301 302 302 302 302 303 304 304 304 305 306 306 306 308 308 309 308 307 309 309 312 314 316 319 322 321 324 329 327 331 333 336 337 337 338 340 338 336 333 335
300 300 301 301 301 302 302 302 302 302 302 301 301 301 302 301 301 302 303 304 305 304 304 304 305 308 308 308 307 308 309 308 308 310 314 316 316 318 320 322 323 324 329 331 335 329 331 333 329 333 332 331 330 331
301 301 301 302 302 302 303 303 303 303 302 303 302 301 301 301 301 302 305 305 304 304 303 307 306 308 310 311 311 310 309 307 308 311 314 314 312 316 320 321 322 321 323 327 329 325 326 325 325 327 327 327 329 329
302 302 302 303 303 303 303 304 304 304 304 304 302 302 301 301 301 302 305 305 305 303 304 307 307 310 310 313 308 308 309 308 309 312 314 314 314 315 321 320 321 322 325 326 326 325 325 324 324 325 324 325 327 328
302 303 303 303 303 303 303 304 305 305 304 305 304 303 304 304 304 305 307 306 305 305 304 306 308 311 310 312 310 310 310 311 313 313 312 313 313 317 321 320 322 323 326 325 325 324 323 324 325 325 325 322 322 324
302 302 302 302 302 303 303 304 305 306 306 305 307 307 307 307 307 308 308 306 305 305 306 307 309 311 310 311 312 313 313 313 312 313 312 313 317 318 319 318 320 323 324 325 325 323 323 323 324 324 323 323 322 323
302 301 301 301 302 303 304 304 306 307 307 308 309 310 310 309 309 308 308 307 306 305 304 306 308 311 313 311 313 315 313 314 314 312 315 315 316 316 318 319 320 322 322 322 323 323 323 322 321 322 321 319 320 322
301 301 301 301 303 303 304 305 307 307 308 309 309 309 310 309 310 310 309 308 309 308 308 309 312 314 312 316 316 315 318 317 317 318 318 317 316 316 317 318 318 321 322 321 319 319 319 319 320 322 322 324 320 318
300 300 301 302 304 304 304 306 309 308 307 307 308 309 311 311 310 310 309 308 308 310 309 314 316 313 316 314 317 317 320 317 320 318 318 316 316 316 317 318 318 319 319 320 321 321 322 323 322 322 322 324 323 324
300 301 301 302 305 304 304 307 311 310 310 311 312 313 311 311 313 313 312 308 311 314 316 316 318 313 314 314 317 317 315 321 318 318 316 316 316 317 317 317 318 318 319 320 322 322 321 322 323 323 323 324 324 325
302 302 302 304 305 304 306 310 312 313 312 312 312 310 315 315 313 315 317 314 314 315 316 318 316 316 314 318 316 321 321 321 321 319 316 315 315 316 317 319 317 319 319 320 321 321 322 323 322 324 324 324 324 324
305 304 304 307 306 305 309 312 314 314 314 315 314 310 316 315 315 316 316 317 317 318 318 320 319 318 318 320 318 319 318 317 317 320 319 317 318 320 320 319 319 320 320 321 321 321 322 322 321 320 319 322 323 322
307 307 309 309 306 309 311 313 314 315 315 313 313 314 315 316 316 316 317 316 317 317 318 318 319 319 318 315 315 315 317 315 315 317 319 318 316 319 320 320 320 320 321 320 320 320 319 320 321 321 322 320 321 322
310 309 309 308 306 310 312 312 315 314 311 313 314 315 315 316 317 317 317 317 318 316 317 318 318 319 315 313 313 314 316 316 318 318 317 317 317 318 318 317 317 320 319 319 319 318 318 317 316 317 317 318 320 320
311 309 308 310 311 312 312 313 314 312 313 313 315 316 316 317 318 318 318 317 317 317 317 317 317 317 317 319 320 318 318 316 318 318 316 318 319 318 318 318 318 318 317 316 317 314 313 313 313 313 314 315 314 315
312 311 312 313 314 314 314 312 313 313 313 314 315 316 316 316 316 316 317 317 316 316 316 317 317 318 318 318 319 319 316 317 317 317 318 319 317 317 317 317 317 315 313 313 314 311 310 310 309 309 310 311 311 312
313 313 314 314 314 315 314 314 313 313 314 315 316 316 316 315 315 315 315 315 315 315 315 315 315 315 316 315 316 316 316 316 316 316 316 315 315 316 314 314 314 313 312 311 310 310 309 308 307 308 308 308 308 310
315 313 315 315 316 315 314 314 315 314 315 316 316 316 315 314 315 314 314 314 314 315 315 314 312 310 308 308 309 313 315 315 315 315 315 314 314 314 314 314 313 312 310 310 309 307 306 306 306 306 307 307 307 308
313 315 317 318 318 317 317 317 316 317 317 316 317 317 317 317 315 315 314 315 314 314 313 312 312 312 309 307 307 309 312 316 315 311 313 314 313 311 312 312 310 309 308 308 307 306 305 305 305 305 306 306 306 306
313 315 318 319 319 318 318 318 319 318 319 318 318 317 318 317 315 314 315 313 313 313 313 312 312 310 309 309 307 306 307 310 310 309 309 311 311 311 308 307 306 306 306 305 305 304 304 304 304 304 304 305 305 305
314 315 317 320 321 318 320 319 319 318 318 319 320 319 319 317 315 314 315 313 312 311 311 311 311 310 309 309 307 306 305 306 307 308 307 307 308 308 307 306 305 302 302 303 302 301 301 301 301 302 301 301 303 303
318 318 320 318 319 320 321 319 318 318 319 319 320 320 317 314 317 315 314 313 311 312 311 311 310 310 308 307 306 306 305 305 305 306 306 306 305 304 303 301 300 299 299 299 298 298 298 297 297 297 297 298 298 299
313 321 319 320 320 321 321 320 321 319 319 319 320 318 317 317 316 315 313 311 311 311 310 310 309 309 307 304 305 304 304 303 303 303 304 303 302 300 300 299 297 297 297 297 296 296 296 295 295 296 296 297 297 297
319 317 315 315 317 319 320 320 319 318 318 319 320 319 319 315 314 312 311 311 310 310 310 309 309 307 304 303 303 302 301 301 301 301 302 300 299 298 297 297 296 296 296 296 295 295 294 294 295 295 295 295 295 294
317 315 319 318 319 320 319 318 317 317 315 316 318 317 315 313 311 310 310 310 310 310 309 307 305 303 302 301 301 301 300 299 299 299 299 297 296 296 296 296 295 295 295 295 294 294 293 294 294 294 294 293 293 293
322 322 320 320 318 317 318 317 316 314 313 315 317 315 312 312 311 310 310 311 310 308 305 304 302 301 301 300 300 299 298 297 296 295 294 294 294 294 295 294 294 294 294 294 294 294 293 293 293 293 293 293 293 292
321 320 320 319 318 318 317 317 315 314 313 311 310 310 311 311 310 310 308 305 304 303 302 301 301 301 300 299 299 298 297 295 294 294 293 293 293 294 294 293 293 294 294 294 294 294 294 293 293 293 292 292 292 291
318 317 318 320 318 317 318 316 315 314 314 313 312 312 312 312 311 308 307 306 304 302 301 300 300 300 299 298 298 297 297 295 294 293 292 292 292 292 293 293 293 293 293 293 293 293 292 292 292 292 292 292 292 292
318 317 317 318 320 319 319 319 317 317 316 315 314 314 313 313 313 310 307 306 303 301 300 299 299 299 298 298 297 296 296 295 294 293 292 291 291 291 291 292 292 292 292 292 292 292 292 292 292 292 292 292 292 292
317 317 317 316 319 321 321 321 320 319 317 315 315 314 314 313 311 308 306 303 302 300 299 298 299 298 297 296 296 296 295 295 294 293 293 292 292 292 291 291 291 291 291 292 292 292 292 292 292 292 291 292 291 292

GFSWCAN_850_thetae_012.txt.gz
Theta_e
300 300 300 300 300 301 300 300 300 301 301 302 302 302 302 302 302 302 302 302 303 303 303 303 303 303 303 304 305 305 307 307 305 310 311 311 311 312 315 317 322 324 327 330 327 333 338 325 333 333 332 344 346 347
300 300 300 300 301 301 301 301 301 301 301 301 301 301 301 301 302 302 302 302 303 303 304 303 303 303 303 304 304 305 307 306 306 309 310 311 312 314 314 320 321 325 324 327 324 330 323 326 335 341 342 342 344 345
300 300 301 301 302 302 302 302 302 302 302 301 301 301 301 301 302 302 302 302 302 304 303 303 304 304 305 305 305 304 305 307 306 306 307 309 315 316 318 319 323 323 324 324 327 326 328 337 340 336 340 341 342 342
301 302 302 302 302 303 303 303 303 304 304 303 303 302 302 301 301 301 301 302 302 304 303 304 304 304 305 305 305 306 307 307 307 307 307 306 312 314 317 320 320 324 324 328 326 326 327 330 334 334 333 335 336 339
302 302 302 303 303 303 303 303 303 303 304 304 304 304 304 302 301 301 301 303 304 303 304 305 304 306 307 310 308 306 306 307 307 307 309 312 313 314 317 318 321 322 326 330 332 326 327 326 332 330 330 331 328 328
302 302 302 302 302 301 302 303 304 304 305 305 304 304 302 302 301 301 304 305 304 304 304 304 304 306 309 311 311 311 310 307 307 307 309 311 312 314 315 320 320 319 320 324 327 325 325 325 325 327 328 329 329 327
302 302 301 301 301 301 302 304 304 305 306 306 305 305 304 303 303 302 302 305 305 305 304 306 303 306 309 311 311 310 310 308 308 308 312 312 313 309 315 320 319 320 322 327 325 325 325 325 324 325 326 329 330 332
302 302 301 301 301 301 303 304 304 306 308 307 306 306 307 307 306 306 307 307 305 303 305 306 306 308 309 311 311 311 309 309 312 312 311 312 311 311 318 317 318 319 321 325 325 325 324 323 323 323 326 327 330 331
301 301 301 301 301 302 303 304 305 309 307 307 308 309 309 308 308 308 309 308 306 305 306 306 308 310 308 311 312 311 312 312 310 312 312 311 316 316 317 317 318 321 325 324 323 324 323 324 326 325 322 324 327 328
301 300 300 301 301 302 304 305 306 310 309 308 310 310 310 310 308 309 308 307 306 305 305 305 306 309 308 311 311 311 312 312 311 311 312 313 315 313 315 319 320 322 324 322 322 322 323 324 325 324 324 323 323 325
300 300 300 301 302 303 304 305 307 311 310 308 309 308 309 310 311 310 308 307 307 308 306 306 307 308 310 314 313 314 314 313 312 315 316 315 314 316 318 320 320 319 319 320 321 321 321 322 320 320 320 319 325 325
302 302 302 302 302 304 305 306 309 311 311 310 310 310 311 311 310 309 304 305 306 309 309 311 314 313 313 313 312 315 316 315 319 317 315 314 315 317 318 319 320 320 320 321 321 321 320 321 322 323 324 324 324 325
306 305 305 304 303 304 305 307 311 313 313 311 311 312 312 311 312 309 310 310 312 311 313 315 315 313 314 315 315 314 316 319 318 315 312 313 315 316 317 319 319 320 320 321 323 323 323 323 323 324 324 325 324 324
309 308 307 306 306 305 307 310 312 313 314 314 313 309 311 312 314 314 317 317 316 314 316 317 317 315 315 317 316 320 319 316 318 316 314 315 314 315 317 318 319 320 321 321 322 322 322 323 324 323 323 324 322 321
310 310 309 308 307 307 310 312 312 314 315 315 313 311 314 314 315 316 317 317 316 316 318 318 317 316 316 316 314 316 317 315 314 318 317 318 319 320 319 320 320 320 321 320 319 321 321 321 322 322 322 321 321 319
311 311 309 308 306 311 312 313 314 314 314 313 314 315 314 315 316 317 317 317 316 315 317 316 316 316 315 313 315 315 315 316 317 318 317 317 318 319 319 319 319 319 318 317 317 317 318 318 318 319 320 319 317 317
311 309 310 310 308 312 312 313 314 315 313 314 314 316 316 316 316 316 314 315 316 316 316 315 318 317 313 313 314 315 317 317 317 318 318 318 317 318 318 318 318 318 314 311 311 311 311 315 316 313 317 317 317 315
312 311 312 313 312 312 312 312 313 313 314 315 315 316 315 315 314 314 313 312 314 314 316 317 317 317 316 315 316 317 317 317 317 317 318 317 316 318 317 317 315 313 310 310 309 309 309 309 309 309 311 311 311 311
313 313 313 314 314 314 314 313 313 314 314 315 315 315 314 314 314 313 313 313 311 311 312 313 315 314 314 316 316 316 316 316 317 316 316 316 315 315 316 315 311 311 310 309 309 307 307 307 307 307 308 310 310 311
313 313 314 314 314 314 314 313 314 313 314 315 314 314 315 315 314 313 313 312 313 311 309 310 311 310 308 308 312 315 316 314 315 314 314 314 314 314 312 310 310 307 306 306 306 306 306 306 306 307 306 308 308 308
314 315 316 317 317 315 314 314 315 315 315 316 315 315 316 314 314 313 313 313 311 311 313 311 309 307 306 307 312 312 310 311 312 312 310 311 313 313 310 309 308 307 306 305 304 304 305 305 305 305 306 306 306 306
313 315 317 317 318 317 317 316 316 317 317 316 317 316 316 316 315 313 311 312 312 312 311 310 310 308 306 306 306 308 308 308 309 310 311 310 308 307 306 305 305 303 303 302 303 303 303 303 304 304 304 305 305 304
314 315 317 319 318 317 317 318 319 318 317 317 317 316 316 314 313 312 312 312 312 311 310 309 308 308 307 306 305 305 306 307 307 309 308 308 306 305 304 303 303 303 301 300 301 302 302 301 300 301 301 301 300 302
315 315 317 317 319 318 319 320 319 319 319 318 316 316 316 316 314 313 311 312 311 310 309 309 308 308 306 305 304 304 304 304 306 305 306 304 303 301 300 299 299 299 299 298 298 298 298 298 297 297 298 298 297 297
317 318 319 318 317 317 318 317 318 317 317 317 316 315 315 314 315 313 313 311 311 310 309 309 307 306 304 304 304 302 303 303 304 303 301 301 299 298 299 297 297 296 296 296 296 296 295 295 296 296 296 296 296 295
313 316 318 318 317 316 318 318 318 319 317 318 317 316 314 315 313 312 310 311 309 310 310 309 309 304 303 303 302 301 301 302 302 301 299 299 297 297 296 297 296 296 296 295 295 294 294 294 295 294 294 294 294 294
312 315 315 316 315 317 319 318 318 315 315 317 317 316 315 313 312 310 309 309 310 309 307 305 303 301 301 301 300 300 300 299 298 296 296 296 296 296 295 295 295 295 295 294 294 294 293 294 294 293 293 293 293 292
317 316 316 319 319 319 318 316 315 313 312 313 316 314 313 311 308 309 309 310 310 309 304 302 301 300 300 300 299 299 298 298 297 296 294 294 295 295 295 294 294 294 294 294 294 293 293 293 293 293 293 292 292 292
320 319 319 320 319 318 317 316 314 313 311 314 314 311 311 311 309 310 309 304 304 303 302 301 300 300 299 299 298 298 297 297 296 295 293 293 293 293 293 293 294 294 294 294 293 293 293 293 293 292 292 292 291 291
321 321 321 320 317 317 317 316 314 313 310 308 308 310 310 310 309 310 306 304 302 302 301 300 300 299 299 298 297 297 296 296 295 294 292 292 292 293 293 293 293 293 293 293 293 293 293 292 292 292 292 292 292 291
318 319 320 319 318 317 317 316 314 313 313 312 312 311 311 311 311 308 306 304 302 302 301 299 299 298 298 297 297 296 296 295 294 293 292 291 291 292 292 292 292 292 293 292 292 292 292 292 292 292 292 292 292 291
318 317 317 319 319 317 316 315 314 314 314 313 313 313 312 313 312 310 307 307 304 302 300 298 298 298 297 297 296 296 296 295 294 293 293 292 292 292 291 291 291 292 292 292 292 292 292 292 292 292 291 291 291 291
317 318 317 317 320 319 319 318 318 318 316 315 315 314 314 312 310 307 304 303 302 301 299 298 298 298 297 296 295 295 295 295 294 293 293 293 292 292 292 292 291 291 291 291 292 292 292 292 292 291 291 291 292 292

GFSWCAN_850_thetae_015.txt.gz
Theta_e
301 301 301 302 302 302 303 303 303 303 303 302 301 301 302 301 301 302 302 302 302 302 302 302 302 302 302 303 303 303 303 305 303 307 308 308 309 310 311 312 316 319 322 323 319 325 328 331 335 340 336 336 343 340
301 302 302 303 303 303 303 303 303 303 303 303 303 303 302 302 302 302 302 302 303 303 302 302 302 302 303 303 303 303 304 304 306 306 305 306 308 310 310 315 314 318 320 324 323 325 324 327 329 335 334 338 340 344
302 302 303 303 302 302 301 301 301 303 303 303 304 303 304 303 302 302 301 301 301 302 302 303 304 304 304 304 304 303 304 304 305 306 307 307 310 311 312 313 315 317 318 323 324 325 328 330 329 332 332 334 337 340
302 303 302 302 301 301 300 300 301 303 304 304 304 304 304 304 304 303 302 302 301 301 303 304 304 304 304 304 304 304 304 305 306 306 306 307 309 309 312 313 312 313 319 322 325 325 327 328 330 329 330 332 335 338
302 302 302 301 301 300 300 301 302 304 305 305 305 305 305 305 304 304 303 301 301 301 304 304 304 305 305 306 307 305 304 304 304 307 308 309 309 310 313 310 314 317 322 322 323 326 327 327 330 325 326 327 332 334
302 302 302 301 301 300 300 301 304 305 305 307 307 306 305 305 304 304 301 304 305 304 303 304 304 306 307 308 309 310 307 304 305 306 305 307 308 309 314 310 318 319 319 320 326 326 326 328 326 325 328 331 329 330
302 301 301 301 301 300 301 302 304 305 306 309 308 307 306 305 305 304 304 304 304 304 304 305 304 305 306 309 309 310 307 306 306 306 307 308 309 310 311 314 317 317 318 320 321 324 325 327 326 327 330 330 331 331
301 301 301 300 300 301 301 303 305 306 309 311 308 308 309 308 306 306 308 307 306 304 302 306 306 306 309 310 311 312 307 307 310 310 311 312 310 310 311 313 316 316 318 319 325 325 324 326 326 329 329 329 330 329
300 300 300 300 301 302 302 303 305 308 311 312 308 309 309 308 308 309 309 308 307 305 303 304 307 309 307 309 311 310 311 311 310 312 311 310 310 312 314 314 314 318 321 325 324 324 323 325 325 328 328 327 326 326
304 303 303 303 302 302 303 305 306 310 312 312 309 309 310 309 309 309 308 307 305 304 303 304 303 306 307 309 311 311 310 311 310 309 310 309 308 310 313 315 315 322 323 324 323 323 323 324 324 323 324 323 326 326
308 307 307 306 305 304 304 306 307 311 313 312 311 309 310 311 311 310 306 306 305 305 303 304 304 305 307 312 313 311 308 310 311 312 313 309 310 316 316 318 320 321 322 322 322 322 322 321 321 321 324 324 320 322
309 309 309 308 307 305 305 307 310 311 311 312 311 311 311 311 310 308 308 306 305 307 307 309 311 309 311 312 312 312 312 311 317 315 313 312 311 316 318 320 321 321 321 322 322 322 322 323 323 322 322 324 325 325
311 310 310 309 306 306 307 311 312 312 314 313 312 312 310 311 315 311 310 315 316 312 311 313 316 314 314 314 314 313 318 319 316 312 311 310 312 317 318 319 321 322 323 322 321 322 323 323 323 325 325 325 324 324
311 311 310 309 306 307 310 313 313 313 314 314 311 311 312 313 315 315 316 317 316 315 315 315 317 315 315 315 316 318 316 314 316 315 315 316 319 320 320 319 318 319 320 322 322 323 323 322 321 321 320 320 322 323
311 309 308 307 308 311 312 313 312 312 313 313 313 309 314 314 314 314 313 315 315 315 316 317 316 314 312 314 314 314 316 314 314 318 318 318 318 317 317 316 314 315 320 319 318 320 321 316 317 318 317 318 320 321
312 310 309 308 311 312 312 312 313 313 313 314 315 315 314 313 313 313 312 312 314 315 316 316 314 314 315 313 315 315 314 315 317 318 318 317 317 316 313 315 312 312 314 314 314 316 317 317 315 314 315 316 316 318
312 311 311 311 312 312 312 312 313 314 315 315 314 314 313 313 312 312 311 310 313 314 315 315 316 317 313 315 316 316 318 318 317 316 317 316 315 314 310 308 309 310 310 310 309 310 310 311 313 312 312 315 315 315
312 312 313 311 311 312 313 313 313 314 315 314 314 313 313 312 311 311 311 309 310 310 314 315 313 315 316 318 317 316 316 315 315 315 315 316 315 312 312 309 307 307 308 307 307 307 307 308 310 310 311 313 313 314
312 312 313 313 313 312 313 313 314 315 314 314 314 313 313 312 312 310 310 309 308 308 309 309 310 311 311 310 312 313 314 316 316 314 312 310 309 307 306 305 306 306 306 306 306 306 306 306 307 307 309 312 311 310
314 315 315 314 313 313 313 314 314 315 315 315 314 314 312 311 312 312 311 310 310 309 307 308 307 306 306 307 308 310 311 313 313 311 309 309 309 308 306 305 305 305 305 305 305 305 305 306 306 306 306 306 306 307
314 315 315 315 316 315 314 314 315 315 315 316 316 315 314 312 311 311 310 310 310 310 309 309 306 305 305 307 307 308 310 310 308 308 306 305 304 304 304 304 303 303 303 303 303 302 303 305 305 305 304 304 304 305
313 315 316 317 317 316 316 317 316 317 317 316 316 316 314 313 312 312 311 311 310 310 309 308 307 305 305 305 306 307 309 309 307 307 306 306 305 305 303 302 302 302 302 301 301 300 300 300 300 302 303 303 302 302
314 315 316 318 318 317 317 318 318 318 316 315 315 315 315 313 313 312 311 311 311 309 308 306 306 304 304 304 304 305 306 306 306 305 304 304 303 302 303 303 302 301 300 298 297 297 297 297 298 298 299 301 300 298
314 315 317 317 319 318 319 319 319 318 317 315 313 314 315 314 314 312 309 311 309 309 309 307 304 304 303 303 302 303 304 304 304 303 301 300 299 298 298 297 297 296 296 295 295 295 295 296 296 297 296 296 295 295
318 319 319 317 316 315 316 315 316 315 315 314 313 311 313 314 310 309 308 310 309 309 307 308 308 303 302 301 302 302 302 302 302 300 299 298 298 297 296 296 296 295 294 294 294 294 294 295 295 294 294 293 293 293
309 315 317 316 316 316 315 317 316 315 314 316 315 315 314 311 310 309 308 309 309 308 308 305 304 302 302 300 299 299 300 300 300 299 296 296 296 296 296 295 295 295 294 294 294 294 294 293 293 293 293 293 292 292
311 314 316 316 315 316 317 316 315 312 312 314 314 314 310 311 309 307 309 309 309 308 306 302 301 301 300 300 299 298 297 297 296 295 295 295 294 294 294 294 294 294 294 294 293 293 293 293 293 293 293 292 292 292
317 317 316 318 318 319 317 313 312 311 311 312 313 312 311 308 304 308 308 304 304 302 301 301 300 300 299 299 298 297 297 296 296 295 294 294 294 294 293 293 293 293 294 294 293 293 293 293 293 292 292 292 291 291
319 319 318 318 318 318 316 314 313 312 310 314 312 309 310 309 308 308 308 304 302 302 302 300 299 299 299 298 297 297 296 295 295 294 292 292 293 293 293 293 293 293 293 293 293 293 293 292 292 292 291 292 291 291
320 320 319 319 317 315 316 315 310 311 309 310 309 309 308 308 308 309 308 304 303 303 301 300 299 298 298 297 297 296 295 295 294 293 291 292 292 292 292 292 292 293 292 292 292 292 292 292 292 292 292 291 291 291
319 321 321 318 317 317 317 315 312 312 311 310 311 311 311 310 310 309 306 305 305 303 302 301 299 298 298 297 297 296 295 294 294 293 292 291 291 291 291 291 291 292 292 292 292 292 292 292 292 291 291 291 291 291
318 317 317 317 317 316 315 315 314 314 313 312 312 312 311 311 311 307 304 304 304 303 302 300 298 298 297 297 296 295 295 294 294 293 293 292 292 292 292 291 291 291 292 292 292 292 292 292 291 291 291 291 292 291
316 317 317 319 316 315 316 315 315 315 314 313 313 313 313 313 312 308 305 304 303 302 301 300 298 298 297 296 295 295 295 294 294 293 293 293 292 292 292 292 292 291 291 291 292 292 291 291 291 291 291 291 291 291

GFSWCAN_850_thetae_018.txt.gz
Theta_e
301 302 302 303 303 302 301 301 300 300 301 302 303 304 304 304 302 302 302 302 302 303 302 302 302 302 301 301 302 302 302 303 303 306 308 307 306 307 308 308 311 311 313 313 313 317 319 323 331 339 334 334 334 337
301 302 302 303 302 302 301 300 300 300 301 303 304 304 304 305 304 303 302 303 302 303 302 302 302 302 302 302 302 302 303 302 303 303 305 303 307 308 310 310 309 310 315 317 316 317 316 326 326 331 331 332 333 333
302 302 303 302 302 302 301 300 300 300 302 304 305 305 306 306 305 304 305 303 303 302 301 301 303 304 303 303 302 302 303 302 303 304 306 307 309 308 308 310 312 312 314 316 317 318 321 326 330 329 330 330 333 336
301 301 302 302 301 302 301 300 300 301 303 306 306 306 307 307 306 305 304 304 304 302 301 301 303 304 304 304 304 303 303 304 304 305 305 305 308 307 310 310 309 309 310 313 315 317 322 328 327 328 329 333 335 336
301 301 301 301 301 301 300 300 301 302 304 306 306 308 307 307 306 306 305 304 303 303 301 302 303 304 304 304 304 304 303 303 303 305 307 308 307 307 309 309 311 310 310 314 315 317 322 325 325 327 329 332 332 332
300 300 300 300 300 300 300 301 302 303 306 307 309 309 308 307 306 305 304 303 304 302 302 305 304 305 305 305 306 305 304 303 303 303 305 307 307 308 310 312 310 312 312 313 318 320 321 325 326 330 330 330 331 333
302 302 301 301 301 301 302 302 303 304 306 310 312 310 308 308 306 305 306 306 305 304 303 304 305 305 305 308 309 307 304 303 303 304 305 305 308 309 310 310 310 310 311 312 317 317 323 325 328 330 330 331 332 333
306 306 306 305 304 303 304 304 303 305 308 311 312 309 309 309 308 306 306 306 305 303 302 304 306 306 308 308 309 308 304 304 305 306 308 309 310 310 311 310 310 311 311 314 317 319 323 325 327 329 331 332 332 331
308 308 308 308 308 307 306 305 304 308 311 312 311 309 309 309 308 308 308 307 305 303 300 301 306 309 306 307 310 310 309 310 309 310 311 310 310 310 309 309 311 313 314 317 320 319 319 324 325 327 327 327 325 325
309 310 310 310 309 308 307 305 308 311 312 312 311 309 309 309 310 309 307 306 304 303 301 302 301 305 305 307 311 310 309 310 311 308 308 309 308 308 310 311 315 317 318 318 322 321 322 324 326 326 326 325 325 324
310 310 310 310 310 307 305 308 311 312 313 313 312 310 311 311 311 310 307 306 304 303 300 301 302 304 306 308 312 310 308 307 310 310 309 308 309 312 314 316 321 322 321 322 322 322 321 323 323 323 324 326 326 326
311 311 311 310 308 306 308 311 313 313 313 313 312 311 311 311 311 310 309 308 306 308 308 307 309 307 308 310 311 311 309 305 313 313 309 312 310 315 320 321 322 322 321 321 321 320 321 322 324 324 325 325 325 326
311 311 309 307 305 308 311 312 312 313 313 313 312 312 312 313 315 314 314 314 316 315 313 315 315 315 314 314 314 313 316 315 312 310 309 316 316 314 314 318 320 321 322 322 322 323 323 322 323 324 324 324 325 321
311 310 308 307 309 311 312 312 313 313 313 313 312 309 312 314 313 314 313 313 314 314 313 315 315 313 312 311 315 317 315 313 315 313 316 316 313 311 313 313 318 318 316 317 319 320 319 320 321 323 321 319 318 318
311 308 309 310 311 312 312 313 313 313 313 314 314 311 310 312 311 311 310 311 312 313 315 314 313 313 312 315 314 312 315 314 314 315 315 314 312 309 308 308 313 314 316 315 315 314 314 316 318 319 321 321 319 318
310 309 310 311 312 312 312 313 313 314 315 314 313 312 312 311 310 309 309 308 311 314 315 315 313 314 315 314 315 316 312 315 317 316 314 311 309 307 306 306 307 312 314 313 315 315 314 315 315 315 317 317 317 316
309 310 311 311 312 313 313 313 313 314 314 313 312 312 311 311 310 309 308 307 310 312 313 314 316 316 313 314 316 315 316 315 314 313 311 312 310 305 306 307 307 307 308 309 310 311 312 314 314 315 314 312 313 312
310 311 312 311 311 313 313 313 314 313 314 313 312 311 311 310 309 309 309 307 308 308 311 313 310 311 312 314 314 314 314 313 308 307 306 305 306 306 305 305 306 306 306 306 307 308 310 311 311 309 309 310 310 309
314 313 313 312 312 312 313 313 314 314 314 313 311 311 310 309 309 309 309 308 307 308 309 308 308 308 309 308 308 308 309 311 309 309 306 304 305 304 305 305 305 305 305 306 306 306 306 307 308 309 309 309 308 307
313 315 315 315 313 312 313 314 314 314 314 314 312 310 310 310 310 309 309 308 308 307 307 305 306 305 305 305 308 306 307 308 307 307 304 304 304 303 303 303 303 302 303 304 305 305 305 305 305 305 306 306 306 306
313 314 315 316 315 315 314 314 315 315 315 315 315 313 312 312 311 310 310 309 309 308 307 306 303 305 307 308 308 307 307 307 307 306 303 302 302 304 305 305 306 307 305 303 301 300 301 303 304 304 304 304 303 303
313 313 315 317 317 316 316 317 316 316 316 316 316 314 312 312 311 310 310 309 309 309 307 305 303 304 303 303 304 305 305 305 305 304 303 303 303 303 302 300 299 298 297 296 296 297 297 298 301 302 302 300 299 299
314 314 316 317 318 317 316 318 317 317 314 313 314 314 313 313 312 311 310 309 309 308 307 304 303 303 303 303 303 303 303 303 302 302 301 301 300 299 298 297 296 296 295 294 295 295 296 297 299 299 298 297 296 296
314 316 317 318 318 317 317 317 317 317 315 312 311 313 313 314 314 310 307 309 309 307 306 306 306 304 303 302 301 302 302 303 302 301 299 298 298 298 297 296 295 295 294 294 294 295 296 296 296 296 295 295 294 294
318 318 318 316 315 315 315 314 314 313 313 312 312 311 312 313 308 307 307 308 308 308 309 307 305 303 301 300 301 301 300 300 300 299 298 296 296 296 295 295 294 294 294 294 294 294 294 294 293 293 293 292 292 292
306 315 315 315 315 315 314 315 314 313 312 314 315 314 313 309 308 306 306 308 309 308 306 304 303 302 301 299 299 299 298 297 296 296 296 296 295 295 295 295 294 294 294 293 293 293 293 293 293 292 292 292 292 291
310 314 316 316 315 315 315 314 313 310 311 313 311 312 309 309 306 305 308 307 305 305 303 302 301 300 300 299 298 297 297 296 295 295 294 294 294 294 294 294 294 294 294 294 293 293 293 293 292 292 292 292 291 291
317 316 314 317 318 318 316 312 311 310 309 311 312 312 311 307 303 307 306 305 304 303 302 301 300 300 299 298 297 297 296 296 295 294 293 293 293 293 293 293 293 293 293 293 293 293 293 292 292 292 291 291 291 291
318 318 317 317 318 317 316 314 312 311 310 312 312 308 310 308 307 307 307 307 304 303 301 302 300 299 298 298 297 296 296 295 294 293 292 292 292 292 292 292 292 293 293 292 292 292 292 292 291 291 291 291 291 291
319 319 318 318 316 314 316 316 312 311 310 310 310 309 308 308 308 308 308 309 307 303 302 302 300 299 298 297 297 296 295 294 293 293 291 291 291 291 291 291 291 292 292 292 292 291 291 291 291 291 291 291 291 291
320 320 320 319 317 317 317 315 313 311 312 310 309 310 310 310 309 308 309 309 305 304 303 302 300 299 298 297 296 296 295 294 293 293 292 292 292 292 291 291 291 292 292 292 292 292 292 292 291 291 291 291 291 291
318 319 319 315 316 316 316 314 313 312 312 311 311 311 311 311 310 310 311 308 305 304 302 301 300 299 297 297 296 295 295 294 293 293 293 292 292 292 292 292 291 291 291 291 292 292 291 291 291 291 291 291 291 291
315 315 314 317 315 314 314 314 314 313 313 312 312 312 312 312 312 311 309 307 304 302 301 300 300 298 297 296 295 294 294 294 293 293 293 293 293 292 292 292 292 292 291 291 291 291 291 291 291 291 291 291 290 291

GFSWCAN_850_thetae_021.txt.gz
Theta_e
301 301 302 303 303 302 302 301 301 300 300 300 301 303 305 305 305 305 305 303 302 302 302 302 303 302 303 302 303 302 303 304 306 307 307 307 309 309 311 308 308 313 315 315 312 313 313 315 321 325 336 335 337 338
301 301 301 302 301 301 301 301 300 300 300 301 302 305 306 306 306 306 305 305 304 303 302 303 302 302 303 302 302 302 303 304 305 307 306 306 309 309 310 311 310 311 311 317 313 312 313 315 320 327 333 334 335 336
301 301 301 301 301 301 300 300 300 300 301 302 304 307 306 307 307 307 306 305 305 302 303 302 303 302 303 303 302 302 303 303 303 304 306 308 308 309 311 311 311 312 312 315 314 312 314 315 318 323 329 331 333 335
299 300 300 300 300 300 300 301 301 302 303 303 307 307 307 307 308 307 307 306 304 304 302 303 302 303 303 303 303 302 302 303 303 303 304 306 309 308 309 310 311 311 310 312 315 315 315 314 316 322 328 330 334 334
303 303 303 303 303 303 304 304 303 303 304 304 307 307 309 308 308 307 307 306 305 304 303 303 303 304 304 304 304 303 303 303 303 305 306 307 306 307 308 309 310 309 311 314 314 315 316 317 320 324 326 331 332 333
305 306 307 307 308 307 307 306 305 305 304 306 308 310 310 308 307 306 306 304 304 304 304 305 304 304 305 305 304 304 303 303 303 304 304 304 305 307 311 311 310 310 311 311 315 313 314 317 318 321 326 332 331 332
308 308 308 308 309 309 309 308 307 305 306 309 310 311 309 308 308 307 306 307 305 303 302 304 304 305 306 307 306 303 303 303 303 303 304 305 306 307 310 310 310 310 310 311 312 312 312 316 318 324 328 331 332 332
309 309 309 309 310 310 309 307 305 307 310 311 311 310 309 309 309 307 308 307 305 303 302 305 306 306 308 309 309 305 304 303 303 305 306 309 309 307 310 310 310 310 309 310 311 311 312 316 319 323 325 328 329 328
310 310 310 310 311 310 307 305 308 311 313 313 311 309 309 309 308 308 307 306 305 304 300 301 306 310 306 307 309 309 305 306 306 306 309 309 311 312 311 310 310 310 310 312 314 317 317 318 322 319 326 327 325 326
311 311 311 310 310 307 306 309 311 313 313 312 311 309 310 310 310 308 307 305 304 303 301 301 300 304 304 307 309 310 309 310 310 308 305 309 308 308 309 309 310 311 312 314 313 316 319 321 322 324 325 326 325 327
311 311 311 308 306 305 310 312 312 313 313 312 312 311 311 310 310 309 307 306 305 303 301 301 301 304 305 307 310 309 307 305 310 310 307 308 309 310 315 321 321 321 319 319 320 321 319 322 321 325 324 322 325 327
311 311 309 306 306 310 311 312 313 313 312 313 312 312 312 313 313 313 312 310 309 310 309 307 310 307 307 308 311 310 308 306 313 311 310 311 308 311 315 315 315 316 318 321 319 317 317 323 324 325 325 326 325 323
311 310 306 308 311 311 312 313 313 313 313 313 313 313 313 311 310 312 311 311 314 315 315 314 316 315 315 315 315 315 316 316 314 312 310 307 310 310 312 313 314 316 315 314 316 318 322 321 322 321 319 319 317 316
311 307 309 311 312 312 313 313 313 313 314 314 313 311 313 312 311 310 310 311 311 312 312 313 316 314 312 315 315 316 316 314 316 314 311 310 308 308 310 313 314 314 316 314 318 316 317 318 316 316 319 317 318 319
309 309 311 312 312 312 312 312 312 312 313 313 312 312 313 311 311 309 309 309 310 310 314 315 315 315 315 316 314 313 317 315 311 311 309 308 305 307 309 311 312 313 313 314 315 313 314 316 316 314 314 315 316 317
308 309 311 312 313 313 312 312 312 313 313 312 311 312 311 310 310 309 309 309 309 313 315 315 316 317 317 316 315 314 313 315 314 312 308 307 306 305 305 307 308 311 312 313 312 312 313 313 313 312 314 316 316 317
309 308 310 312 313 313 312 312 313 313 312 312 312 310 310 310 309 309 308 308 310 312 315 315 313 315 314 315 313 314 312 310 308 305 304 304 304 304 305 306 307 308 310 311 311 310 309 308 309 311 311 311 312 313
313 312 310 310 312 311 313 313 313 313 313 311 312 310 310 309 309 309 308 306 308 309 310 311 310 311 310 311 312 310 311 308 306 304 302 302 303 304 305 305 305 305 306 306 308 308 309 309 308 307 306 306 308 308
313 314 314 313 312 313 313 314 313 314 313 311 310 310 310 309 309 309 307 306 306 307 309 308 310 310 309 308 308 308 309 310 307 303 302 302 302 303 304 305 305 305 305 305 305 305 306 306 306 306 306 306 306 303
313 313 314 315 314 313 313 314 314 314 314 313 311 311 311 311 309 309 308 307 307 307 307 308 307 307 307 306 305 305 305 306 306 305 303 301 301 304 305 304 303 302 301 302 302 303 304 304 304 304 304 304 303 302
313 313 313 315 315 315 314 314 315 314 313 314 315 313 312 312 311 309 308 308 308 308 307 307 306 306 306 306 305 304 303 303 304 303 302 302 302 301 299 299 298 298 297 296 297 297 299 302 301 301 301 300 298 297
314 313 314 316 317 316 316 317 316 316 316 315 315 313 313 314 312 311 309 309 309 308 305 304 303 303 303 303 303 303 302 302 302 302 300 300 299 298 298 297 296 296 296 295 295 296 297 299 298 298 297 296 296 295
314 314 316 317 318 317 316 318 317 316 317 315 314 316 315 314 313 310 310 309 309 306 306 305 304 302 302 302 302 302 301 301 300 300 299 298 297 297 296 295 295 295 295 295 295 296 297 298 297 296 295 295 295 294
314 316 318 317 315 316 315 316 317 317 316 315 315 316 316 315 312 311 311 309 309 308 309 307 304 304 302 301 300 300 300 300 299 298 297 297 297 296 295 295 294 294 294 294 295 296 296 295 295 295 294 294 294 293
317 316 316 315 315 316 318 317 316 316 317 316 315 316 315 312 314 312 310 309 309 308 305 303 302 302 301 300 299 299 299 298 297 296 296 296 295 296 296 295 294 294 293 294 294 294 294 293 293 293 293 293 292 292
310 314 315 315 316 318 317 318 318 317 315 317 317 315 313 312 308 308 309 308 307 304 304 303 301 301 300 299 298 298 297 296 296 296 295 294 294 294 295 295 294 294 294 293 294 294 293 293 293 293 293 292 291 292
314 316 315 316 316 315 317 315 313 312 313 316 316 316 313 311 308 308 306 305 305 305 304 302 301 300 299 299 298 297 296 296 295 294 293 293 293 293 293 293 293 293 293 293 293 293 293 293 293 292 292 292 292 292
316 316 318 317 317 317 318 315 314 313 311 312 314 315 313 311 309 306 305 306 306 306 303 302 301 300 299 298 297 297 296 295 294 293 292 292 292 292 292 292 293 293 293 293 293 293 293 293 292 292 292 292 292 292
318 317 316 318 318 318 319 317 315 311 310 311 315 313 311 309 307 307 307 307 307 306 303 301 301 300 298 298 297 296 296 295 294 293 292 292 292 292 291 291 291 292 292 292 292 292 292 292 292 292 292 292 292 292
319 318 318 318 318 319 317 316 315 312 311 310 311 310 309 309 309 308 308 308 308 308 303 301 301 299 298 297 296 296 295 294 294 293 292 292 292 291 291 291 292 291 292 292 292 292 291 292 292 292 292 292 292 292
319 319 319 319 320 318 317 316 315 312 311 311 311 310 310 311 311 310 309 311 309 306 302 302 300 299 297 297 296 296 295 294 294 293 292 292 292 292 292 292 291 291 292 292 292 292 292 292 292 292 292 292 292 292
318 320 321 320 318 316 316 315 314 312 311 311 311 311 311 311 311 311 311 311 307 303 302 301 300 298 297 296 295 295 295 294 293 293 293 293 292 292 292 292 292 292 292 292 292 292 292 292 292 292 292 292 291 291
314 313 314 316 317 315 314 314 314 315 314 313 313 312 312 312 313 311 310 308 303 301 301 300 299 298 297 296 295 294 294 294 294 293 293 293 293 292 292 292 292 292 292 292 292 292 292 292 292 292 292 292 291 291

GFSWCAN_850_thetae_024.txt.gz
Theta_e
301 301 301 301 301 301 301 300 300 300 300 301 302 303 304 306 307 306 306 305 304 302 304 305 304 304 304 304 306 304 305 306 307 309 308 307 309 310 311 310 311 312 313 313 314 315 316 316 318 324 331 333 333 334
299 299 299 299 300 300 301 301 301 302 302 304 304 304 306 307 307 307 307 306 305 303 303 304 305 305 305 304 304 304 304 306 306 309 310 310 310 310 311 312 311 311 312 314 315 315 315 315 317 318 319 322 329 328
301 303 304 305 304 304 305 305 305 306 305 305 305 305 307 307 308 308 308 308 306 303 303 304 307 306 305 305 305 304 304 303 304 305 306 309 310 310 312 311 312 312 311 313 313 313 315 314 314 316 318 320 322 326
306 306 306 307 307 307 308 308 308 308 307 306 305 307 308 308 309 308 308 308 307 304 304 306 305 305 306 305 305 305 304 304 305 305 307 307 309 309 312 311 312 312 312 313 315 315 313 313 314 315 317 321 325 326
307 308 308 309 309 309 309 309 309 308 307 305 307 309 310 309 308 308 308 308 307 306 305 306 306 307 306 306 305 305 305 304 304 305 306 308 307 308 310 310 311 310 313 314 315 313 313 314 314 318 319 321 323 326
308 309 310 310 310 309 309 310 309 306 306 309 311 311 310 309 308 307 308 305 306 305 304 307 306 307 307 306 306 306 306 305 305 305 305 305 305 308 313 312 312 311 311 311 314 313 314 315 315 315 317 318 320 325
310 310 311 310 310 310 310 307 306 309 311 312 312 311 309 310 309 308 307 307 306 304 303 305 307 308 306 307 306 306 305 305 304 304 303 305 307 307 310 311 311 310 311 312 312 312 313 314 315 315 318 320 322 328
311 311 311 311 310 309 306 307 310 312 313 313 311 309 310 310 309 308 308 307 306 304 302 305 307 307 307 309 309 305 303 302 302 302 303 306 307 306 310 309 309 309 311 311 310 311 311 312 314 315 319 324 327 329
312 312 311 311 307 305 308 311 312 313 313 312 311 309 310 310 309 308 307 306 305 304 301 301 306 310 306 306 307 305 303 305 303 305 306 308 308 308 308 308 307 308 310 310 310 310 311 314 315 316 319 323 321 328
312 312 311 307 306 309 311 312 313 313 313 312 311 312 315 310 309 308 307 305 304 304 302 301 300 304 304 306 309 309 308 308 310 307 303 304 306 304 308 314 320 313 308 310 311 312 314 317 319 320 322 319 321 327
312 311 307 307 310 311 312 313 313 313 313 313 314 314 311 311 311 310 312 308 307 307 303 303 303 305 306 308 310 308 309 306 311 311 308 308 309 308 310 313 314 317 314 312 313 315 317 320 320 319 319 325 328 327
312 308 308 311 312 312 313 313 313 313 313 313 313 313 314 314 314 314 313 312 313 316 315 312 314 309 309 308 311 311 311 311 317 315 312 311 306 308 309 311 312 314 319 319 317 318 321 320 321 321 322 323 321 321
310 307 311 312 312 312 312 312 312 313 314 313 313 312 314 312 312 312 311 313 314 315 316 315 317 317 317 315 318 319 318 318 316 315 310 307 308 308 309 309 311 311 313 315 316 313 316 318 316 317 317 317 318 319
308 310 312 312 312 312 312 311 312 311 315 315 314 313 315 315 313 311 313 313 313 313 314 317 318 317 317 317 317 318 318 315 315 315 311 310 308 307 307 308 311 311 313 315 315 316 316 317 317 317 318 317 317 317
307 310 312 313 313 312 311 311 311 313 314 314 313 316 314 312 313 313 313 312 313 313 317 319 319 317 318 318 317 316 317 316 312 312 311 309 308 306 306 307 308 309 310 313 316 316 315 316 316 316 317 317 316 316
309 309 311 312 312 312 312 311 311 314 314 313 312 313 312 312 312 312 312 313 313 316 319 317 318 318 318 317 314 315 315 313 311 310 308 307 307 307 307 307 308 308 309 309 309 311 311 312 313 313 315 315 312 312
313 311 309 312 312 311 312 314 315 314 313 313 313 312 312 312 312 311 311 311 312 314 317 316 315 314 314 313 313 310 311 309 308 306 304 305 306 307 307 307 307 308 308 309 309 309 308 308 308 309 308 307 307 307
313 314 314 312 312 313 313 314 314 314 313 313 314 313 312 311 310 310 310 309 311 312 312 313 311 312 313 313 313 313 311 312 307 304 303 304 304 306 306 306 306 306 306 307 307 308 308 308 307 307 306 305 305 304
313 313 314 315 313 313 316 315 315 315 314 314 314 314 313 311 309 309 310 309 309 309 311 310 311 311 310 308 308 307 307 309 309 306 304 304 305 305 304 303 303 303 303 303 304 306 306 305 305 305 305 304 303 303
313 313 313 314 315 316 316 317 315 316 316 316 314 315 314 313 309 309 309 309 308 309 309 309 309 307 307 307 306 306 304 304 305 307 306 306 304 303 302 302 301 301 300 300 300 301 304 304 303 302 302 302 301 300
314 313 312 315 315 316 317 318 318 317 317 317 317 316 316 314 311 309 309 308 308 308 308 308 307 307 307 307 305 304 304 303 303 303 303 302 302 301 301 300 300 300 299 299 299 300 301 301 301 301 300 300 299 298
314 314 314 316 319 317 319 317 319 318 319 318 318 317 315 315 313 310 309 309 309 309 308 308 307 307 306 306 305 304 303 303 303 302 300 300 300 300 299 298 298 298 298 298 299 300 300 299 299 299 299 298 297 296
313 315 316 318 320 318 319 319 321 320 320 319 318 317 316 316 315 312 309 309 309 309 308 307 307 307 305 304 304 303 302 301 301 300 299 299 300 299 299 298 297 297 297 297 298 299 298 298 298 298 298 297 297 297
315 317 320 320 319 318 319 320 320 321 320 319 318 318 317 317 315 312 309 308 308 309 308 307 304 303 304 305 302 301 300 300 299 299 298 298 298 299 298 298 297 296 296 297 297 297 297 296 296 296 296 296 295 295
318 315 318 316 320 320 318 318 319 318 317 319 318 318 318 316 316 312 309 307 308 307 307 306 305 303 302 301 301 301 299 298 298 298 298 296 297 297 298 297 297 296 296 296 296 296 296 296 296 295 295 295 294 294
316 318 317 319 320 320 319 317 317 316 315 318 319 318 317 316 311 310 309 308 308 307 307 306 305 303 302 301 300 299 298 298 298 298 296 295 295 296 296 297 297 297 295 295 296 296 296 295 295 295 295 294 293 294
319 320 320 317 320 320 320 319 318 315 314 315 317 318 316 314 311 310 309 309 309 308 307 304 304 304 303 301 299 298 297 297 296 295 295 295 295 294 295 295 295 294 294 295 295 295 295 295 295 295 294 294 294 294
320 320 321 321 321 320 320 320 319 316 314 313 314 316 315 313 313 311 310 309 309 307 304 302 302 302 301 299 298 298 297 297 296 296 295 295 294 294 293 294 294 293 293 294 294 295 294 294 294 294 294 294 294 294
322 321 320 321 321 321 321 320 319 316 315 314 316 316 314 313 312 310 310 309 307 307 304 302 301 300 299 298 298 297 297 296 296 296 296 295 295 294 294 293 294 294 294 294 293 292 292 293 293 293 294 294 294 294
323 321 322 321 321 321 320 319 319 318 315 315 315 314 313 313 313 310 308 310 312 310 307 304 301 301 301 300 299 298 297 296 295 295 295 295 294 294 294 294 294 294 294 294 294 294 293 293 294 294 294 294 294 294
322 322 323 322 320 320 320 319 317 316 315 315 315 314 315 315 312 311 310 309 312 307 304 302 302 301 301 300 298 297 297 296 295 295 294 294 294 294 294 294 294 294 294 294 294 294 293 293 293 293 293 293 293 293
322 323 322 321 318 320 317 318 318 317 317 317 317 315 315 315 316 313 310 311 307 304 302 303 303 301 299 298 297 296 295 296 295 295 295 294 294 294 294 293 293 293 293 293 293 293 293 293 293 293 294 293 293 293
319 319 319 318 319 320 319 318 319 319 318 318 318 317 316 316 316 311 309 307 303 304 303 302 300 299 298 297 296 296 295 296 295 294 293 293 293 293 293 293 293 293 293 293 293 293 293 293 293 293 293 293 293 293

GFSWCAN_850_thetae_030.txt.gz
Theta_e
302 300 301 307 308 308 308 308 309 309 309 308 309 308 307 307 307 307 308 308 307 304 304 306 307 308 308 308 310 308 309 310 311 313 314 315 315 315 315 315 317 316 317 318 320 324 327 323 326 332 333 327 328 331
303 303 308 308 308 309 310 310 310 309 309 310 309 308 308 307 308 309 308 309 308 307 307 307 308 307 308 308 309 308 308 308 308 310 312 312 312 312 314 315 316 317 318 318 319 321 326 320 321 321 322 323 323 325
306 308 308 308 309 310 311 311 310 310 309 307 307 308 309 309 309 309 309 309 308 306 306 306 308 310 310 309 308 307 308 308 308 308 308 309 312 312 314 314 314 314 315 316 317 319 319 318 318 318 319 319 319 320
309 309 309 310 311 311 311 310 308 307 308 310 311 312 312 310 310 310 310 309 309 306 305 308 310 310 309 309 308 308 307 307 308 307 308 311 311 310 312 312 312 313 314 316 316 316 316 315 316 316 316 317 317 318
309 310 310 311 312 311 310 306 306 309 311 312 313 312 310 310 309 310 311 309 308 307 308 308 309 310 309 309 309 309 308 307 307 307 308 309 309 310 311 311 312 312 312 313 315 315 317 318 316 316 316 316 317 317
310 311 311 312 311 308 305 309 311 312 313 313 312 310 311 310 311 311 311 309 307 307 306 308 308 310 308 308 309 309 308 308 308 307 308 307 307 307 311 313 312 311 312 312 313 313 314 315 314 315 316 317 317 317
311 311 312 311 307 307 311 312 312 313 313 313 310 311 311 311 311 311 311 309 308 306 305 306 306 309 308 308 308 307 307 307 305 303 303 305 306 306 307 309 308 308 308 309 309 311 313 314 315 315 316 317 319 318
312 312 312 307 310 312 312 313 313 313 313 312 310 311 312 312 312 312 309 308 307 305 304 306 308 308 307 308 309 306 304 303 302 301 301 303 304 303 307 306 306 306 306 306 307 308 310 313 314 316 316 317 317 317
312 312 308 310 312 312 312 312 312 313 313 313 312 314 314 314 313 311 310 309 307 306 306 305 308 314 308 308 308 306 304 307 303 303 302 302 304 307 303 303 312 313 310 310 308 307 309 311 314 315 316 316 316 316
313 310 308 312 313 312 312 312 311 314 314 316 316 316 317 315 313 312 311 310 308 307 306 309 307 314 308 309 310 310 306 310 311 311 302 304 304 309 311 312 312 313 311 310 310 311 311 314 314 315 315 315 315 315
312 308 311 312 313 312 312 311 312 317 318 319 320 319 317 315 314 315 320 319 319 321 317 317 312 317 311 313 313 311 313 311 317 316 314 310 309 311 311 311 311 313 312 312 312 313 313 313 314 315 315 316 316 317
311 307 311 312 313 312 312 313 314 319 315 313 315 318 319 318 318 319 319 318 319 321 318 319 318 318 318 311 312 315 320 318 316 312 313 311 311 311 310 311 311 309 311 311 311 314 315 315 316 316 317 318 318 320
312 307 311 312 312 312 312 314 315 316 316 320 317 318 318 318 319 319 317 320 320 319 319 319 323 321 321 318 321 322 316 315 314 315 311 311 311 312 311 310 311 311 308 308 311 311 311 312 312 313 313 313 314 314
313 308 310 312 312 312 312 315 316 316 318 318 317 315 318 318 317 317 318 318 317 318 319 319 321 320 318 319 318 319 316 314 314 314 314 313 312 311 311 309 310 311 310 309 310 310 311 311 311 311 311 312 313 311
313 311 310 311 312 312 314 316 317 317 318 317 317 318 317 315 315 314 314 315 315 317 319 320 320 318 318 317 316 316 316 315 314 314 313 311 311 310 310 308 309 309 310 310 310 309 309 308 308 309 310 311 310 309
313 317 315 315 313 314 317 319 318 317 317 316 316 317 315 314 314 314 314 314 315 316 318 317 317 318 316 316 315 315 315 315 313 312 310 310 311 309 309 308 307 307 307 310 310 310 308 308 307 306 305 307 307 307
315 320 314 314 314 315 318 319 318 317 317 317 317 316 314 313 314 313 313 313 314 315 317 317 316 316 315 314 314 314 313 314 312 312 310 311 308 308 307 307 306 306 306 306 309 308 309 309 307 306 306 305 305 305
316 314 313 314 314 319 321 319 318 318 318 317 318 317 316 314 313 313 313 313 314 314 315 315 312 313 313 313 312 311 310 309 311 310 310 311 309 308 307 305 305 305 305 305 305 308 306 306 307 307 306 306 305 304
311 312 313 312 315 319 320 319 321 319 318 317 317 317 317 315 313 313 313 313 312 312 313 312 312 312 311 310 310 309 308 307 306 307 310 310 310 305 306 304 304 304 304 304 304 306 306 305 304 304 305 304 303 302
311 312 313 313 317 324 320 320 321 320 319 318 318 318 316 317 315 313 313 313 312 312 312 313 313 311 310 310 309 307 307 306 306 307 307 305 304 305 305 304 303 303 303 304 304 304 304 304 304 303 302 302 302 301
317 320 313 317 326 322 320 318 321 319 319 319 318 317 317 317 316 314 314 313 313 312 312 311 310 310 311 310 309 308 307 306 306 306 305 304 303 304 304 304 303 302 303 303 304 304 303 303 303 303 302 302 301 300
322 314 319 324 323 321 321 319 319 320 320 320 318 318 318 317 317 315 314 313 314 313 312 311 310 310 309 309 308 308 307 306 305 305 304 304 303 303 304 303 302 302 302 302 302 303 302 301 300 301 301 301 301 299
316 319 324 323 322 321 319 321 321 319 319 319 318 318 317 317 317 316 315 313 313 312 312 311 310 309 309 309 308 309 307 305 304 303 303 304 302 302 303 303 302 302 301 301 301 301 301 300 300 300 300 300 300 300
319 325 324 322 320 319 320 321 319 319 319 319 319 319 319 319 317 317 316 314 313 312 312 311 310 309 308 310 306 306 306 304 303 303 303 303 301 301 301 302 302 301 300 301 301 301 300 300 300 299 299 298 299 299
323 318 322 317 321 320 320 319 318 318 319 319 318 319 319 317 319 318 315 314 313 313 312 312 310 309 308 307 306 305 304 302 302 302 302 301 300 300 301 301 302 301 300 299 300 300 300 300 299 299 299 298 298 299
314 320 318 320 320 320 320 319 320 320 319 318 317 318 319 319 319 317 315 314 314 314 312 311 311 309 309 308 307 305 303 302 301 301 300 300 299 299 299 300 300 300 298 299 299 299 299 299 299 299 299 298 298 298
316 321 321 319 319 319 320 320 320 321 320 320 318 318 319 318 318 318 316 315 315 313 313 312 310 309 309 307 306 303 302 301 301 300 300 299 299 299 298 298 298 297 296 298 298 298 298 298 298 298 298 298 298 298
322 321 322 321 322 321 322 321 321 322 321 319 318 319 319 320 319 316 316 315 314 313 313 310 309 308 307 306 304 303 302 301 301 301 300 300 300 299 298 298 298 297 297 296 296 296 296 297 297 297 297 298 298 297
322 321 322 323 322 322 322 322 322 320 319 319 319 318 316 317 315 316 315 314 313 314 313 311 310 307 306 306 305 304 303 301 300 300 300 300 300 299 298 298 298 298 298 297 296 295 294 295 295 296 297 297 297 297
324 321 323 321 321 322 321 321 320 318 318 317 317 317 318 318 316 314 313 313 314 313 311 309 308 307 306 305 303 302 301 301 300 300 299 299 299 298 298 297 297 297 297 297 297 297 296 296 297 297 296 296 296 296
322 322 321 321 321 320 321 320 318 318 319 319 318 317 319 318 316 315 315 314 313 312 311 309 307 307 305 303 301 301 300 300 300 299 298 298 298 298 297 297 297 297 297 296 297 297 296 296 296 296 296 296 296 296
322 322 322 322 320 319 319 321 319 317 318 318 318 317 318 318 319 317 313 311 310 309 308 307 305 304 302 301 300 300 299 300 299 299 298 297 296 296 296 296 297 297 297 296 297 297 296 296 296 296 296 296 296 296
321 320 320 320 320 320 319 319 319 319 320 319 318 319 317 318 317 314 310 308 307 306 305 304 303 302 301 300 300 300 300 299 298 297 296 296 294 293 294 295 295 295 296 296 296 296 296 296 296 296 296 296 296 295

GFSWCAN_850_thetae_033.txt.gz
Theta_e
307 304 305 308 308 309 309 310 310 310 310 309 309 308 308 308 308 307 308 308 308 306 306 306 306 307 307 307 310 309 309 309 310 311 312 312 314 313 313 315 313 316 318 318 320 325 329 320 322 329 328 322 323 323
305 307 309 309 309 310 311 311 311 309 308 307 308 309 310 309 308 308 309 309 309 308 307 308 308 308 308 307 308 309 308 308 308 310 310 310 310 313 312 317 313 317 315 317 318 322 318 319 319 319 319 320 319 320
308 309 309 310 310 311 311 310 308 306 307 310 311 312 312 309 309 309 309 309 309 307 307 307 309 309 309 309 309 308 308 308 308 308 308 309 312 310 312 313 312 312 312 313 316 316 316 316 318 317 317 316 317 317
309 309 310 310 311 311 309 306 307 311 312 312 313 312 310 310 309 309 310 310 309 308 306 307 309 310 310 309 309 309 308 308 308 307 308 310 311 310 310 310 311 310 311 313 312 316 315 315 316 316 316 318 317 317
309 310 311 312 311 307 306 311 312 312 313 313 312 311 311 310 311 311 310 310 308 308 308 307 309 309 309 309 309 309 310 308 308 308 308 308 308 308 308 309 311 311 310 311 311 310 313 313 313 314 316 316 317 319
310 311 312 312 307 310 311 312 312 312 313 312 311 312 311 312 312 312 312 310 309 307 306 308 307 309 309 309 308 308 308 307 307 307 308 307 308 307 309 309 309 309 307 307 308 309 309 310 310 313 316 316 316 318
311 312 312 308 310 312 312 312 312 312 312 311 312 312 311 311 311 312 311 310 308 306 305 307 310 309 309 308 307 307 306 306 305 303 302 303 304 305 306 308 307 307 307 307 311 308 308 309 310 313 314 316 317 318
312 312 309 309 312 312 312 312 312 313 313 311 312 314 314 313 313 313 310 310 308 306 306 311 312 311 309 309 309 306 305 304 303 303 302 302 303 301 305 306 307 310 313 313 312 310 309 308 309 311 314 315 316 317
312 312 308 312 312 312 312 312 311 314 315 315 314 315 316 315 315 313 312 311 309 308 309 310 313 316 310 309 308 307 306 308 304 304 302 302 303 306 307 308 309 310 312 312 310 312 309 308 308 310 312 314 316 316
312 310 309 312 313 312 312 313 312 317 317 317 317 317 318 317 315 314 314 312 311 310 309 311 311 315 312 310 311 309 307 311 311 311 303 304 304 309 309 309 308 309 311 312 313 309 308 309 309 311 313 315 316 316
313 310 308 312 312 312 312 315 315 317 318 318 320 320 318 318 316 317 320 319 319 320 315 314 314 319 314 314 314 311 313 312 313 314 313 310 308 311 310 311 308 307 308 309 311 312 313 314 314 315 315 315 315 316
313 312 308 312 312 312 312 314 315 317 317 313 315 319 320 319 319 320 321 319 321 322 319 320 319 317 316 313 313 314 317 314 317 312 310 310 311 311 309 310 309 308 307 307 308 309 309 310 315 314 314 315 316 317
313 312 308 311 312 312 312 314 316 316 316 318 319 318 319 318 318 320 312 317 322 319 318 320 322 320 319 316 317 320 317 315 313 314 311 311 311 310 308 309 309 309 308 307 306 307 307 308 310 310 311 311 312 312
313 313 310 311 312 312 314 316 316 317 318 322 319 314 319 321 320 318 317 317 316 316 317 320 321 321 320 320 318 319 316 314 313 311 312 312 310 309 309 307 307 307 310 308 307 306 306 306 306 307 307 308 308 308
312 315 315 314 314 314 316 317 317 318 319 318 318 315 319 315 315 315 314 315 315 315 317 319 319 318 318 318 317 314 314 314 314 314 312 310 308 307 307 308 306 306 307 310 308 307 306 306 305 304 304 305 305 306
312 313 316 314 314 315 317 319 319 319 318 317 317 317 315 315 315 314 314 314 314 316 316 316 317 317 315 316 315 313 312 312 313 312 311 311 309 308 306 305 306 306 305 307 309 308 307 306 306 306 305 304 304 304
313 319 314 312 313 316 319 319 320 318 318 319 318 316 315 314 315 314 314 314 314 316 316 317 315 315 316 314 313 314 314 314 312 311 311 310 308 309 305 304 304 305 304 304 307 308 308 307 306 305 304 304 304 304
314 312 312 312 314 320 323 320 319 319 319 318 319 318 316 315 314 314 314 313 313 314 313 314 312 312 313 311 313 312 310 308 306 307 310 310 309 308 305 304 303 304 304 304 306 305 304 305 306 306 304 303 303 304
313 311 312 313 316 320 322 319 321 322 319 318 318 318 317 316 314 314 314 313 313 313 313 313 314 313 313 311 311 309 309 307 306 307 308 306 305 304 305 304 303 303 305 304 304 306 304 303 303 303 302 301 301 301
314 314 314 313 318 322 325 320 320 322 319 319 318 319 318 318 316 315 314 313 313 313 313 313 313 312 311 310 309 308 308 306 306 307 307 305 304 304 305 303 303 303 303 304 304 303 303 303 302 302 301 301 300 300
318 322 315 318 325 322 321 319 320 321 319 320 320 320 318 317 317 315 314 314 314 313 313 312 310 310 311 311 310 309 308 305 306 305 306 305 304 303 304 304 303 302 303 303 303 302 301 301 301 301 301 300 300 300
320 315 318 325 324 323 322 320 319 320 322 321 320 320 320 319 318 317 315 314 315 313 313 312 310 310 311 310 309 309 309 306 305 304 304 304 304 302 303 303 303 302 302 302 302 301 300 300 300 301 300 300 300 300
317 318 326 326 322 321 318 321 322 321 321 320 320 319 318 319 317 317 317 314 314 313 313 312 310 311 310 309 309 309 309 307 304 303 303 303 302 301 302 302 303 302 301 301 301 301 300 300 300 300 300 300 300 300
325 324 326 324 322 319 320 322 323 321 319 320 322 320 320 320 319 318 320 314 313 313 312 311 310 310 310 309 309 307 304 303 303 302 302 301 301 301 301 302 302 301 300 300 300 301 300 300 300 299 298 298 300 300
324 319 322 320 320 322 321 323 321 317 318 318 319 323 321 319 316 319 320 315 315 314 314 313 312 311 310 310 307 305 303 302 302 302 301 300 300 300 300 301 301 299 299 299 300 300 300 300 299 299 298 298 299 300
311 319 319 321 320 322 320 323 324 320 319 319 320 319 321 317 317 319 318 317 316 315 314 313 312 311 310 309 307 304 303 303 302 301 301 300 300 299 299 299 299 298 297 298 299 299 299 299 299 299 299 299 298 298
314 322 322 321 321 321 320 319 320 322 323 321 320 320 321 320 318 312 314 316 316 314 313 312 310 310 310 308 306 304 302 302 302 301 301 300 299 299 299 299 298 297 297 297 297 297 298 298 298 298 298 298 298 297
325 323 324 323 323 323 322 322 321 322 322 322 321 319 319 321 318 313 315 315 314 314 313 312 310 309 309 307 306 305 304 302 301 301 301 301 300 299 298 298 298 298 297 297 296 296 296 297 297 297 297 298 298 297
324 320 321 321 322 323 323 323 323 323 322 321 320 319 320 316 316 315 314 314 315 314 312 312 310 309 307 306 306 303 302 302 301 300 300 300 300 299 298 298 298 298 298 298 296 296 295 296 295 296 297 297 297 297
324 322 323 323 325 325 322 322 321 321 321 320 320 318 317 316 315 315 314 314 314 313 312 311 309 308 306 303 302 302 301 301 301 300 299 299 299 298 298 298 297 297 297 297 297 297 297 297 297 297 297 297 296 296
323 325 325 324 323 323 320 321 321 320 319 319 316 316 317 316 315 316 314 312 311 311 310 307 305 304 303 302 301 300 300 300 300 299 298 298 297 297 297 297 298 297 297 297 297 297 297 297 297 297 297 297 296 296
322 322 323 324 320 319 321 320 320 319 320 320 317 317 319 319 318 315 310 309 308 307 306 305 303 302 301 301 301 300 300 300 299 298 298 297 296 295 295 296 296 297 297 297 297 297 297 297 297 297 296 296 296 296
322 322 321 321 321 322 320 319 320 320 321 322 320 318 316 318 315 313 310 308 306 305 304 303 302 302 301 301 300 300 300 299 298 297 296 294 294 293 294 295 295 295 296 296 296 296 296 296 296 296 296 296 296 295

GFSWCAN_850_thetae_036.txt.gz
Theta_e
307 306 309 309 309 309 310 310 310 309 306 307 309 310 311 309 308 308 308 308 308 307 307 307 307 306 307 307 308 308 309 307 306 309 310 310 312 312 313 313 315 317 318 317 321 324 327 319 319 319 318 317 317 321
308 309 309 310 310 310 311 309 306 307 310 311 312 312 310 309 308 308 309 309 309 308 308 308 309 309 309 308 307 308 307 306 308 305 307 308 310 311 311 315 312 315 314 316 316 319 316 317 317 316 316 317 317 317
309 309 310 310 311 311 306 307 311 312 312 312 312 312 309 309 308 309 309 309 309 307 307 308 308 309 309 309 309 308 307 308 307 307 306 308 310 309 311 312 310 310 310 313 313 314 312 316 316 316 313 315 318 319
309 310 310 311 311 307 310 312 312 312 312 312 312 311 310 310 309 310 310 310 308 308 307 308 309 309 309 309 309 309 309 308 308 307 305 305 305 306 307 308 308 308 309 309 309 309 311 313 311 312 312 314 317 318
310 311 312 311 308 311 312 312 312 311 312 312 312 311 312 312 311 311 311 309 307 308 307 308 309 308 308 309 308 309 309 308 307 307 307 307 306 307 304 304 307 309 309 309 309 307 306 308 309 309 310 312 316 317
311 312 312 308 311 312 311 311 311 312 312 311 312 311 312 312 312 312 312 310 309 307 306 307 308 309 309 308 307 307 307 307 307 307 306 305 306 306 306 304 306 307 307 307 308 308 308 310 311 310 309 311 315 317
312 312 310 308 312 312 312 312 311 313 313 313 313 313 313 313 312 311 310 310 308 307 306 308 310 311 310 309 308 307 305 304 304 303 302 303 303 304 306 308 306 308 309 311 312 312 310 310 309 311 310 312 314 316
312 312 308 310 312 312 312 312 312 315 315 312 314 315 315 315 314 314 312 311 308 308 307 309 310 312 311 310 309 308 307 306 304 303 303 303 303 301 305 307 307 308 309 310 313 313 311 309 310 310 309 311 313 315
312 312 308 311 312 312 312 314 313 315 316 315 315 315 316 316 315 314 313 312 310 309 309 310 311 314 311 309 309 308 307 308 305 305 303 303 303 307 309 308 308 308 308 310 311 311 309 310 311 309 309 310 310 314
312 312 308 311 312 312 311 314 315 316 317 318 317 318 319 317 316 315 314 313 312 311 310 311 313 312 312 310 311 309 308 310 310 309 304 304 304 309 310 309 308 307 307 307 309 309 310 311 308 308 309 310 312 316
312 312 309 310 312 312 312 312 315 316 316 314 315 320 318 318 316 317 316 315 316 312 314 315 315 313 314 313 313 311 310 310 311 306 307 307 308 309 308 309 309 307 307 307 307 307 308 312 314 313 314 315 315 315
312 312 311 309 311 311 312 312 315 316 316 317 316 317 320 319 319 316 312 314 315 316 318 318 318 316 314 314 313 312 313 310 310 308 308 310 309 309 308 308 308 308 307 306 306 307 307 307 309 310 310 311 313 313
313 313 311 311 313 313 313 314 315 316 316 317 319 319 319 317 311 315 311 310 314 316 316 316 317 319 315 314 314 314 315 311 310 307 309 309 309 308 308 306 307 309 307 306 306 306 307 306 306 306 306 307 307 308
313 313 314 314 314 313 315 316 316 317 317 319 322 309 313 314 313 312 311 311 314 314 314 315 319 319 319 315 312 314 311 309 310 310 311 309 308 306 305 306 306 307 309 307 306 305 305 305 305 305 304 305 305 305
313 312 314 314 313 314 316 317 318 318 318 320 317 312 313 314 314 314 313 313 314 315 316 317 316 314 311 312 310 309 310 307 306 308 308 310 309 307 305 304 305 305 307 308 306 305 305 305 304 304 303 302 302 303
313 311 313 311 312 314 317 319 319 318 319 318 317 314 314 313 313 314 313 313 314 313 314 314 312 311 312 310 311 311 309 309 312 310 310 309 308 308 305 303 303 305 305 308 308 306 305 305 304 304 303 303 302 301
313 313 311 311 312 316 319 320 320 319 318 318 318 315 314 314 314 314 313 313 313 312 310 311 310 313 310 310 311 309 308 306 307 309 311 309 308 308 304 303 303 304 304 306 306 307 306 305 304 303 303 303 302 302
314 312 311 311 313 318 321 321 320 318 319 318 318 316 316 314 314 314 313 313 312 313 312 311 311 309 309 310 308 307 307 307 306 307 309 309 309 305 304 303 303 304 304 305 304 304 305 306 306 303 302 302 302 301
313 311 311 313 314 319 321 321 319 322 320 318 318 318 317 315 315 314 314 313 312 312 312 312 309 309 308 309 308 308 307 306 305 307 305 304 304 304 305 303 303 304 304 304 305 303 302 302 302 301 301 300 301 300
315 315 317 314 315 321 324 322 320 321 320 319 318 319 320 319 317 315 314 313 312 312 311 309 309 311 310 309 309 308 307 305 307 306 305 305 304 303 304 303 302 303 303 304 303 302 302 302 302 301 300 300 300 300
315 320 314 320 323 324 322 320 319 321 320 319 319 320 320 318 316 315 314 313 313 312 311 311 310 310 311 311 309 307 307 305 304 304 305 304 303 303 303 303 302 302 302 303 302 301 300 300 300 300 300 300 300 299
314 315 318 325 324 325 322 321 319 318 320 321 321 320 320 319 318 316 316 315 314 313 313 312 310 309 310 310 310 309 308 305 306 305 303 302 302 302 302 302 302 302 301 301 301 300 300 300 300 300 299 299 299 299
319 319 324 325 324 321 319 318 321 321 322 320 320 318 319 318 317 317 317 315 313 313 313 312 311 311 310 309 309 310 308 307 302 302 302 301 301 301 302 301 301 301 301 301 301 300 300 300 300 299 299 300 299 300
322 321 326 325 323 319 319 321 323 322 319 319 319 320 318 320 317 317 318 314 314 313 312 311 310 311 310 310 310 308 303 303 302 301 301 300 300 301 301 301 300 299 299 300 300 300 300 299 299 298 299 300 300 300
320 319 317 320 320 322 322 322 316 316 317 317 318 317 319 318 314 314 310 315 314 313 313 313 312 311 309 305 305 305 303 303 302 301 300 300 300 299 300 299 300 299 299 299 299 299 299 299 298 298 299 299 299 299
311 320 319 321 322 322 321 321 321 320 319 319 318 320 317 316 316 314 311 314 315 314 313 312 312 311 310 308 306 304 303 302 302 301 301 300 299 299 299 298 298 297 297 298 298 299 299 299 299 299 298 298 298 298
314 319 320 320 322 322 321 320 320 320 322 321 319 321 319 320 318 313 313 315 316 314 312 312 310 309 310 307 306 305 303 302 301 301 300 299 299 299 299 298 298 297 297 297 297 297 298 298 298 298 298 297 297 297
325 324 323 323 322 323 322 322 321 320 319 322 318 318 320 319 316 314 315 315 314 313 313 312 310 308 308 308 307 305 303 301 301 301 300 300 299 298 298 298 298 297 297 297 296 295 296 297 297 297 297 297 297 297
323 323 321 321 321 324 321 323 322 321 321 320 316 317 317 316 315 314 314 315 314 313 312 311 310 308 306 303 302 302 302 301 300 300 300 299 299 298 298 297 297 297 297 297 296 295 296 295 297 297 297 297 297 297
323 323 322 323 323 323 323 322 322 320 320 317 315 316 317 316 314 314 314 312 312 311 309 306 304 305 302 301 301 301 301 300 300 299 299 298 297 297 297 297 297 297 297 297 297 297 297 297 297 297 296 296 296 296
323 323 323 324 324 323 322 322 321 318 316 316 317 317 317 315 315 312 310 308 309 307 306 305 303 302 302 301 300 300 300 299 298 298 298 298 297 297 296 297 297 297 297 297 297 297 297 297 297 297 297 296 296 295
323 323 324 322 322 320 319 320 319 317 317 318 318 318 316 316 316 312 309 307 305 305 304 303 302 301 301 300 300 300 299 299 298 297 295 294 294 295 296 296 296 297 297 297 297 296 296 296 296 296 296 296 296 295
322 323 322 323 321 321 321 321 321 318 318 319 319 318 317 316 312 311 307 305 304 303 303 302 301 301 300 300 300 300 299 298 297 296 295 294 294 293 294 295 295 296 296 296 296 296 296 296 296 296 296 295 295 294

GFSWCAN_850_thetae_039.txt.gz
Theta_e
308 309 309 309 309 310 310 306 307 311 311 311 311 311 309 308 308 308 308 309 308 307 308 308 307 307 307 306 307 307 304 307 305 308 309 309 310 311 313 311 313 314 316 319 323 325 327 317 318 318 315 316 316 318
309 309 309 310 311 310 307 310 312 311 311 312 312 311 309 308 308 308 309 309 309 308 308 308 309 308 308 309 307 307 307 306 307 307 307 307 311 311 310 312 311 314 311 315 316 318 315 317 317 313 312 312 313 318
310 309 310 311 311 308 311 311 311 311 312 312 311 311 310 309 309 309 310 308 309 308 308 308 309 309 309 309 309 308 306 308 308 307 306 307 309 306 310 310 310 310 310 310 311 310 310 314 315 314 312 312 312 315
309 310 311 311 308 311 312 311 311 312 312 311 312 312 311 311 310 310 309 309 308 307 307 309 308 308 309 308 308 309 309 309 307 307 304 305 308 306 308 307 309 309 309 309 310 308 311 312 310 310 315 313 314 315
310 311 312 309 309 312 312 312 311 313 312 312 312 313 313 312 311 311 309 308 307 308 308 309 309 308 308 307 307 308 308 308 307 306 306 307 307 306 304 305 309 307 308 309 310 308 308 308 309 310 312 312 313 313
311 312 311 308 311 312 312 312 312 314 312 313 312 312 312 312 312 312 312 310 309 308 307 305 310 310 309 307 306 307 307 306 306 305 305 305 304 305 307 309 307 308 309 309 309 310 310 311 311 310 311 311 312 314
311 312 311 308 311 312 312 313 313 315 312 314 315 314 313 313 313 311 311 311 309 308 308 308 309 311 311 310 308 307 306 305 304 303 303 303 303 304 305 308 308 308 308 309 310 312 312 311 311 311 310 310 310 312
312 312 311 308 312 312 311 314 313 315 316 315 314 315 315 315 314 314 313 313 309 309 311 312 312 312 311 310 309 308 307 306 304 304 304 303 304 301 306 309 308 307 307 307 308 309 310 311 310 310 310 310 310 312
312 312 312 308 311 312 311 312 315 316 317 317 317 316 316 316 315 315 313 312 312 311 311 311 314 313 313 310 309 308 308 307 307 306 305 305 304 308 308 309 308 307 307 307 307 307 308 310 311 309 311 310 309 310
312 312 312 309 311 312 312 312 314 315 316 316 318 318 319 317 315 314 314 313 312 311 310 308 313 313 313 311 311 310 308 308 309 307 306 305 306 308 309 309 308 307 306 306 307 306 306 310 313 308 308 308 309 310
312 312 312 310 309 311 311 312 313 315 316 315 315 319 317 317 315 315 314 312 312 310 312 313 313 312 313 313 313 311 310 309 307 307 308 308 302 306 307 308 309 307 306 306 306 306 306 307 308 309 310 312 314 314
312 312 312 310 312 314 313 313 314 315 315 316 316 316 317 318 317 313 308 311 312 314 315 316 316 315 314 313 312 311 312 309 309 306 303 306 304 307 306 306 307 307 306 306 305 306 306 306 305 305 306 306 308 310
312 312 313 314 315 313 313 315 315 316 316 316 318 319 318 315 308 313 307 308 310 313 314 315 317 317 314 313 313 313 312 309 307 307 307 306 309 305 305 305 306 307 307 306 305 304 304 305 306 304 304 304 304 305
312 313 312 314 316 312 313 316 316 317 317 318 321 308 311 310 311 309 309 308 312 313 313 313 316 318 315 313 310 312 310 307 308 308 308 305 309 308 306 304 304 306 308 306 305 304 304 303 303 303 304 303 303 303
313 313 311 314 312 312 313 316 318 318 318 319 318 309 311 312 313 313 312 312 313 313 312 315 313 312 308 309 306 306 308 306 308 305 309 309 309 308 307 304 303 304 305 308 306 305 304 304 303 303 302 302 301 303
313 313 312 311 311 313 315 318 318 319 318 319 318 313 313 311 312 313 313 312 312 312 313 312 309 309 309 308 309 310 305 303 305 307 310 310 308 308 306 303 303 305 304 307 307 306 305 303 303 303 303 302 302 300
313 313 312 310 311 315 317 318 320 320 318 317 317 315 315 313 313 313 313 313 312 312 308 308 309 311 307 308 309 306 305 304 307 306 310 310 308 308 305 303 303 304 304 305 305 306 306 304 303 303 302 302 301 301
313 313 311 310 312 316 319 320 320 319 318 318 317 316 315 315 314 314 313 313 312 312 311 309 309 307 308 309 307 305 307 307 306 307 306 308 307 304 305 303 303 304 304 304 303 303 303 305 304 302 301 301 300 300
313 314 314 313 312 316 320 322 321 320 322 318 318 318 317 315 314 314 313 313 312 311 312 310 308 308 306 307 307 308 307 306 305 306 305 305 303 304 305 303 303 304 304 304 303 302 302 302 301 300 300 300 300 300
315 315 316 315 314 319 322 324 321 320 320 319 319 318 319 319 318 317 314 312 312 311 310 308 308 310 310 310 309 308 306 305 305 304 304 304 304 303 304 303 302 303 303 302 301 300 301 301 300 300 299 299 299 299
315 317 314 319 323 323 322 320 319 319 320 318 319 320 320 319 316 314 314 312 312 311 309 310 310 310 310 310 309 307 306 305 304 306 305 304 302 302 302 303 302 302 302 302 300 300 300 300 300 299 299 299 299 299
315 316 318 324 324 325 325 321 321 319 319 319 320 320 318 317 316 317 314 314 313 312 312 312 311 309 310 310 310 309 307 306 306 303 302 301 301 301 302 302 301 301 301 301 300 300 300 300 300 299 299 299 299 300
319 318 322 325 326 322 320 318 319 321 320 319 319 317 317 317 317 316 316 314 314 313 312 311 310 310 310 310 310 310 308 308 303 302 301 300 301 300 300 300 301 301 301 301 300 300 300 299 299 299 299 299 300 300
317 319 325 325 323 320 319 320 323 321 320 317 316 318 317 318 317 315 314 314 314 312 311 312 312 311 309 309 309 309 308 303 302 301 300 300 300 300 300 300 299 299 300 300 300 299 299 299 298 298 300 300 300 299
319 319 317 317 318 320 321 320 316 316 317 316 317 316 316 316 314 313 311 312 314 313 313 313 312 310 308 307 306 305 303 303 302 301 300 300 300 300 299 299 299 299 298 299 299 299 299 298 298 299 299 299 299 298
312 321 317 319 321 319 319 319 318 318 317 319 318 318 317 316 317 314 311 314 314 315 314 313 312 311 309 307 305 304 304 302 301 301 300 300 300 299 298 298 298 297 297 298 298 299 298 299 298 298 298 298 298 297
314 319 318 319 320 321 320 320 319 318 320 320 317 318 318 318 317 315 313 314 315 314 313 311 311 307 308 309 305 306 305 302 301 301 300 299 299 298 299 298 298 297 297 297 297 298 298 298 298 298 297 297 296 297
321 324 320 322 323 322 320 320 319 318 318 320 317 316 319 318 316 314 315 315 315 314 313 312 310 310 309 307 306 305 304 302 301 300 299 299 299 299 298 298 297 297 297 297 296 296 297 298 298 297 297 297 296 297
323 325 324 320 320 321 322 320 322 321 320 319 315 314 317 316 315 314 313 314 314 314 313 312 309 306 305 304 303 302 302 301 301 300 300 299 298 298 297 297 297 297 296 296 296 296 295 296 297 297 297 297 297 297
320 321 323 321 321 320 323 321 322 321 321 318 316 316 316 315 313 310 310 310 310 310 309 307 304 303 302 301 301 300 300 300 299 300 299 298 298 297 297 297 297 297 297 297 296 297 297 296 296 296 296 296 296 296
321 323 323 322 322 322 322 322 321 319 317 316 317 316 316 314 308 308 307 307 307 305 305 304 303 301 301 301 300 300 299 298 297 298 298 297 297 297 297 297 297 297 297 297 296 296 296 297 296 296 296 296 295 295
324 323 323 321 321 319 318 317 317 317 317 317 317 316 315 316 314 308 305 305 305 305 304 303 302 301 300 300 299 299 298 297 296 295 293 294 295 296 296 296 297 297 297 296 296 296 296 296 296 296 296 296 295 295
324 323 322 322 319 319 318 319 318 317 317 317 318 317 316 315 312 308 304 304 303 303 303 301 301 300 300 299 299 298 297 296 294 294 293 293 293 294 295 295 295 295 295 295 296 296 296 296 296 295 295 295 294 294

GFSWCAN_850_thetae_042.txt.gz
Theta_e
310 310 310 310 311 309 309 311 311 311 311 311 311 310 308 308 308 308 308 309 308 308 308 308 308 307 307 306 306 307 305 306 306 308 309 308 310 310 312 309 312 313 314 319 319 327 329 317 315 318 314 313 313 314
310 310 310 311 310 309 311 311 311 311 312 311 311 311 309 308 308 308 309 308 308 308 307 308 308 308 308 308 308 305 306 307 306 307 307 307 310 309 310 313 310 313 311 312 313 317 311 315 312 312 312 312 312 312
310 310 311 311 308 311 311 311 311 312 312 312 313 311 310 309 310 309 308 307 308 306 307 308 308 308 308 308 308 308 307 308 308 305 305 307 309 307 310 311 311 309 308 311 312 310 311 313 311 310 311 312 313 314
310 311 311 310 308 311 312 312 312 313 312 312 313 312 311 310 310 309 309 308 307 307 306 310 309 308 307 307 308 308 308 308 307 306 305 307 309 305 309 308 310 309 308 308 310 309 310 313 310 310 311 312 315 315
311 311 311 309 309 311 311 312 313 313 314 312 312 313 312 311 311 310 310 310 308 308 307 310 309 308 307 307 308 308 307 307 307 306 304 307 306 305 305 307 308 308 309 310 311 309 309 309 311 312 311 311 313 315
311 311 311 309 310 311 311 313 313 314 314 315 314 313 313 312 312 312 313 311 310 309 308 305 310 311 309 308 307 307 307 306 305 304 304 304 303 305 308 309 308 308 308 308 309 309 311 312 312 311 311 312 312 313
311 311 312 310 310 311 311 313 314 315 315 314 315 315 315 314 313 312 312 312 310 309 309 311 309 311 310 310 309 308 307 306 304 303 303 303 304 303 305 308 308 308 307 307 308 308 309 310 310 311 310 310 311 311
311 311 312 311 309 311 311 311 314 315 316 316 315 314 314 316 315 314 314 312 311 309 310 311 314 312 311 310 308 308 307 306 305 304 305 304 305 303 307 308 307 307 307 307 307 307 308 311 311 311 309 310 310 310
310 311 312 312 309 311 311 311 312 315 316 316 317 316 316 317 316 315 313 311 311 310 310 309 309 316 312 310 309 307 307 306 306 306 305 305 305 307 307 308 308 307 307 306 306 307 309 309 310 309 309 310 310 309
310 312 312 312 309 309 310 312 312 314 316 315 316 317 318 317 316 314 313 311 312 310 310 307 311 311 313 312 311 309 308 307 308 306 306 302 303 306 307 308 307 306 305 305 306 305 306 307 306 308 309 311 310 309
311 312 312 311 310 313 313 313 313 314 315 316 315 316 316 315 315 313 313 311 312 310 311 311 311 311 313 313 312 310 309 308 307 307 307 303 302 304 305 306 308 306 305 305 305 305 305 305 305 305 305 307 309 310
311 312 312 313 314 315 313 314 314 315 315 315 315 316 316 318 315 312 307 309 309 312 313 314 314 313 313 313 312 311 311 304 306 305 301 306 307 307 306 305 308 306 305 304 304 304 304 304 304 304 304 305 306 307
311 312 312 312 313 316 312 313 315 316 316 316 318 319 316 313 306 311 305 306 308 311 312 313 315 315 313 312 312 312 309 308 305 306 305 305 308 309 307 306 305 307 305 304 304 303 302 302 302 302 303 304 303 304
312 312 313 312 312 315 312 312 315 317 317 317 320 309 309 309 310 308 308 307 311 311 312 310 314 315 314 310 307 310 306 305 306 298 301 304 309 308 307 306 303 305 307 306 305 303 303 303 301 301 300 300 300 303
312 313 313 312 315 312 312 313 317 317 317 317 318 309 310 312 312 312 312 311 312 311 311 313 310 309 307 308 304 304 307 305 307 302 303 309 309 306 306 305 303 304 305 307 306 305 303 302 303 303 302 301 299 300
312 313 313 313 311 311 314 317 317 318 318 318 319 313 312 311 311 312 313 312 312 311 311 310 308 308 308 306 308 309 306 302 304 304 308 307 310 307 306 305 302 304 304 306 306 306 305 304 302 302 302 303 302 299
312 312 313 311 310 312 316 318 319 319 318 317 316 316 314 314 314 313 313 313 312 311 307 306 308 310 305 307 309 305 305 304 306 306 306 309 309 308 307 305 302 304 304 304 304 304 304 306 305 304 302 300 300 301
312 312 313 311 310 312 318 319 320 320 318 318 316 317 315 315 315 314 314 313 311 311 310 309 307 307 307 308 306 304 307 306 306 305 306 305 303 303 304 304 303 304 304 304 303 302 302 302 300 299 300 300 300 299
312 314 314 314 314 313 319 321 322 319 320 319 317 317 317 317 316 315 314 313 311 311 311 310 307 307 307 306 307 307 307 306 305 306 305 304 304 303 303 304 302 303 304 304 302 302 302 302 300 299 299 300 299 299
315 315 316 316 314 317 321 323 322 320 319 319 318 318 317 318 318 316 315 314 313 310 309 308 307 309 309 310 309 308 306 305 304 304 304 304 304 303 302 303 302 302 303 302 301 300 300 301 299 299 299 299 299 299
315 315 314 317 322 322 322 320 319 318 319 319 318 319 318 316 316 315 314 314 312 311 310 310 312 309 311 310 309 307 306 305 305 305 303 303 302 302 301 301 302 302 302 301 300 300 300 300 300 299 299 299 299 299
316 316 317 322 324 324 325 323 320 320 318 318 319 319 317 317 316 316 314 313 312 313 312 312 311 311 312 310 310 308 307 306 306 303 302 301 301 301 301 301 301 301 302 300 300 300 299 299 299 299 299 299 299 299
316 317 321 324 325 324 320 318 317 320 318 318 318 316 316 316 316 316 315 314 314 313 311 311 311 310 311 310 309 310 309 308 306 303 301 300 300 300 300 300 301 301 301 301 300 299 299 299 299 299 299 299 299 299
316 317 322 325 324 320 320 319 321 321 319 315 315 316 316 317 316 313 312 313 314 311 312 313 312 311 310 308 309 308 308 308 303 301 300 300 300 300 300 300 299 299 299 300 300 299 299 299 299 299 299 300 298 297
317 318 316 314 316 318 318 319 317 316 316 315 315 315 316 316 313 313 311 312 314 314 314 313 312 311 310 308 307 307 306 304 302 301 300 300 300 300 299 299 298 297 297 297 298 299 299 299 299 300 299 299 298 297
310 320 317 317 319 317 317 318 317 317 316 318 317 317 316 314 315 314 311 313 314 314 313 312 311 310 308 308 306 304 303 303 303 302 300 300 299 299 298 299 298 297 297 297 298 298 298 298 299 298 298 298 297 297
313 319 318 318 318 320 319 319 318 318 318 319 315 316 316 317 316 314 313 314 314 314 313 312 310 309 308 309 307 305 306 305 303 301 301 299 299 299 299 299 297 296 296 297 296 298 298 298 298 298 297 297 297 297
319 321 319 320 322 321 319 317 317 317 317 318 316 316 318 318 315 314 314 313 314 314 313 312 311 309 306 306 306 304 303 302 301 300 300 300 299 299 298 297 297 297 296 295 296 297 297 297 297 297 297 296 297 297
320 323 324 321 320 319 321 319 319 320 319 319 315 314 316 316 315 312 311 311 310 312 313 312 306 304 303 302 301 300 300 299 299 300 300 299 299 298 297 297 297 296 296 296 296 295 296 297 297 297 297 297 297 296
318 318 321 320 318 319 321 322 321 321 320 320 315 316 316 315 310 310 308 308 307 306 306 305 302 302 301 300 300 299 299 299 299 299 298 298 298 298 297 297 297 297 297 296 296 296 296 296 296 296 296 296 295 295
320 321 322 321 321 321 321 321 321 320 318 316 316 316 314 310 308 307 307 306 305 304 304 303 301 300 300 300 299 299 298 297 297 296 295 295 296 297 297 297 297 297 297 296 296 296 296 296 296 296 296 296 295 295
322 322 321 319 320 319 319 319 317 317 317 317 316 315 315 314 312 308 306 305 304 304 303 301 301 301 300 299 299 297 296 295 294 293 294 295 296 296 296 296 296 296 296 296 296 296 296 295 296 296 296 295 295 294
321 322 321 320 317 317 317 317 317 316 317 317 317 316 315 315 313 307 305 305 303 302 302 301 301 300 299 298 297 296 294 293 293 293 293 293 294 294 294 294 295 295 296 296 295 296 295 295 295 295 295 295 294 294

GFSWCAN_850_thetae_045.txt.gz
Theta_e
310 309 310 311 309 309 311 311 311 312 312 312 311 310 309 309 308 308 308 309 308 308 307 307 308 307 307 307 307 306 307 307 307 309 311 310 311 311 312 309 311 310 311 311 311 313 315 312 317 322 317 314 315 316
309 309 310 311 308 311 311 311 312 312 312 313 312 311 309 309 309 309 308 308 307 308 308 308 308 308 308 308 308 307 307 307 307 307 308 308 310 310 312 313 309 313 309 312 311 312 307 312 313 313 313 314 314 314
309 310 311 311 308 311 311 312 313 312 312 313 313 311 310 309 309 309 308 308 308 307 308 308 308 307 306 307 308 307 308 308 308 305 306 307 309 308 311 311 310 309 308 309 310 310 311 312 312 312 312 312 313 314
309 310 311 311 308 311 311 313 314 313 313 313 313 312 311 310 310 310 309 309 308 308 310 310 308 308 306 307 308 307 308 307 307 306 306 308 309 305 309 307 309 308 308 308 311 310 310 311 311 312 313 312 313 315
309 310 311 311 308 311 311 313 313 314 314 313 313 313 312 312 312 311 312 310 309 308 312 311 309 308 307 307 307 306 306 306 307 307 307 307 305 305 307 308 308 308 309 309 311 309 310 311 312 312 312 312 312 312
309 310 311 311 308 311 311 311 314 315 314 315 315 314 313 312 312 311 312 312 311 309 309 313 310 310 310 309 308 307 307 306 305 306 305 306 305 305 309 310 307 308 308 306 308 307 309 310 310 311 310 311 310 311
309 310 311 311 309 309 311 311 313 315 315 315 314 315 314 315 314 313 312 312 311 309 309 314 315 312 311 309 309 308 307 307 305 306 307 306 306 304 307 308 308 308 308 307 307 307 308 311 311 309 309 310 310 311
309 310 311 312 311 309 310 311 312 314 315 315 315 314 314 314 315 314 314 313 311 309 309 315 317 313 311 311 309 309 308 307 306 307 307 306 307 306 309 308 309 307 307 306 306 306 307 309 310 309 310 310 311 310
309 310 311 312 311 309 309 310 313 313 314 315 314 316 315 316 316 315 313 311 310 310 311 309 315 319 312 310 309 308 307 309 306 310 308 307 307 309 309 308 308 307 306 306 305 305 305 305 306 307 309 310 310 310
309 310 311 312 311 313 313 313 313 313 314 316 315 316 318 317 314 312 312 311 311 310 310 308 310 317 313 311 310 309 308 308 309 309 307 305 311 306 306 307 308 307 306 305 304 304 304 304 304 304 305 306 307 309
309 310 311 312 313 314 313 313 314 314 315 315 315 315 315 315 314 313 313 312 313 314 310 310 310 314 313 316 314 310 310 310 308 308 310 308 312 309 306 304 307 306 305 304 304 304 304 303 303 303 303 303 305 306
310 311 311 312 312 312 315 312 314 315 315 315 315 315 316 317 314 314 312 311 314 317 313 316 316 312 313 312 313 312 312 310 311 307 309 314 312 309 307 304 306 306 305 303 303 303 302 302 302 302 302 302 303 304
310 311 312 312 312 312 313 312 312 314 315 316 317 319 314 313 313 314 314 317 314 313 312 313 314 315 312 312 313 313 313 313 308 309 312 312 310 308 307 306 303 306 306 305 303 303 302 302 302 301 301 301 301 303
311 312 312 312 312 312 314 311 312 314 316 316 319 316 314 315 314 315 315 314 313 311 311 310 314 316 314 314 313 314 310 310 310 311 314 311 309 306 307 305 303 303 306 306 305 303 302 302 302 303 303 301 301 301
311 312 313 312 314 314 311 312 314 316 316 317 318 316 315 314 311 312 311 311 312 311 310 313 312 311 312 312 310 310 310 310 311 311 311 310 308 306 306 306 303 303 304 306 306 305 305 303 303 302 302 302 302 300
311 312 313 312 312 310 311 315 316 316 318 317 318 317 314 313 316 313 313 313 312 311 310 309 312 313 312 311 311 311 311 311 311 311 309 307 309 307 307 307 303 304 304 305 305 305 306 305 304 303 302 300 299 301
311 311 311 312 311 310 313 317 318 319 318 318 318 316 316 314 315 315 314 313 312 311 313 310 312 312 310 311 311 311 312 312 308 308 306 308 308 306 304 304 303 303 304 304 303 303 303 303 301 302 301 300 300 299
311 311 312 313 312 313 315 318 319 320 320 319 318 318 316 315 314 313 313 312 311 311 311 311 309 311 311 311 311 310 308 307 306 305 305 305 304 303 303 304 304 303 303 304 303 302 302 301 300 300 300 300 300 299
312 314 314 314 314 314 318 320 321 322 320 319 319 318 316 316 317 316 315 313 311 312 311 310 311 311 311 308 308 309 308 306 306 305 305 304 304 303 302 303 303 303 303 303 302 301 300 301 300 299 299 299 300 299
315 315 317 317 315 316 320 323 322 320 320 319 318 317 317 317 318 316 313 312 311 310 312 312 310 312 310 309 310 309 307 305 305 305 305 304 303 302 301 301 303 302 303 303 300 300 300 300 299 299 299 299 300 300
314 315 315 316 322 321 321 319 320 319 317 318 317 318 318 317 315 315 315 314 312 311 313 311 311 311 310 310 311 309 307 305 306 305 304 303 301 300 301 301 301 301 302 300 300 300 300 300 299 299 299 299 299 299
317 318 317 320 323 323 323 324 321 320 319 318 319 317 318 319 318 316 315 315 314 313 311 310 311 311 311 310 310 309 307 308 306 304 302 300 300 301 301 301 301 301 301 301 301 300 299 299 299 299 299 299 300 299
316 318 320 323 324 324 321 318 317 318 322 320 318 319 319 319 317 315 317 314 315 311 310 311 311 311 310 309 309 309 309 308 306 302 300 300 300 300 300 300 300 300 300 300 300 299 300 299 299 299 299 299 300 299
317 317 321 324 324 322 320 318 320 320 318 318 319 319 320 319 316 315 316 315 314 311 312 312 312 311 310 309 308 308 308 308 304 300 300 300 299 299 299 299 298 298 298 298 299 299 299 299 299 299 299 299 298 298
317 317 316 314 316 319 320 321 320 319 320 319 319 319 320 317 319 317 316 315 314 314 313 312 312 310 308 308 308 307 308 306 302 304 303 300 299 298 298 298 298 298 297 298 298 298 298 299 299 298 298 298 298 298
308 317 316 318 320 320 320 321 320 321 321 321 320 319 318 318 318 318 316 313 314 313 312 312 311 310 309 308 308 306 304 304 305 304 301 299 298 299 300 299 298 297 297 297 298 299 299 299 299 299 298 297 297 297
313 320 319 318 317 319 320 320 318 320 321 322 320 319 320 320 319 317 314 313 314 314 314 312 310 309 307 306 306 306 306 305 303 301 299 300 300 299 299 297 297 296 296 296 296 298 298 298 298 298 297 297 297 297
318 320 322 320 319 320 322 321 321 322 321 320 318 319 319 319 318 314 313 312 312 313 312 310 306 304 302 301 300 300 301 300 299 299 300 299 298 298 297 297 296 296 296 295 296 297 297 298 298 298 297 297 297 297
319 321 321 323 321 320 321 322 322 320 319 318 319 319 318 316 313 310 309 308 306 307 307 305 302 301 301 300 299 299 299 299 299 300 299 299 299 298 298 298 297 297 296 296 296 295 296 297 297 297 297 297 296 296
318 318 322 321 321 322 322 321 321 320 320 319 316 315 315 312 308 308 307 306 306 305 304 302 301 301 300 299 299 298 298 298 298 298 298 298 298 298 298 298 297 297 296 296 297 296 296 296 296 296 296 296 296 296
319 319 321 321 323 321 320 320 320 320 319 319 317 315 314 308 307 309 306 305 304 303 302 301 301 300 299 298 298 297 296 295 294 294 294 295 297 297 297 297 296 297 296 296 297 297 297 297 296 296 296 296 295 296
320 321 323 324 323 319 319 319 318 318 317 317 316 315 314 312 312 310 306 305 304 303 301 301 300 300 299 298 297 295 294 293 293 295 296 296 296 296 296 295 296 296 296 296 296 296 296 296 296 296 296 295 295 295
322 321 321 320 319 319 317 317 318 317 317 317 318 316 315 316 315 310 307 305 303 302 301 301 300 299 298 297 295 293 293 293 293 293 293 294 294 294 294 294 295 295 296 296 296 296 296 296 295 295 295 295 294 294

GFSWCAN_850_thetae_048.txt.gz
Theta_e
310 309 310 311 308 310 311 312 313 312 313 313 311 311 310 309 308 309 309 308 308 309 310 310 309 310 308 309 309 308 311 310 308 311 312 313 312 312 311 311 311 311 311 312 311 311 312 310 308 316 321 317 316 318
310 310 310 311 308 310 311 313 314 313 313 313 311 310 310 309 309 309 310 308 308 308 311 310 310 309 309 309 308 309 309 310 308 308 309 309 311 312 312 315 307 312 310 313 311 313 310 305 306 313 314 316 315 316
309 310 310 311 309 310 311 313 314 313 313 314 312 310 310 310 309 309 309 309 308 311 313 312 311 310 309 309 309 310 311 310 310 306 307 308 310 308 313 313 310 307 304 309 308 309 305 309 310 312 314 314 314 315
309 310 310 311 309 310 311 313 314 314 314 313 313 311 310 310 310 311 310 309 309 311 314 312 309 310 309 309 308 309 310 309 309 307 308 310 310 307 310 309 308 306 307 308 307 305 307 310 309 312 313 313 313 314
309 309 310 311 310 310 311 311 314 315 315 315 313 313 313 313 312 312 311 311 311 310 315 313 311 310 310 310 310 309 309 310 310 311 310 309 306 306 308 309 309 308 308 309 310 306 307 307 310 312 313 312 312 313
309 309 310 311 311 309 311 311 312 314 314 314 315 314 314 314 314 311 315 312 312 309 313 316 312 312 311 311 311 311 309 309 310 310 309 309 307 307 311 311 310 308 307 306 307 307 309 310 310 310 312 312 312 313
308 309 310 311 312 311 309 311 311 312 315 315 314 314 314 314 314 314 315 313 313 311 313 318 318 313 312 312 311 312 311 310 309 309 309 309 309 309 310 311 309 308 306 306 305 306 307 307 307 309 312 312 312 311
309 309 310 312 311 309 309 310 311 312 314 315 315 314 314 313 314 315 314 313 312 311 312 318 319 318 313 314 312 310 314 312 309 310 310 309 309 309 311 308 309 308 306 306 306 305 306 306 306 306 307 309 311 312
309 309 310 312 312 313 313 313 313 313 314 314 315 313 314 314 313 314 313 311 311 311 316 315 320 321 313 314 311 313 313 315 311 312 311 310 310 310 310 308 309 308 306 305 306 305 306 306 305 304 305 305 306 306
309 310 310 311 312 314 314 313 314 314 314 315 315 314 318 316 314 313 312 312 311 312 312 314 314 319 316 315 315 313 311 312 313 312 311 311 311 309 307 307 308 308 306 305 305 304 304 304 305 305 304 304 304 304
309 310 310 311 312 312 313 314 313 314 315 315 317 319 316 315 315 313 317 317 317 319 317 316 315 318 316 317 315 312 312 312 312 313 313 313 312 311 308 307 308 308 307 305 305 304 304 304 304 304 304 304 303 304
309 310 311 311 312 312 312 313 313 312 314 316 315 314 315 315 318 318 317 316 317 317 315 316 317 316 316 315 315 314 314 313 314 311 312 314 314 310 309 307 307 309 308 306 305 305 304 304 304 304 303 303 303 302
310 310 311 312 312 312 311 313 313 312 313 315 317 320 319 318 320 317 322 318 316 314 314 314 316 317 315 314 314 315 316 315 312 313 313 314 311 309 309 307 306 307 309 308 307 306 305 305 305 304 304 303 303 303
310 311 312 313 312 312 313 313 311 312 315 320 322 320 319 318 318 318 318 317 314 314 314 314 317 317 316 317 316 316 315 313 313 314 313 311 311 309 308 307 306 305 307 308 308 307 306 305 305 305 304 304 303 303
311 311 312 313 313 313 312 310 312 314 316 321 321 321 319 318 317 317 317 315 315 314 314 315 316 316 315 315 313 312 313 313 313 314 312 310 310 310 309 308 306 305 305 307 308 307 307 306 306 305 304 304 303 303
311 311 313 311 311 312 310 312 316 316 318 320 321 321 319 319 319 318 318 318 316 314 314 313 313 314 314 314 313 313 312 313 313 312 310 309 310 310 309 308 307 305 305 306 306 306 305 305 304 304 303 302 303 303
310 310 310 311 312 311 312 314 317 318 321 322 320 319 320 319 319 319 318 317 315 315 316 314 315 314 312 313 313 310 313 312 310 309 308 309 309 308 307 307 307 305 305 306 306 305 304 304 303 302 302 302 302 303
310 311 313 314 313 312 313 316 321 323 323 320 320 319 320 320 319 318 318 316 315 315 315 314 313 313 311 312 312 312 311 310 308 307 308 309 308 309 307 306 307 306 306 305 304 304 303 304 302 302 302 302 302 302
311 314 314 314 314 315 319 321 320 322 321 320 320 320 320 320 319 319 319 317 313 312 313 313 313 312 313 312 312 311 311 309 308 308 307 308 308 307 305 306 306 306 306 305 304 303 303 302 301 301 301 301 301 301
315 315 317 317 316 316 321 324 322 323 322 322 321 321 321 322 320 319 318 317 315 314 316 315 313 313 314 313 313 312 310 309 308 308 307 306 304 304 304 304 304 305 305 305 303 302 303 302 302 301 300 301 301 301
315 315 316 315 320 319 322 322 322 322 320 321 321 322 323 322 321 320 318 317 316 315 316 315 314 314 314 312 312 312 311 309 309 308 306 305 303 302 303 303 303 303 304 303 303 302 302 301 301 301 301 301 301 301
316 316 318 318 323 325 325 326 324 323 322 322 322 322 322 322 322 320 318 317 317 316 314 314 313 312 312 312 310 312 310 309 308 307 303 303 303 302 302 303 303 303 303 303 303 302 302 301 301 301 301 301 300 300
316 317 321 322 326 325 323 319 322 322 324 324 322 322 323 323 321 319 318 317 317 315 314 313 312 314 312 312 312 310 311 310 308 305 303 302 302 301 302 301 301 302 302 302 301 301 301 300 300 301 301 301 300 300
315 320 324 325 326 324 323 323 323 324 324 323 322 322 322 322 320 318 318 317 316 315 315 313 313 311 310 311 309 310 310 308 306 304 303 303 302 301 301 300 300 299 299 300 300 301 301 301 300 300 300 300 300 300
320 318 319 316 321 323 322 323 324 323 324 324 323 322 323 321 322 319 318 316 315 314 314 314 314 312 310 310 309 308 306 306 304 306 305 303 301 301 301 300 301 299 299 300 300 300 300 301 300 300 300 300 299 299
313 318 317 319 321 324 323 323 324 324 324 324 323 323 322 322 321 319 318 316 315 315 315 314 313 311 310 308 307 305 305 305 304 305 303 301 301 300 301 300 299 299 298 299 300 300 300 300 300 300 299 298 298 299
316 321 322 321 321 323 324 325 324 324 325 324 323 322 322 320 319 319 317 316 315 315 314 312 310 307 305 303 302 302 302 302 303 302 301 302 301 300 300 299 298 298 298 298 299 300 300 299 300 299 298 298 298 298
319 322 322 322 321 322 324 325 325 325 324 323 322 322 319 319 319 317 315 314 313 309 307 305 303 303 302 301 300 300 300 300 300 300 300 300 299 298 298 298 297 296 297 297 298 299 299 299 299 298 298 299 298 298
321 322 322 324 323 323 325 325 324 324 324 323 322 321 321 319 316 315 313 311 307 306 305 304 303 302 301 300 299 300 300 300 301 301 301 301 300 298 298 299 298 298 298 297 297 298 298 298 298 298 298 298 298 298
320 321 323 323 324 324 325 325 326 325 323 322 321 319 318 315 312 310 310 309 308 306 304 303 303 302 301 300 299 298 298 298 298 299 300 299 298 298 298 298 298 298 298 298 297 297 297 297 297 297 297 297 297 297
322 322 322 322 323 324 325 324 323 322 322 322 320 321 318 311 308 307 307 307 305 304 303 303 302 302 301 299 299 298 297 297 297 297 298 298 298 298 298 298 298 298 298 298 297 297 297 297 297 297 297 297 297 297
323 323 324 326 325 325 322 324 323 323 323 322 322 320 316 313 312 310 308 305 304 304 303 303 302 300 299 297 296 295 296 297 297 298 298 298 298 298 298 298 298 298 298 298 297 298 297 297 297 297 297 296 296 296
325 325 325 324 325 324 322 322 321 321 320 320 320 320 319 318 317 309 307 304 305 304 303 302 300 299 298 296 295 295 295 294 294 294 295 296 296 296 297 297 297 297 297 297 297 297 297 297 296 296 296 296 295 295

GFSWCAN_850_thetae_051.txt.gz
Theta_e
310 310 310 311 310 309 311 313 314 313 313 312 311 311 310 309 309 311 312 310 312 315 314 313 312 311 312 311 313 312 313 312 310 312 314 314 314 314 311 312 315 314 315 316 314 315 316 312 312 313 313 310 310 317
310 309 310 310 310 310 311 313 314 314 313 313 311 311 311 310 309 312 312 309 309 310 314 314 313 312 312 312 312 311 313 311 309 310 310 309 312 312 312 314 310 315 314 314 314 314 313 311 309 309 307 308 309 319
310 309 309 310 311 309 311 312 314 314 313 313 312 310 311 311 310 310 313 311 311 314 316 315 313 312 312 311 311 313 313 311 311 310 309 308 310 309 313 312 311 309 307 308 308 311 310 309 306 307 307 309 312 316
310 309 309 310 311 309 311 311 314 315 315 315 313 312 310 311 311 311 314 314 314 315 316 316 313 314 312 312 312 311 311 311 311 311 311 310 310 307 310 310 308 307 306 308 308 307 304 308 309 308 310 312 313 315
310 309 309 310 311 310 310 311 312 314 315 315 315 313 314 314 313 313 314 314 315 315 318 317 315 315 313 313 313 313 311 311 312 312 312 312 308 307 307 308 308 307 307 307 309 304 307 307 306 308 311 311 313 317
309 308 309 310 311 312 310 310 311 312 315 315 315 315 315 315 315 313 315 316 315 315 316 320 318 316 315 315 313 314 311 311 312 311 311 311 310 310 312 311 310 309 307 307 304 304 304 305 303 309 311 312 313 313
309 308 309 310 312 310 309 309 311 312 313 315 315 314 314 314 314 315 317 315 314 314 315 318 320 319 316 316 316 313 313 313 312 312 311 311 310 311 312 313 310 308 307 308 307 306 305 304 304 306 310 310 312 313
309 309 309 310 312 311 312 312 312 313 313 314 315 315 314 314 314 315 315 315 314 314 316 319 320 320 318 318 317 313 315 314 313 313 312 311 310 309 312 309 309 308 307 307 306 307 305 304 303 304 305 305 307 308
309 309 309 310 312 313 313 313 313 314 314 314 314 315 314 314 316 316 315 313 311 314 317 318 323 321 318 318 317 316 315 317 314 315 313 311 312 313 312 309 309 308 307 307 306 306 306 306 306 306 304 304 303 305
309 309 309 310 311 312 313 314 313 314 314 315 315 317 320 317 316 314 313 313 313 314 316 320 319 321 318 318 317 316 315 316 317 315 313 314 312 311 309 309 309 309 307 307 307 306 306 306 306 306 305 304 304 304
309 309 309 310 311 312 312 312 314 312 313 317 320 321 318 317 315 316 320 320 319 320 320 319 318 321 318 320 318 316 316 315 315 317 315 317 315 313 310 309 309 309 308 307 307 307 306 306 305 305 305 305 304 304
309 309 310 311 311 312 312 312 313 313 319 317 317 318 318 317 320 321 320 318 319 320 317 317 317 318 319 318 317 316 316 316 317 313 315 315 315 312 311 309 308 309 309 308 307 307 306 306 306 306 305 305 304 304
309 309 310 311 312 312 312 312 314 312 312 318 320 322 322 320 323 320 323 322 319 317 316 316 317 320 318 317 316 318 317 318 314 314 317 315 314 312 310 309 308 308 308 309 309 308 307 307 306 306 305 305 305 305
309 310 311 312 312 311 313 314 312 311 314 322 323 324 322 322 321 320 320 319 317 316 316 316 317 319 319 319 318 319 317 314 315 318 314 315 314 311 311 310 309 308 308 309 309 309 308 307 306 306 305 305 304 304
309 311 311 313 312 311 311 311 311 313 320 322 322 324 321 320 319 320 319 320 319 318 318 317 317 318 319 318 316 314 316 316 315 316 315 313 312 312 311 310 309 308 307 308 308 307 308 306 305 305 305 305 305 304
310 311 312 313 311 311 311 311 314 317 321 322 322 321 320 320 321 320 320 320 320 319 318 317 318 317 315 313 313 311 313 314 315 314 312 312 312 311 310 309 309 308 307 307 307 307 307 306 305 304 304 305 305 305
310 315 311 311 312 312 311 314 321 322 322 322 322 321 320 321 321 320 320 321 319 319 319 318 318 314 314 314 313 312 314 315 312 311 311 311 310 310 308 308 307 308 307 307 307 306 305 306 305 304 304 304 304 305
312 313 313 314 313 313 314 315 323 322 323 322 322 321 321 321 322 321 322 319 318 317 317 318 315 317 316 316 315 314 313 313 311 310 310 311 310 309 308 307 306 307 307 307 306 306 306 305 305 304 304 304 304 303
310 312 314 314 314 316 321 324 322 322 322 322 321 321 322 322 325 323 320 319 317 316 317 317 317 316 316 314 314 313 313 312 310 310 310 310 309 308 307 306 306 307 307 308 306 305 305 304 303 303 303 303 303 303
314 315 317 317 317 320 321 322 324 323 324 323 322 322 322 324 323 321 320 318 318 317 317 318 317 315 315 315 314 313 312 312 310 311 310 308 307 305 306 305 305 306 307 307 306 303 305 305 303 303 302 302 303 303
315 316 317 316 318 319 322 322 323 323 322 322 322 323 323 323 322 321 319 318 317 316 316 316 315 315 314 314 312 311 310 312 311 311 310 307 306 306 305 305 305 304 305 306 306 305 302 304 303 303 302 302 302 303
321 316 322 318 323 324 324 323 324 324 324 323 323 323 323 322 322 320 319 317 316 315 315 315 314 313 312 312 311 312 312 312 311 311 308 306 306 305 305 305 305 305 305 305 305 304 304 303 302 303 302 303 302 300
315 318 323 324 325 325 322 323 323 324 324 324 323 323 322 322 321 321 319 317 316 315 314 315 315 315 315 313 313 312 312 310 310 309 307 306 305 304 304 303 303 303 304 303 302 303 304 301 301 302 303 302 302 302
314 323 323 324 325 325 324 324 324 324 325 324 323 323 323 322 321 319 319 317 315 315 315 315 314 314 312 311 310 310 310 308 308 306 306 306 305 303 303 302 302 302 302 301 302 302 303 303 300 302 302 302 301 301
321 318 320 317 323 324 324 324 324 325 326 324 324 323 322 322 322 320 318 316 315 315 314 313 312 313 312 311 308 308 307 306 307 307 307 305 303 303 303 302 302 300 300 302 302 302 302 302 302 302 302 301 301 301
318 320 318 320 321 323 324 323 324 324 324 324 324 324 323 322 321 321 319 317 317 316 315 313 311 310 308 306 305 304 304 304 305 306 304 303 302 302 303 303 301 300 300 300 302 301 301 301 301 300 300 299 299 301
318 321 321 321 323 323 324 324 324 324 325 325 324 324 323 322 322 320 318 317 316 314 311 308 306 305 305 303 303 303 303 303 303 303 303 302 301 301 302 301 300 299 299 300 300 301 301 300 301 301 300 300 300 300
319 321 322 322 322 322 324 325 325 325 325 324 324 324 322 321 322 318 317 316 313 310 307 305 305 304 303 302 302 302 302 302 302 302 302 301 300 299 299 299 298 297 298 299 300 301 301 301 300 300 300 300 300 299
320 320 322 324 324 324 324 325 324 324 325 323 324 324 323 321 318 316 315 313 310 309 308 306 305 304 303 302 301 301 302 302 303 304 303 301 300 300 299 300 299 300 299 298 299 299 299 299 299 299 299 299 299 299
319 320 323 323 323 324 323 324 324 326 326 325 325 323 320 318 316 314 314 313 311 310 308 305 305 304 303 302 302 300 299 299 301 302 303 301 300 300 299 299 299 299 299 299 298 297 298 298 299 299 299 299 299 298
321 322 322 322 322 322 326 326 326 326 325 325 324 324 320 315 311 311 311 312 310 308 307 305 304 303 302 301 301 300 300 299 299 300 300 300 300 300 299 299 299 299 299 299 299 299 299 299 299 299 299 299 298 298
323 324 324 325 325 328 326 326 326 326 325 324 323 322 319 315 314 311 310 309 309 309 306 305 304 302 300 299 298 299 299 300 300 299 300 300 300 300 299 300 299 299 299 299 299 299 299 299 299 298 298 298 297 297
323 324 324 324 324 327 326 325 324 325 323 322 321 320 322 320 319 313 308 308 309 308 307 304 302 301 299 298 298 298 298 297 298 298 299 299 298 299 299 299 299 299 299 299 299 298 298 298 298 297 297 297 297 297

GFSWCAN_850_thetae_054.txt.gz
Theta_e
318 311 309 310 310 310 311 312 313 314 313 312 311 311 310 310 310 314 315 311 316 318 315 314 314 315 314 314 315 313 315 314 313 313 312 313 312 313 313 312 314 314 319 317 318 318 317 314 314 315 315 314 313 312
318 313 309 310 310 310 311 311 313 314 313 313 311 311 311 311 310 313 316 314 311 315 316 316 315 313 314 313 314 314 314 313 312 312 312 311 313 312 312 315 311 315 311 312 312 316 312 310 311 311 311 311 310 310
318 312 309 310 310 311 310 311 313 315 315 314 313 310 311 311 311 311 315 316 315 317 318 317 316 315 314 313 313 313 313 313 312 312 311 310 312 310 312 312 311 309 306 309 309 311 309 308 307 307 308 308 308 309
317 310 309 309 310 311 310 311 311 314 315 315 315 313 311 311 312 313 314 316 316 317 318 318 316 316 315 314 313 313 312 313 313 311 312 311 311 309 310 310 308 308 308 307 308 307 305 307 306 306 306 307 307 309
314 310 309 309 310 311 311 310 311 311 314 315 315 315 314 314 314 315 313 316 316 316 319 318 317 316 316 315 315 315 314 313 313 315 315 315 311 310 309 309 307 307 308 308 308 305 303 304 304 303 306 310 310 313
311 309 309 309 310 312 310 310 310 311 312 315 315 315 315 315 315 316 317 317 316 316 316 319 318 318 317 317 317 316 315 313 313 314 314 313 312 312 314 313 310 309 308 306 306 305 305 303 303 302 306 309 312 313
310 309 308 309 311 311 310 310 310 311 313 314 314 315 314 314 314 316 319 317 316 315 317 318 320 321 319 318 317 317 316 315 315 314 314 312 312 311 313 314 310 309 309 308 307 305 305 303 303 302 303 305 308 309
310 309 308 309 311 312 313 313 313 313 314 314 314 315 314 313 314 316 318 316 315 315 317 320 320 321 321 319 319 317 316 316 316 314 314 312 312 312 314 311 311 309 308 308 307 306 306 305 305 303 302 302 303 305
310 309 309 309 310 312 313 314 313 313 314 314 314 315 314 314 318 318 317 315 313 315 319 320 322 320 320 319 318 317 316 318 317 315 315 313 316 311 313 311 311 309 308 308 307 307 307 306 306 304 303 302 302 303
310 309 309 309 310 311 312 312 314 314 312 314 317 317 321 320 319 317 316 315 315 316 316 320 320 322 320 320 319 318 316 317 319 317 315 318 311 312 312 311 311 310 309 308 308 307 307 307 306 306 305 303 302 302
310 309 309 309 310 311 311 311 312 314 316 320 322 323 322 319 318 319 321 322 323 322 321 321 321 323 319 321 321 318 318 317 317 318 319 319 317 314 311 310 310 310 309 308 307 307 307 307 307 306 306 305 303 301
310 309 309 310 310 311 312 312 312 313 319 320 317 315 320 320 322 323 325 320 321 322 320 319 319 319 320 320 318 318 318 318 318 316 318 316 317 313 312 310 310 310 310 310 309 308 308 308 307 306 306 306 305 304
310 309 309 310 311 312 312 312 312 314 312 318 321 323 323 322 321 323 323 322 324 320 319 318 320 321 321 319 317 318 318 318 317 317 321 316 315 313 312 311 311 310 310 311 310 309 309 308 308 307 306 306 306 305
309 309 310 311 313 312 312 314 314 312 313 323 324 322 323 323 324 323 323 324 322 321 319 317 319 320 321 317 316 318 318 317 317 317 317 318 316 313 312 312 311 310 310 311 310 310 309 307 307 306 307 306 306 306
309 310 310 311 313 311 311 311 311 311 319 322 323 322 323 321 322 322 322 321 322 322 321 320 319 320 317 317 315 315 315 315 317 318 317 314 313 313 312 311 310 310 309 310 309 308 308 307 306 306 307 307 306 306
309 310 312 313 313 311 311 311 312 315 323 321 321 322 322 323 323 322 322 322 320 320 320 319 320 319 317 316 315 315 315 315 317 316 314 314 313 312 310 309 309 309 309 309 309 309 307 307 306 306 305 306 307 307
310 314 317 313 311 313 312 312 322 323 322 323 323 322 322 323 323 323 322 321 319 319 320 318 319 319 317 316 315 314 315 316 314 312 313 314 313 312 310 309 309 308 309 309 307 307 308 307 307 306 306 306 306 307
314 314 313 311 313 314 314 313 323 323 323 323 323 323 323 323 323 321 321 320 319 317 318 318 318 318 316 316 316 316 315 313 313 313 312 313 312 311 310 309 308 308 308 309 308 307 307 306 305 305 304 305 305 306
310 310 311 314 314 317 323 323 322 322 323 323 323 323 323 324 322 323 321 320 320 319 318 318 317 317 317 315 315 315 314 313 313 313 312 312 312 311 309 309 308 308 309 309 308 307 306 306 306 305 303 304 305 304
311 315 315 316 315 320 322 322 325 323 324 324 324 324 324 325 323 320 320 320 319 319 318 318 317 316 316 315 314 313 313 312 312 312 312 311 311 309 307 307 307 307 306 307 308 306 306 306 305 304 303 304 305 303
316 318 317 317 316 317 323 322 324 325 324 322 323 323 325 323 323 321 320 319 317 316 317 316 315 315 315 315 313 312 312 313 311 311 312 311 309 307 307 306 307 307 307 307 308 307 304 305 305 304 303 303 303 304
324 323 321 320 323 324 323 321 323 325 324 324 323 324 321 324 322 320 320 318 318 316 316 314 314 313 315 315 313 314 313 312 312 312 310 308 308 307 306 306 305 305 304 304 304 304 305 304 303 304 304 304 303 302
315 317 323 324 324 324 323 323 325 324 326 324 325 324 324 322 323 322 318 319 318 317 316 315 314 316 315 315 314 314 311 312 311 310 309 308 307 306 305 304 303 303 304 304 304 303 304 303 301 304 304 304 303 303
320 320 324 323 324 325 325 324 324 324 324 326 326 323 324 323 322 320 321 318 316 316 315 315 316 314 314 313 314 312 310 307 309 309 309 308 306 305 304 304 303 303 302 303 304 304 302 302 302 303 303 303 303 302
320 320 321 319 323 326 325 326 325 326 326 326 326 324 323 322 323 322 321 318 318 317 315 313 312 312 312 310 308 307 306 306 307 307 307 306 305 305 304 303 303 302 302 303 302 303 302 301 303 303 302 302 302 302
318 319 319 320 320 323 324 325 325 326 325 326 324 325 324 324 323 322 321 318 318 316 313 311 310 308 307 306 305 305 305 306 307 306 305 303 303 303 304 303 302 301 301 302 302 300 302 302 302 302 302 301 301 302
318 319 321 320 322 324 323 323 323 325 327 325 326 326 326 324 323 321 318 316 316 313 310 307 307 306 305 305 305 305 304 304 304 303 302 302 301 301 302 301 300 300 301 302 302 301 301 301 302 302 301 301 301 301
319 320 323 323 322 322 323 324 325 327 323 321 322 326 326 324 323 320 317 315 313 311 308 307 306 305 304 304 304 304 304 304 304 304 302 301 301 300 300 298 298 298 298 300 302 302 302 301 302 301 301 300 300 301
319 320 320 322 324 323 323 325 325 321 319 318 324 326 323 321 319 317 315 314 312 311 310 308 307 306 305 304 303 302 302 303 306 306 303 302 301 300 300 301 301 300 299 299 299 298 299 299 300 300 300 300 300 300
318 318 321 322 323 324 323 322 322 322 322 325 325 322 319 318 317 315 315 314 313 312 310 307 306 305 305 305 304 302 301 302 303 304 303 302 301 300 300 301 301 300 300 299 299 299 300 300 300 300 300 300 300 300
320 321 322 322 323 324 322 321 324 325 326 326 325 322 320 316 316 314 315 315 313 311 309 307 306 304 303 303 303 303 302 301 302 302 302 301 301 301 301 300 301 300 300 300 301 300 300 300 300 300 300 300 299 299
321 322 323 324 325 325 322 321 321 326 327 326 325 323 319 317 316 314 313 312 311 311 309 307 305 303 301 301 301 302 301 301 302 302 302 302 301 301 301 301 301 300 300 300 300 300 301 300 300 299 299 298 298 298
323 323 322 322 325 324 319 320 326 325 324 324 324 322 322 322 320 314 312 311 311 310 309 306 304 302 301 301 301 301 301 301 300 300 301 301 300 300 301 301 301 300 300 300 300 299 299 299 299 299 299 299 299 299

GFSWCAN_850_thetae_057.txt.gz
Theta_e
325 321 315 310 310 310 310 311 313 315 314 314 311 311 311 311 311 315 316 314 315 318 316 315 314 315 315 314 315 314 315 314 312 311 310 310 310 310 310 309 310 311 312 315 314 317 315 310 311 314 311 309 309 310
324 320 315 310 310 310 310 310 312 314 316 314 313 311 312 312 312 314 318 317 315 315 317 317 317 316 314 314 314 314 314 313 312 312 311 310 310 310 311 311 310 310 311 310 309 311 309 309 308 307 307 307 307 308
324 319 312 309 309 310 311 310 311 312 314 315 315 313 310 311 311 313 314 316 317 317 318 318 318 317 315 314 313 314 314 313 312 312 311 310 309 310 311 312 311 310 307 308 306 309 308 307 306 306 304 305 305 307
323 319 310 309 309 310 311 311 310 311 312 314 315 315 313 312 313 314 314 316 317 317 318 319 317 316 316 314 314 314 313 313 313 311 312 310 309 309 310 310 309 308 307 308 307 307 306 306 305 304 303 304 305 307
322 317 310 308 309 310 311 311 310 311 311 314 315 315 315 315 315 316 317 314 316 316 317 317 318 317 317 316 315 315 314 315 314 314 313 314 311 309 308 309 308 306 308 308 307 306 306 305 304 303 302 303 304 307
321 315 309 308 309 311 310 310 310 310 311 313 314 315 315 315 315 315 318 317 316 316 317 318 318 319 318 317 317 317 316 316 315 314 315 314 313 312 313 312 311 310 309 308 307 307 306 305 304 304 303 302 303 304
321 312 309 308 309 311 312 312 313 312 313 314 314 314 314 314 314 315 319 318 317 316 316 319 319 319 317 316 318 318 317 316 316 315 315 314 313 312 313 311 312 309 309 309 308 307 306 305 305 304 303 302 301 303
320 310 309 308 309 311 312 313 313 313 314 314 314 314 314 314 314 315 317 317 316 315 316 319 320 321 319 320 320 319 317 316 316 316 314 313 314 312 313 312 311 309 308 308 308 307 307 306 306 305 304 302 302 302
316 310 309 309 309 310 311 312 313 314 313 313 314 314 314 314 316 319 319 318 316 315 317 320 323 322 321 320 319 318 317 318 317 317 316 314 313 306 308 311 312 310 309 308 308 307 307 307 307 306 305 304 303 301
314 310 309 309 309 310 310 311 311 312 314 313 316 319 319 321 320 320 317 314 313 314 315 318 320 321 320 320 319 319 318 318 320 318 315 314 309 310 312 312 311 311 310 308 308 308 307 307 307 306 306 305 303 302
313 310 309 309 309 310 310 311 311 312 313 321 322 322 322 321 319 319 320 320 320 321 319 318 319 321 318 319 321 318 318 317 319 318 317 314 313 315 312 312 311 311 310 309 308 308 308 308 307 306 306 305 305 303
310 310 309 309 309 310 312 312 312 311 315 320 319 317 316 322 322 323 324 321 322 322 319 319 320 319 317 320 316 313 318 317 318 316 317 315 314 313 312 312 311 311 311 310 309 309 309 308 308 307 306 306 305 304
310 310 309 309 310 312 312 312 312 312 313 312 320 322 323 323 323 324 322 320 322 322 321 321 320 319 320 317 314 317 318 316 313 313 312 315 314 313 312 311 311 310 310 311 310 309 308 308 308 307 307 306 306 304
310 310 309 309 310 312 314 314 314 313 311 320 325 315 325 326 324 324 324 324 320 320 322 321 321 321 319 318 317 316 315 316 318 317 315 316 313 313 312 312 311 310 310 311 310 309 309 307 307 306 307 306 306 306
310 309 309 310 311 312 311 311 310 311 312 324 324 318 324 323 322 322 322 322 322 322 321 318 321 319 318 317 316 315 316 316 317 317 316 314 313 312 312 310 310 311 310 309 309 308 307 308 307 307 306 307 307 306
309 309 315 315 313 313 311 311 311 312 321 323 321 323 322 323 323 323 321 320 321 319 320 320 320 319 317 316 316 316 315 316 316 315 314 314 313 312 311 310 309 308 309 309 309 308 308 307 307 307 307 306 307 307
309 311 318 316 313 312 313 312 319 320 323 322 323 323 323 324 322 319 322 322 320 318 321 319 320 319 317 317 316 315 316 316 314 314 313 312 313 312 310 310 309 308 308 309 307 308 307 307 306 305 306 306 307 307
314 315 314 313 310 312 314 312 322 324 324 323 324 323 324 325 323 323 322 321 320 319 319 319 318 319 318 317 317 316 315 312 312 314 313 311 313 311 310 310 309 309 308 309 309 308 307 305 306 305 307 306 306 306
309 309 310 311 312 313 323 324 315 321 322 323 323 324 324 324 322 322 321 321 320 319 318 318 318 319 318 315 315 314 314 313 314 313 312 312 313 311 311 309 308 308 309 309 309 307 306 307 305 304 305 305 305 306
310 311 314 315 315 314 322 322 324 326 324 325 325 326 326 323 321 320 322 321 320 319 318 319 318 316 316 316 314 312 313 312 312 313 312 312 310 309 309 307 308 307 307 307 307 306 305 306 305 304 304 304 304 304
316 319 318 318 318 316 320 324 325 326 325 326 323 323 323 322 323 323 322 320 318 317 318 316 315 315 315 315 314 313 315 313 311 312 312 310 308 307 306 306 307 306 304 304 305 306 305 305 305 304 304 304 304 304
323 324 322 322 320 324 324 321 320 324 322 322 324 320 323 323 323 321 320 320 318 318 317 315 314 314 316 315 315 314 312 310 312 311 308 308 308 307 306 305 306 305 304 304 304 303 303 304 303 304 304 303 303 304
318 320 320 324 325 324 323 323 324 323 326 326 326 326 327 325 323 321 321 321 319 317 317 316 315 315 313 314 316 314 313 311 312 309 309 308 307 306 305 304 303 305 304 304 304 304 303 302 303 304 304 304 304 303
320 319 323 323 323 323 323 324 324 324 325 324 326 327 326 324 322 322 322 319 317 317 316 315 316 316 315 313 315 312 307 310 309 308 307 307 306 305 304 303 302 302 304 304 302 301 302 302 303 303 303 303 303 303
322 321 322 321 322 325 325 326 327 326 326 325 325 325 322 322 325 325 323 320 317 316 312 312 311 309 308 307 306 306 307 308 306 305 305 304 304 304 303 302 301 302 302 301 302 301 302 302 302 302 302 302 302 302
314 319 320 319 320 319 323 325 328 328 325 324 325 322 322 322 324 324 323 318 317 313 310 308 308 307 306 306 306 307 307 305 304 303 302 303 303 303 303 301 302 302 301 301 302 302 302 302 302 302 302 301 302 302
316 319 319 321 320 321 323 324 325 325 325 325 323 322 323 318 319 322 318 317 314 311 308 307 307 306 305 306 305 305 304 303 303 302 301 301 301 301 300 300 300 301 302 303 301 302 302 302 302 302 301 301 301 301
317 319 322 321 323 322 323 324 327 324 322 321 322 325 325 322 321 321 319 314 311 309 307 306 305 305 305 305 305 305 304 305 304 302 302 301 300 300 300 300 299 299 301 301 302 301 302 301 301 301 301 301 301 301
317 317 319 321 321 323 324 326 322 321 321 319 322 325 324 322 319 317 315 313 311 310 308 307 307 305 304 304 303 303 303 305 306 304 303 301 301 301 301 301 300 300 298 297 297 299 298 300 301 301 300 300 300 299
315 316 317 319 323 325 326 326 323 322 322 321 321 321 319 318 317 316 314 313 314 312 308 307 306 306 305 305 303 302 302 303 304 304 303 302 301 301 301 301 300 300 300 300 300 300 301 301 301 300 300 299 299 300
317 317 320 321 325 325 322 321 324 324 323 321 321 321 320 317 316 315 316 316 313 311 308 306 305 304 304 304 304 303 302 303 303 302 302 302 301 301 301 301 301 300 300 301 301 301 301 301 301 300 300 299 298 298
319 320 322 327 326 323 321 321 322 325 322 323 322 320 319 319 316 315 314 313 312 311 310 307 305 303 302 302 303 303 302 302 302 302 302 302 301 301 301 301 301 300 301 300 301 300 300 300 299 299 298 299 299 299
323 325 326 327 326 324 321 319 321 324 320 323 323 321 321 320 318 316 314 313 312 310 308 305 303 302 302 302 302 302 301 301 302 302 302 302 301 301 301 301 301 301 300 300 300 300 300 299 299 300 300 299 299 299

GFSWCAN_850_thetae_060.txt.gz
Theta_e
322 324 321 315 309 310 310 309 311 313 315 314 313 311 312 312 312 316 316 316 314 316 316 316 314 315 314 314 309 313 310 310 307 305 308 308 308 308 307 307 309 309 307 310 308 312 313 307 308 309 308 306 306 305
323 324 320 314 309 309 310 310 310 311 313 314 315 313 311 311 311 312 316 316 316 316 316 317 317 317 316 313 314 313 311 312 310 306 307 303 308 308 308 308 309 308 306 305 309 306 307 307 306 306 306 305 304 304
324 322 320 312 309 309 310 311 310 310 311 314 314 315 313 311 311 313 314 316 316 317 316 318 318 319 317 314 313 314 313 312 311 311 308 306 306 305 307 309 308 308 306 306 306 305 305 305 306 305 304 304 303 303
325 322 320 311 309 309 310 311 310 310 311 312 315 315 315 314 314 315 316 315 316 316 316 318 318 317 317 314 313 313 313 313 312 311 309 307 307 307 301 305 308 305 306 307 307 306 306 306 305 305 304 304 304 303
324 322 319 310 309 309 311 310 309 309 310 312 313 315 315 315 315 315 317 315 316 316 315 316 315 317 316 316 314 314 313 314 313 313 309 309 309 306 307 307 307 307 306 307 305 306 306 305 305 305 304 303 303 303
324 323 318 310 309 309 311 312 312 311 311 313 314 314 314 315 315 315 318 316 316 315 316 313 316 317 318 317 314 315 315 314 314 314 312 313 312 310 306 309 308 308 308 307 307 308 307 307 305 305 304 303 303 303
324 322 315 309 308 309 312 313 313 313 313 314 314 314 314 314 314 314 317 318 317 316 315 316 316 319 318 318 316 315 316 316 315 315 313 313 313 311 305 303 310 310 309 308 308 308 308 307 306 306 305 304 303 303
324 321 313 309 309 309 311 312 313 313 313 313 312 313 314 314 315 315 317 316 317 315 315 316 315 319 318 317 316 318 318 317 317 315 314 312 311 310 304 309 311 310 309 308 308 308 307 307 307 307 306 305 303 302
323 320 311 309 309 309 309 310 311 311 311 313 314 315 318 316 317 319 318 318 316 316 316 317 316 318 319 318 319 317 317 315 316 315 312 312 305 304 306 310 311 311 309 308 308 308 307 307 307 307 306 306 305 303
321 316 310 309 309 309 309 310 310 310 311 312 319 320 322 321 320 319 316 315 313 314 314 314 318 316 317 318 316 318 315 317 316 316 314 308 306 308 309 311 311 311 310 309 308 308 307 307 307 307 306 306 305 303
318 312 310 309 309 309 309 310 310 310 311 318 322 322 319 317 318 318 319 317 316 316 316 317 319 315 318 314 313 315 315 313 314 315 316 311 309 312 311 311 311 312 311 310 309 309 308 308 308 308 307 306 305 304
316 311 310 309 309 309 311 311 312 311 311 317 317 316 315 318 320 320 320 319 320 318 319 317 318 319 318 318 314 311 315 315 313 311 310 310 308 313 312 311 312 311 311 311 310 310 308 308 308 308 307 306 306 305
312 310 310 309 309 310 312 311 311 311 313 312 317 320 320 321 318 323 320 318 317 319 320 321 320 319 319 315 313 312 315 314 310 311 309 307 312 312 312 312 311 310 310 310 310 309 308 309 308 307 306 306 306 306
310 310 310 309 309 310 312 312 311 310 310 314 322 313 320 321 323 323 322 321 321 320 320 320 319 318 318 314 314 315 312 314 315 311 312 311 313 313 312 312 311 311 310 310 310 310 309 309 308 307 306 307 306 306
309 309 309 310 310 311 311 311 311 310 310 320 323 315 320 322 323 323 320 320 322 322 322 319 318 317 313 313 311 310 314 313 310 309 310 313 312 312 312 310 310 310 309 309 309 308 308 307 307 307 307 307 307 306
309 309 316 315 313 313 312 312 312 311 313 320 321 320 321 323 321 321 321 321 319 321 322 319 316 314 314 312 314 314 313 309 310 310 313 313 312 312 311 310 310 309 309 309 308 308 308 307 307 306 306 306 307 306
309 310 315 316 314 311 311 313 314 315 321 324 322 322 322 323 323 322 321 321 321 319 315 315 316 317 313 314 314 311 312 310 313 313 313 312 312 312 310 310 309 308 309 309 308 308 308 307 305 305 306 307 307 306
310 315 315 312 310 310 312 313 320 325 324 324 323 322 324 324 323 321 321 321 321 319 318 317 317 316 315 315 312 311 314 314 312 313 313 311 311 310 310 310 309 309 309 309 309 308 307 305 305 305 307 306 305 305
308 308 309 310 309 311 318 323 313 318 320 322 322 324 324 323 322 323 322 321 320 318 317 318 315 314 313 313 314 313 313 314 313 313 312 312 312 311 310 308 308 308 308 308 308 307 306 306 305 306 306 305 305 306
309 310 313 313 314 314 315 321 323 322 326 325 325 324 321 319 321 322 321 321 319 319 317 314 313 316 315 315 314 313 313 312 312 311 310 309 308 308 308 307 307 306 305 305 306 305 305 304 304 305 305 304 305 306
315 321 319 318 318 315 316 320 324 326 326 325 324 322 323 321 322 322 321 321 321 318 316 315 315 315 315 315 314 313 313 311 311 310 309 308 307 306 306 306 305 304 303 305 305 306 305 304 304 304 305 304 304 304
320 323 323 321 319 321 321 319 315 319 322 323 323 322 321 320 322 323 322 320 318 317 316 314 314 314 314 315 314 313 314 311 312 309 308 307 305 305 304 305 304 304 304 304 303 304 303 303 304 304 304 303 304 303
320 321 320 321 324 324 322 322 325 324 322 323 323 323 324 323 322 321 319 320 319 317 316 316 315 315 313 313 313 313 309 312 310 308 308 306 304 303 303 303 304 304 303 302 303 302 303 303 304 303 303 302 302 302
317 319 321 323 324 321 322 323 323 324 325 325 324 324 323 322 317 321 319 319 317 317 315 312 315 316 314 314 308 309 309 309 307 305 306 305 304 303 302 303 303 302 302 301 301 302 303 303 303 303 303 303 303 303
319 321 322 321 320 324 324 323 324 324 323 323 325 323 319 319 322 323 321 318 314 312 310 308 310 309 307 307 308 307 306 305 304 304 304 304 303 302 301 300 300 301 302 301 302 302 302 302 302 302 302 303 303 302
310 318 320 322 320 318 319 324 326 324 323 324 324 322 320 319 321 321 320 317 312 309 308 307 306 306 306 306 306 305 303 303 302 302 303 303 303 302 301 301 302 301 302 302 302 302 301 302 302 301 301 301 301 301
311 319 320 320 319 318 321 323 325 325 325 325 323 323 322 318 316 318 319 315 310 308 307 306 305 305 305 305 305 305 304 303 301 301 301 301 300 300 300 299 301 301 301 302 302 302 302 301 301 301 301 301 301 300
317 318 320 320 319 320 323 323 326 323 322 321 320 323 325 323 321 320 317 315 311 309 307 306 305 305 305 305 304 304 304 302 301 301 300 300 300 300 299 299 300 301 301 301 301 301 301 301 301 301 300 300 300 300
317 317 317 318 319 321 324 324 323 322 320 321 322 321 318 321 318 318 317 315 308 308 307 306 305 304 304 304 304 304 305 303 301 301 301 300 301 301 300 300 299 299 297 299 300 300 300 301 300 300 300 299 299 299
314 313 316 317 320 325 325 324 322 321 321 321 320 320 318 317 316 315 312 312 312 311 310 309 307 304 303 303 302 303 305 304 304 302 301 301 301 301 300 300 300 300 300 300 300 300 301 300 300 300 299 299 299 298
315 315 315 318 325 322 323 322 322 323 322 321 320 320 319 317 317 313 314 315 313 308 307 306 305 305 304 303 302 302 302 303 303 302 301 301 301 301 300 300 300 301 301 301 301 301 301 300 300 299 298 298 298 299
316 318 321 326 325 321 323 323 324 321 320 323 320 319 321 319 317 316 315 313 312 311 307 306 306 304 303 303 303 302 302 302 302 301 301 301 301 301 301 301 300 300 300 301 300 300 300 299 299 298 299 299 299 299
325 325 324 325 325 324 319 321 323 321 320 322 322 321 319 318 317 315 314 313 313 312 307 305 305 304 303 301 302 302 302 302 302 302 302 301 301 301 301 300 300 300 300 300 300 300 299 299 299 299 299 299 299 299

GFSWCAN_850_thetae_063.txt.gz
Theta_e
324 324 323 320 311 309 310 310 309 311 312 314 314 312 312 312 312 314 316 314 315 314 315 315 314 314 314 313 308 311 309 308 304 303 300 306 307 307 305 307 308 306 304 299 307 308 307 307 307 307 306 305 305 304
324 323 323 320 311 308 309 310 310 310 311 313 314 314 313 311 311 311 314 315 315 315 315 316 316 317 317 314 313 312 309 310 308 302 302 304 307 307 305 299 309 308 302 301 303 303 305 306 305 305 305 304 304 303
324 324 323 319 310 308 309 311 311 310 310 311 314 314 315 313 312 314 315 316 315 316 315 316 316 316 317 316 312 313 312 312 311 310 306 301 299 303 307 307 308 307 305 301 303 303 305 306 306 304 305 304 304 303
324 324 324 319 310 308 309 310 309 309 310 311 313 315 315 315 315 315 316 316 315 315 314 316 317 317 317 317 315 313 313 312 312 310 308 302 301 305 299 301 300 303 306 307 306 305 306 306 305 305 305 305 303 303
324 324 324 319 309 308 309 311 311 310 310 312 314 314 314 314 315 315 316 315 315 315 314 315 314 315 317 316 315 313 313 313 312 311 309 307 307 305 304 305 307 306 304 304 303 305 305 306 306 306 305 305 304 303
324 324 324 318 309 308 310 312 312 312 312 313 314 314 314 314 314 314 317 315 316 316 316 312 315 314 317 316 315 314 313 313 313 313 311 312 312 309 307 306 306 307 307 307 307 307 307 307 307 307 306 306 306 304
323 323 323 316 309 308 310 312 313 313 313 312 312 313 313 314 314 314 316 318 317 316 315 314 313 317 319 317 317 313 313 314 314 313 312 314 312 310 308 302 309 310 308 308 308 308 307 307 307 307 307 307 306 305
323 323 322 312 308 308 309 310 311 311 311 312 312 314 315 316 314 315 317 315 317 316 314 313 312 316 317 317 317 317 317 316 316 315 312 311 310 309 309 308 310 310 310 309 308 308 308 307 307 307 307 306 306 305
323 322 318 310 308 308 308 309 310 310 310 311 313 319 317 319 318 319 318 318 316 315 315 314 311 314 318 318 317 318 318 316 315 314 314 312 308 309 309 311 310 310 310 309 308 308 308 308 307 307 307 307 306 304
322 321 314 309 308 308 308 309 309 310 310 311 316 320 320 320 319 318 316 315 315 315 315 312 314 313 316 317 315 316 314 315 316 313 311 309 308 309 309 307 310 310 311 310 308 308 308 307 307 308 307 307 306 305
322 318 310 309 308 308 309 310 310 311 310 312 319 321 318 318 317 318 317 316 315 314 314 315 316 314 317 314 314 315 313 314 311 309 312 308 308 311 311 310 311 311 311 311 311 310 309 308 307 308 308 307 306 306
319 314 309 309 309 309 310 311 311 311 311 314 314 315 315 316 318 318 319 318 317 317 319 317 317 317 317 316 316 312 315 313 314 310 309 303 304 311 311 312 311 311 311 311 311 310 310 309 307 307 307 307 306 306
316 312 309 309 309 309 311 312 311 311 312 312 314 317 318 318 318 321 319 316 318 317 319 318 317 318 317 314 312 311 316 312 309 308 304 303 309 312 311 312 311 311 311 310 310 310 310 308 308 308 307 307 306 306
312 309 309 309 309 309 309 312 310 310 310 311 319 314 318 318 319 320 319 318 320 320 320 320 319 317 316 312 311 314 310 311 313 311 305 307 312 312 312 311 311 310 311 310 310 310 310 309 308 307 306 306 307 306
310 309 309 309 311 310 310 311 311 311 310 314 320 315 319 321 322 322 322 321 320 320 321 319 317 316 311 312 309 309 312 313 308 307 307 312 312 312 312 311 312 310 310 310 309 309 308 308 308 307 306 307 306 306
308 308 313 314 313 312 311 311 312 311 310 313 317 319 319 321 321 321 321 320 320 320 320 318 313 313 313 310 312 312 312 308 308 307 312 313 312 312 312 311 310 310 310 309 309 308 308 308 307 307 306 306 306 306
308 309 315 316 314 312 309 311 312 312 313 322 323 322 322 321 322 322 322 320 321 320 312 313 315 316 311 312 313 309 309 308 311 312 312 312 312 312 311 311 310 309 309 309 309 309 307 307 307 305 305 306 307 306
309 315 316 314 311 309 311 313 316 322 322 322 321 318 320 322 323 323 322 321 321 319 317 316 315 315 314 314 311 309 313 313 313 312 312 311 311 310 311 310 309 309 308 308 308 308 307 306 305 305 306 306 305 305
307 308 308 309 309 308 312 320 313 315 318 320 322 322 323 323 323 322 322 322 321 320 317 317 314 313 311 311 312 313 312 313 312 312 311 311 311 309 309 308 308 307 307 306 305 306 306 305 305 305 306 305 305 305
308 309 310 313 314 312 312 315 322 319 322 324 324 323 324 320 319 321 322 322 321 318 317 315 313 315 315 314 314 313 313 311 311 311 310 308 307 307 307 306 306 304 304 304 303 304 305 305 305 306 305 305 305 305
311 322 319 318 317 314 314 317 323 324 325 325 324 322 322 321 320 321 322 321 319 318 316 315 315 314 315 315 313 313 311 310 311 310 309 306 306 306 306 306 304 303 304 304 305 305 305 304 304 304 305 304 304 304
315 321 322 321 320 318 318 316 313 314 318 320 322 321 321 320 319 321 321 319 317 317 317 317 315 314 314 315 314 313 313 311 309 307 306 306 306 305 305 304 304 303 302 303 303 304 304 303 303 303 304 304 303 303
311 319 320 320 322 321 321 321 323 323 320 321 322 322 322 319 320 321 320 319 319 317 316 316 315 314 315 314 313 310 311 311 308 307 307 304 303 303 303 303 303 302 302 303 303 303 303 303 303 303 303 303 303 303
316 318 320 323 322 321 322 322 324 323 323 322 321 323 322 321 318 319 321 319 317 316 316 315 315 313 314 311 309 309 309 308 307 306 304 303 302 302 303 302 302 301 301 301 302 302 303 303 303 303 302 303 302 302
317 319 321 320 320 323 322 322 322 322 321 320 323 322 319 319 320 321 320 316 310 311 312 314 316 313 310 307 307 306 304 304 303 304 304 302 302 301 300 300 301 303 301 302 302 302 302 302 302 303 302 302 302 301
309 316 318 320 319 318 317 321 325 322 320 322 323 321 319 316 320 319 318 312 314 314 309 309 308 306 306 306 305 303 303 302 301 302 303 302 301 301 300 301 301 302 302 301 301 301 301 301 302 302 301 301 301 300
309 315 318 318 318 318 318 320 323 323 324 324 323 320 320 318 318 315 315 313 312 307 306 306 305 305 305 304 304 303 303 302 301 300 301 300 301 300 299 299 301 301 302 302 302 301 301 301 301 301 301 301 300 300
317 317 317 319 318 318 320 321 323 323 322 322 320 323 323 322 321 319 316 317 308 307 306 305 305 304 304 304 304 304 303 301 300 300 300 300 299 299 299 300 301 301 302 301 301 301 301 301 301 300 300 299 299 300
313 317 317 316 316 317 322 323 322 322 322 320 322 320 319 321 320 319 317 315 307 306 306 305 305 305 305 304 304 304 304 302 301 300 300 300 300 299 299 299 298 300 300 300 300 300 300 300 300 300 299 299 299 299
311 310 313 314 316 321 324 324 322 322 320 321 320 319 319 317 317 316 316 310 308 307 307 306 306 304 304 304 303 304 303 303 302 302 301 300 300 300 299 300 300 300 300 299 298 300 300 300 299 299 298 299 298 298
313 314 313 314 322 322 323 324 322 321 321 321 321 319 317 316 316 313 312 312 312 314 312 310 306 304 304 303 302 303 303 303 303 301 301 301 301 300 300 300 300 300 300 300 300 300 300 300 299 298 298 298 298 298
314 313 315 321 323 322 323 323 323 322 321 322 319 319 319 318 317 315 314 315 313 310 308 307 306 306 305 304 303 302 302 302 303 302 301 301 301 301 301 300 300 300 300 300 300 300 299 299 298 298 299 299 299 299
320 324 324 323 321 321 320 323 323 320 320 321 322 320 320 320 317 315 315 315 313 312 308 305 305 304 303 303 303 302 302 302 301 301 301 301 301 301 301 300 300 300 300 300 300 299 299 299 299 299 299 299 298 299

GFSWCAN_850_thetae_066.txt.gz
Theta_e
324 323 323 323 321 311 309 309 310 309 311 312 313 314 313 312 311 311 314 315 314 315 315 314 314 314 312 311 307 310 307 307 302 300 299 305 306 307 304 302 305 301 298 298 307 308 305 306 305 306 305 305 305 304
323 323 323 323 320 312 308 309 310 310 310 311 314 314 314 313 312 311 314 315 315 316 314 315 315 316 316 315 313 311 308 308 307 301 300 302 306 306 303 298 305 305 300 299 300 301 304 305 305 305 305 304 304 304
323 322 324 324 320 311 308 309 310 309 309 310 313 314 314 315 314 314 315 316 315 315 314 315 314 315 316 317 313 312 310 311 310 308 304 299 298 303 303 301 304 306 304 299 301 302 303 305 305 305 304 304 304 303
323 322 323 324 321 312 308 310 310 309 309 311 313 314 314 314 315 315 315 315 315 315 313 313 317 317 317 317 314 312 313 311 311 310 306 300 301 303 300 300 300 302 305 307 306 304 305 305 305 305 305 305 305 304
323 323 323 323 321 311 308 310 312 311 310 312 313 314 314 314 314 314 315 315 315 315 314 315 314 314 315 316 315 313 313 312 311 310 307 305 305 303 302 302 300 305 303 304 302 305 305 305 306 306 307 307 306 306
323 322 322 323 322 310 308 311 312 312 312 313 313 313 313 313 314 314 316 315 315 315 315 311 314 314 316 316 315 313 313 312 312 312 311 310 310 308 305 307 305 306 306 307 306 307 307 307 307 306 306 306 306 307
323 322 322 322 321 309 308 310 311 312 312 312 312 312 312 313 314 314 316 317 316 315 315 312 311 315 317 317 315 314 313 313 313 313 312 312 311 309 308 305 308 309 309 307 307 307 307 307 307 307 307 306 306 305
323 322 322 321 316 308 308 309 310 310 310 310 310 315 316 316 315 317 317 316 316 316 314 311 310 315 317 316 316 313 313 313 313 314 312 309 309 309 310 310 311 310 310 308 308 308 307 307 307 307 307 307 307 306
322 322 321 320 310 307 308 309 309 309 309 310 311 317 317 318 318 318 318 317 315 316 315 312 310 313 317 317 317 317 317 316 315 314 313 311 309 310 309 311 311 310 309 309 308 308 308 308 307 307 307 307 307 307
322 321 320 312 308 307 308 308 309 309 309 309 312 319 320 320 318 317 315 315 315 315 314 312 313 311 315 315 315 315 315 313 316 313 309 306 306 309 311 310 308 309 310 309 309 308 307 308 308 307 307 307 307 306
320 320 315 308 308 308 308 309 310 311 310 310 319 320 318 318 316 317 317 315 314 313 313 313 313 312 316 313 315 315 310 310 313 307 312 308 307 309 311 311 309 310 310 311 310 310 310 308 309 307 306 306 307 307
321 316 310 308 308 308 309 311 310 311 310 316 315 314 314 315 317 317 318 318 317 316 316 316 316 316 316 316 315 312 314 313 313 308 310 305 304 310 311 312 312 311 311 311 310 310 310 310 309 308 307 306 307 307
317 313 309 308 308 308 309 312 311 311 311 311 313 315 317 316 316 320 316 317 318 317 318 317 316 317 316 315 312 312 315 313 308 309 307 302 310 311 311 311 311 311 311 310 310 310 309 310 309 309 308 307 307 307
314 311 309 309 309 309 308 310 310 311 310 309 316 317 320 316 317 316 318 316 319 319 318 319 318 317 315 313 310 313 309 310 314 311 303 305 312 312 312 312 312 311 311 311 311 310 310 309 308 308 308 307 306 306
311 309 308 309 310 310 310 309 311 311 311 311 317 312 316 321 321 321 321 321 321 320 320 318 316 315 312 313 309 309 312 313 309 307 305 311 312 312 312 312 311 311 310 310 310 310 310 309 308 307 307 306 306 306
308 308 309 313 312 311 310 311 311 311 310 310 313 317 319 317 319 320 321 321 320 319 319 317 312 313 313 310 312 312 311 309 308 306 311 312 312 312 312 311 311 310 310 310 309 309 309 308 308 307 307 306 306 306
307 308 314 314 315 313 309 309 312 311 311 316 319 319 318 318 319 319 321 322 320 318 313 312 314 315 310 312 312 308 309 307 310 312 312 312 312 311 310 310 310 310 309 308 308 308 308 307 307 307 306 305 306 306
309 314 313 315 314 309 308 312 314 318 317 318 317 315 317 318 320 322 322 321 320 319 315 314 314 315 314 314 312 309 311 312 312 312 312 312 311 311 309 308 308 307 307 306 306 306 305 304 306 305 305 305 305 305
307 307 308 308 308 308 309 317 314 314 316 317 318 318 320 321 322 321 321 321 322 320 316 315 315 314 313 312 311 312 313 312 312 311 311 311 309 307 307 307 305 304 303 304 303 303 303 302 303 305 305 305 304 305
307 308 310 311 309 312 310 313 320 320 317 321 320 322 322 322 321 320 321 321 321 317 316 316 315 314 313 313 314 313 313 312 310 310 310 308 307 306 306 306 305 303 303 304 304 305 304 304 305 305 305 304 304 305
308 318 320 317 315 313 313 316 321 323 323 323 324 323 322 321 320 320 321 319 318 318 317 317 315 316 314 315 314 312 312 310 310 309 309 307 306 306 305 304 304 302 302 303 304 304 303 303 304 303 304 304 304 304
310 316 318 320 320 318 316 315 313 313 315 319 319 321 320 319 319 320 320 319 319 318 319 319 317 314 314 314 313 313 313 311 309 307 307 305 303 303 303 303 304 302 301 302 303 303 303 302 303 302 303 303 302 303
308 311 318 319 319 319 320 320 321 322 318 319 321 321 320 319 320 320 320 320 319 317 317 316 315 315 314 314 313 311 311 309 307 306 303 303 302 302 302 303 303 301 301 301 302 302 302 301 300 302 303 303 302 301
310 316 319 319 319 317 321 321 322 323 321 320 319 322 321 319 318 318 317 317 314 316 315 315 315 314 314 310 308 308 308 307 306 303 303 303 302 302 302 302 302 302 302 302 302 303 303 302 302 302 302 301 301 301
318 318 318 318 319 321 321 321 321 321 322 320 322 320 317 319 318 320 319 313 312 315 317 317 314 313 312 308 306 303 303 303 302 302 302 302 301 300 299 300 301 301 301 302 302 302 302 302 302 302 301 301 301 301
307 313 318 319 318 317 315 319 322 320 318 321 322 319 318 315 318 319 318 313 315 313 312 313 313 309 306 305 304 303 302 302 301 301 302 301 301 300 299 300 301 301 301 301 301 301 301 301 301 301 301 300 300 299
307 312 315 316 317 317 317 317 321 320 322 323 319 318 321 320 319 315 317 314 313 309 308 306 305 304 303 304 303 302 301 300 300 299 301 302 301 299 300 301 301 301 301 301 301 301 301 301 301 300 300 300 300 299
315 316 315 317 317 318 318 319 320 321 320 321 320 323 323 322 321 318 315 314 307 306 305 305 304 304 303 304 304 303 301 300 300 300 299 298 298 299 300 301 301 301 301 301 301 301 300 300 300 299 299 299 299 299
312 315 316 314 314 314 316 317 320 321 321 320 321 321 320 321 320 319 317 314 306 305 305 305 304 304 304 304 303 303 303 302 301 300 300 299 299 299 298 299 300 300 300 300 300 300 300 300 299 299 299 298 298 298
310 310 313 312 311 313 319 322 322 322 320 320 320 319 319 318 318 317 317 314 307 307 307 306 305 305 304 304 303 303 302 302 302 302 301 300 300 299 300 300 300 300 299 298 299 300 300 299 298 298 298 298 298 298
312 312 312 311 315 320 322 323 321 320 321 321 320 318 317 317 316 313 314 314 309 308 307 307 306 305 305 304 304 303 303 302 303 301 301 300 300 300 300 300 300 300 300 300 300 300 300 300 299 298 298 298 298 298
313 313 313 317 322 322 321 322 322 322 322 321 319 319 317 317 316 315 312 312 312 312 313 313 312 309 307 305 303 303 302 303 303 302 301 301 300 300 300 300 300 300 300 300 300 300 299 299 298 299 299 299 298 298
315 316 318 322 321 322 321 323 321 319 319 321 320 318 319 319 318 316 315 314 314 313 311 310 308 307 306 305 303 302 302 302 302 302 301 301 300 300 300 300 300 300 300 300 299 299 299 299 299 299 299 299 299 300

GFSWCAN_850_thetae_072.txt.gz
Theta_e
321 320 320 322 323 323 321 313 308 309 310 309 310 313 313 314 312 312 313 314 317 317 316 315 315 316 315 315 316 315 315 313 312 315 316 317 318 315 315 315 315 317 319 320 319 320 322 313 313 317 315 311 311 310
320 319 319 321 322 322 322 315 308 309 309 309 310 313 314 314 314 313 317 315 315 318 318 315 316 316 316 317 315 314 314 313 312 314 314 315 317 315 316 319 313 318 316 320 318 319 314 313 313 312 310 311 310 309
319 317 318 321 321 322 323 316 308 310 310 309 310 313 314 314 314 315 315 315 316 318 318 316 317 316 315 316 316 316 314 313 313 313 312 314 316 315 319 318 316 314 312 316 315 313 312 313 311 310 310 309 309 308
316 317 318 320 321 322 323 317 308 310 310 309 311 313 313 313 314 314 315 315 316 317 317 317 316 317 316 316 317 316 315 313 314 313 315 316 317 313 316 316 316 315 313 315 315 313 311 311 311 311 310 309 309 308
316 317 319 320 321 322 323 317 308 311 311 311 312 313 313 313 313 314 314 314 316 318 318 317 317 316 317 317 316 316 314 313 312 314 315 316 315 314 314 314 317 313 315 317 319 314 313 312 311 310 310 309 309 309
317 317 318 320 321 321 323 317 308 311 312 312 312 311 311 312 312 314 319 315 316 316 319 319 317 318 317 316 317 317 316 315 315 314 316 313 313 312 317 316 315 314 313 313 314 312 312 311 310 310 310 310 309 309
318 317 319 319 321 321 322 316 308 311 311 311 310 310 311 315 314 316 319 317 315 314 318 317 319 318 317 316 316 316 315 315 315 316 315 315 314 311 312 315 314 315 314 313 313 311 311 310 310 310 310 310 309 309
318 318 317 319 321 321 321 309 308 310 310 309 309 310 312 316 314 316 317 317 315 317 317 319 319 319 319 320 320 317 318 316 316 317 316 316 310 310 312 313 314 313 313 313 312 311 311 311 310 310 310 310 310 310
320 319 317 319 320 320 317 307 308 308 308 308 309 310 316 315 318 318 316 316 315 318 320 320 323 323 318 321 320 319 318 320 318 318 317 315 314 314 315 315 314 314 313 314 313 311 310 311 310 311 311 310 310 309
319 318 318 318 318 315 307 307 308 308 308 309 309 315 320 319 318 316 316 318 318 318 318 320 319 323 320 320 321 320 319 319 319 318 313 315 316 314 315 316 314 313 313 312 313 313 311 310 310 310 311 310 310 309
319 318 318 318 312 308 307 308 308 310 310 310 316 320 319 318 316 318 319 319 318 320 319 318 318 322 319 322 322 319 319 319 319 317 316 315 315 315 315 315 314 313 312 311 312 311 311 310 311 311 311 311 310 309
319 318 313 307 307 307 308 310 310 310 310 313 317 316 315 317 319 320 320 320 319 325 322 322 322 318 320 319 320 318 319 318 317 315 316 316 316 314 315 315 315 314 314 313 312 312 312 312 312 311 311 311 311 309
315 310 308 307 307 308 308 311 311 311 311 311 313 316 318 319 320 322 325 326 326 324 323 321 322 320 317 319 319 319 318 317 314 317 317 315 315 315 315 315 314 314 314 314 314 313 313 313 312 312 311 311 311 310
311 309 308 308 308 308 308 308 310 310 310 313 316 318 320 322 322 325 326 325 324 324 324 323 322 322 320 320 319 320 318 316 315 314 319 316 314 314 314 314 314 313 313 314 314 313 313 312 312 312 312 311 311 311
310 309 308 308 310 310 310 309 308 309 311 314 315 317 319 320 323 324 325 324 324 324 323 322 322 321 321 320 318 316 316 317 317 317 315 315 315 314 314 313 313 313 312 312 312 311 311 311 311 311 311 311 311 310
312 308 308 310 311 311 310 309 309 309 312 313 314 317 317 320 319 323 324 324 323 323 322 322 323 322 321 319 315 315 316 316 314 314 315 315 314 314 314 313 312 311 311 310 309 309 309 309 310 308 308 308 311 310
309 308 311 311 313 315 312 309 309 312 314 315 315 315 314 314 315 316 320 323 324 322 324 321 321 321 317 316 315 315 316 316 314 315 315 315 315 314 312 311 310 308 308 308 307 307 307 306 306 307 309 308 307 308
309 313 312 313 313 313 308 308 312 316 317 316 316 315 316 318 319 321 324 325 323 324 322 322 318 317 317 314 314 315 315 315 315 314 313 314 313 311 310 309 308 307 307 307 307 307 307 307 306 303 304 306 308 305
306 306 307 308 307 307 309 313 314 316 316 316 317 317 319 321 323 324 324 324 323 322 317 316 317 314 312 311 314 315 314 315 315 314 313 312 311 310 309 307 306 305 306 306 306 305 305 306 304 303 301 304 306 303
308 307 307 311 309 308 312 312 315 318 320 320 320 321 323 325 325 325 324 324 323 320 317 318 317 314 313 314 316 315 314 314 312 313 312 310 310 308 307 305 304 305 305 305 305 303 304 305 304 303 302 303 303 305
308 314 316 317 314 311 312 316 317 318 320 322 322 325 323 325 324 323 324 321 320 322 318 317 316 318 318 318 316 315 314 314 313 311 309 308 306 306 305 305 304 303 303 304 304 304 304 304 303 303 304 305 304 305
308 308 309 315 318 316 315 316 316 317 316 317 318 321 321 324 325 325 323 323 323 318 318 318 320 319 318 317 314 314 313 311 309 306 304 304 305 304 304 303 303 304 304 304 304 302 302 302 304 304 304 302 302 303
309 308 309 315 317 316 317 319 320 321 322 323 325 326 327 326 325 323 324 323 320 317 317 316 315 317 317 314 313 312 311 308 306 304 304 304 304 304 303 303 304 304 304 304 302 302 304 304 304 304 303 303 302 302
309 311 316 318 318 317 320 322 323 324 324 326 326 325 326 325 323 322 323 318 317 317 315 315 315 316 314 312 311 309 308 305 304 304 304 304 303 302 303 303 303 303 303 304 304 304 305 304 304 303 302 302 301 301
314 316 316 315 317 320 322 323 323 323 324 324 324 326 325 323 323 323 322 314 317 318 316 315 316 316 314 311 307 306 305 304 304 303 303 302 302 303 303 303 303 303 302 302 303 303 304 303 303 302 302 301 301 301
310 315 316 319 319 320 319 320 322 323 323 322 324 325 324 323 322 323 321 315 316 316 315 315 314 312 308 306 306 305 304 304 303 303 302 302 302 303 303 303 302 302 302 302 302 302 302 302 301 301 301 300 300 301
311 315 315 316 317 318 319 320 319 320 322 323 325 324 321 319 322 321 320 315 315 313 313 312 310 307 306 306 305 304 304 304 304 303 301 301 302 303 303 303 303 302 302 302 302 302 301 301 301 301 300 300 300 299
316 315 317 317 317 317 318 319 319 319 321 324 324 324 322 320 323 321 318 315 311 309 309 307 306 305 305 305 305 304 303 302 302 302 301 301 301 302 302 302 301 301 302 302 301 301 301 301 301 301 300 300 299 299
315 315 315 315 315 314 315 316 316 322 325 323 324 324 323 323 322 320 316 310 308 307 306 306 306 305 305 305 304 304 304 303 302 303 302 302 302 301 301 301 301 301 301 300 300 300 300 300 300 300 300 300 300 300
314 314 314 314 314 314 314 316 321 325 325 324 324 322 322 321 320 319 315 309 308 308 307 307 306 306 305 305 305 304 304 303 303 303 303 302 302 301 301 301 301 301 301 302 301 300 300 300 300 300 300 300 300 301
313 313 313 314 314 315 317 320 323 323 324 324 324 324 322 321 318 318 317 312 309 309 309 309 308 307 307 306 306 305 304 303 303 303 303 302 301 301 301 301 301 301 301 302 302 302 301 301 301 301 301 301 301 301
313 313 314 315 317 323 323 324 325 325 325 324 324 323 321 320 320 319 317 316 312 310 309 309 309 309 308 308 306 306 305 304 304 303 303 302 301 301 301 301 301 301 301 301 302 301 301 301 301 301 301 301 301 302
317 315 314 314 316 323 324 325 325 325 323 323 323 322 321 321 321 321 318 315 315 313 311 310 309 309 309 309 308 307 305 304 303 303 302 302 301 301 301 301 301 301 301 302 302 302 301 301 301 301 301 301 302 302

GFSWCAN_850_thetae_075.txt.gz
Theta_e
324 323 321 320 319 322 322 322 316 308 309 309 309 312 314 314 314 315 319 314 321 319 318 316 317 318 317 318 319 317 317 316 316 318 319 322 322 321 319 321 320 321 323 324 322 323 328 317 316 318 320 317 315 315
323 322 320 318 318 321 322 323 316 308 310 309 309 312 314 314 315 314 320 317 315 320 321 317 317 318 318 319 317 315 317 315 316 318 316 319 320 319 320 322 317 321 319 325 322 324 320 317 317 317 317 316 314 314
322 319 317 317 318 321 322 323 317 308 310 309 310 313 314 314 314 315 318 319 319 320 320 317 317 317 317 317 318 319 317 317 314 316 316 318 319 318 321 321 319 316 316 319 318 317 316 316 314 313 312 313 312 311
316 316 316 317 318 321 322 323 318 308 311 310 310 313 313 313 313 314 319 319 320 319 320 321 318 318 318 317 318 318 318 316 317 316 317 318 320 317 319 319 320 318 317 317 317 316 315 315 314 313 312 312 311 311
314 315 316 318 319 321 321 323 318 308 311 310 311 312 312 312 312 314 318 319 320 322 322 320 319 318 318 318 318 318 318 318 317 317 318 319 318 319 318 318 320 318 319 322 321 317 317 315 314 313 313 312 311 311
315 315 317 318 318 321 321 322 317 309 312 312 312 311 311 312 312 318 321 319 319 320 321 322 320 318 319 318 319 319 318 318 317 317 318 318 317 317 319 321 318 317 317 317 317 316 315 315 314 313 313 312 312 312
319 319 318 318 319 321 321 321 318 309 311 311 310 310 310 312 315 319 321 321 317 319 321 320 320 320 320 319 319 319 319 318 319 317 318 318 318 315 315 318 316 316 316 316 317 316 315 314 313 312 312 312 312 312
318 318 318 317 319 320 321 321 311 309 310 310 309 309 310 316 315 316 318 318 316 320 319 322 323 321 320 321 321 320 319 318 319 319 319 319 316 316 317 316 316 315 316 316 315 315 314 313 312 312 312 312 312 311
320 320 319 318 318 319 319 316 307 309 309 308 309 309 316 316 320 321 318 316 316 321 323 322 325 327 322 321 322 321 320 322 320 320 320 318 319 320 317 316 316 316 317 316 315 315 314 313 313 312 313 312 312 312
319 319 318 316 317 317 315 307 308 308 308 309 310 317 321 321 319 317 319 319 319 320 320 323 323 325 322 323 323 323 321 322 323 321 318 320 320 317 316 316 316 317 316 315 314 315 315 313 312 312 313 312 312 311
319 317 317 316 315 311 309 311 309 309 310 310 316 320 321 319 318 319 320 320 320 323 322 323 323 325 322 324 325 322 323 321 322 321 319 319 318 317 316 316 317 317 315 314 314 314 314 313 312 312 312 312 311 311
318 317 314 311 308 307 307 309 310 310 315 316 320 318 318 318 319 321 322 322 322 326 324 323 323 323 323 323 323 321 321 321 319 317 318 320 318 316 316 315 315 316 315 315 315 314 314 313 313 312 312 312 312 311
310 308 307 307 307 307 307 311 311 311 313 314 316 318 318 320 323 322 326 326 327 325 325 325 325 324 323 322 322 322 321 319 317 318 321 319 317 316 315 315 314 315 315 315 315 315 314 314 313 313 312 312 312 312
310 309 308 307 308 308 308 308 310 310 312 317 317 322 321 322 324 325 326 327 326 324 326 327 326 324 323 323 322 321 320 318 317 317 319 317 317 316 316 315 315 314 314 314 314 314 314 314 314 314 314 314 314 313
312 310 308 308 309 310 310 309 308 308 315 317 316 318 319 318 321 324 325 325 325 325 326 326 325 324 324 323 321 319 318 317 317 318 317 316 317 317 316 314 314 314 313 313 312 311 311 311 311 311 312 312 313 313
314 312 308 309 311 311 310 310 309 311 316 316 316 318 316 318 318 320 324 324 323 324 326 325 324 325 324 321 319 317 317 317 316 316 317 317 317 316 315 314 313 312 311 310 309 309 309 308 309 309 309 309 310 311
311 307 310 310 312 314 314 312 314 315 316 317 317 316 315 316 315 315 316 319 325 325 327 324 324 324 320 319 317 316 317 316 316 316 317 317 316 315 313 311 310 309 308 308 308 308 308 308 308 307 307 307 308 310
310 312 310 312 313 313 313 310 315 317 317 316 316 316 316 317 318 319 321 326 327 325 325 325 320 317 314 313 313 315 315 316 317 316 316 316 315 313 311 310 308 307 307 307 307 307 307 307 307 306 306 305 305 307
307 307 309 309 308 308 312 315 315 317 317 316 317 317 317 318 321 322 323 326 326 325 323 321 315 314 313 313 315 316 316 315 315 315 315 314 313 311 310 308 307 306 306 306 306 306 305 306 307 305 303 304 303 307
309 309 307 308 308 311 314 315 317 319 319 320 319 319 320 321 322 323 325 326 325 324 321 318 318 317 316 315 315 316 316 313 312 314 314 312 310 310 308 306 305 306 305 305 306 306 305 306 306 304 302 304 304 304
308 312 315 316 314 312 315 317 318 318 318 319 320 321 323 324 325 325 327 326 325 324 322 319 318 318 317 319 318 316 315 314 313 311 310 310 308 307 307 306 305 305 305 305 307 305 305 305 306 304 303 303 303 305
311 308 313 313 317 317 318 318 318 318 319 319 320 321 324 326 326 326 326 325 324 323 321 320 322 322 321 319 318 317 316 313 310 307 305 306 307 306 305 305 305 305 305 305 305 305 306 304 305 305 303 302 301 302
311 309 312 314 318 318 317 319 320 320 322 324 324 326 326 327 327 326 326 323 322 321 321 321 320 319 319 318 316 315 313 309 308 306 306 306 306 305 305 305 305 305 305 305 306 305 305 305 305 305 304 304 303 303
309 313 316 318 319 318 319 322 323 323 323 325 326 326 327 328 326 325 325 319 321 320 318 315 316 317 317 316 314 312 309 307 306 306 306 306 305 305 305 305 304 304 305 305 306 306 306 305 304 304 304 303 303 302
313 313 315 315 319 319 321 322 323 324 325 326 326 326 327 326 326 325 324 319 318 318 318 316 317 317 315 313 310 308 307 307 306 306 306 305 304 305 305 304 304 304 304 304 304 305 305 304 304 303 302 301 302 302
316 316 319 318 319 320 321 321 323 325 323 323 326 326 326 322 322 324 323 320 319 319 317 317 317 316 312 309 308 307 307 306 306 305 304 304 305 305 305 305 304 304 304 304 303 303 303 303 302 302 303 302 301 302
314 316 316 316 318 319 320 320 321 322 323 324 326 325 324 323 323 323 320 319 318 318 317 315 313 310 309 308 307 306 306 306 306 305 304 304 304 305 305 305 305 304 304 303 303 303 303 302 302 302 302 302 301 301
317 316 317 316 317 317 318 320 321 321 321 323 323 326 325 324 324 322 320 318 315 313 312 311 309 308 308 307 306 305 305 304 304 304 303 303 304 304 305 304 303 302 304 303 303 303 303 303 302 302 302 302 302 301
317 317 316 317 317 317 317 318 319 319 325 323 325 326 324 324 323 320 317 313 311 310 308 308 307 307 307 306 306 306 305 304 305 305 305 304 304 304 304 303 302 303 303 301 300 301 301 301 302 302 302 302 302 302
317 316 316 316 317 317 316 316 317 322 324 323 325 325 324 323 322 319 315 312 310 310 309 308 307 307 307 307 306 306 305 305 305 306 305 305 305 304 303 303 303 303 304 304 303 302 301 301 301 302 303 303 303 303
316 315 316 316 316 315 316 317 320 322 323 324 326 325 324 323 321 320 316 313 312 311 311 310 309 309 308 308 308 307 306 305 305 305 305 304 304 303 303 303 303 303 304 304 304 304 304 303 303 303 303 303 303 303
316 316 316 317 318 319 322 322 325 326 326 326 325 324 324 322 322 321 320 317 313 313 312 312 311 311 310 310 309 309 307 307 306 305 304 304 304 304 303 303 303 304 304 304 304 304 303 303 303 303 303 303 303 303
318 316 315 316 317 318 323 325 326 326 326 325 325 323 323 322 322 322 321 320 318 316 314 313 312 312 312 311 310 310 308 307 307 305 304 303 303 303 303 303 303 303 303 304 304 304 304 303 303 303 303 303 303 303

GFSWCAN_850_thetae_078.txt.gz
Theta_e
325 325 324 322 320 319 319 322 323 316 308 310 309 310 313 313 313 319 323 315 323 324 321 318 318 319 318 319 321 319 318 318 318 319 321 327 323 323 321 322 324 322 325 326 321 325 328 319 318 319 322 319 318 318
324 323 323 322 320 317 318 322 323 316 308 310 309 310 313 313 314 315 323 321 316 322 323 319 317 318 319 320 320 317 319 318 318 319 319 321 322 320 321 324 318 323 321 328 323 327 322 319 320 321 320 318 317 317
321 322 319 316 316 317 319 322 323 318 308 310 309 312 313 314 314 315 320 320 320 320 321 319 317 318 317 318 319 320 321 319 318 317 319 319 322 319 321 321 320 319 317 321 322 321 320 319 318 318 317 318 316 315
314 314 315 316 316 317 319 322 323 318 309 311 310 312 313 313 313 313 321 321 321 322 321 322 321 318 318 317 318 320 320 318 319 317 317 320 321 319 321 320 323 321 319 318 319 317 317 316 317 315 314 314 314 313
317 315 314 315 316 318 320 321 323 316 309 311 311 312 312 311 311 314 316 321 321 324 326 323 320 320 319 318 318 319 319 319 319 319 319 320 319 320 319 319 322 319 320 324 324 318 319 317 316 316 315 313 313 312
319 318 315 315 316 317 320 321 322 313 310 312 312 311 311 311 314 317 322 320 320 320 322 323 323 321 319 320 319 320 320 319 319 319 319 319 319 319 320 322 319 319 318 318 319 318 318 317 317 316 315 315 313 313
319 318 319 318 316 316 320 321 321 313 310 311 311 310 310 310 315 320 323 323 319 318 323 324 322 321 321 319 320 320 320 320 319 319 319 319 319 318 319 321 317 317 317 317 318 318 318 318 316 316 315 315 313 313
319 319 318 317 316 317 320 321 321 312 310 310 310 309 310 314 315 317 317 317 317 321 322 324 325 324 321 321 321 320 320 320 320 319 320 321 319 318 321 318 317 316 316 317 317 317 316 316 315 314 314 314 314 313
319 319 319 318 317 318 319 319 314 309 309 309 309 309 314 316 321 322 321 319 316 322 325 323 326 326 322 322 321 322 321 324 321 322 322 321 322 319 319 317 317 316 316 317 317 317 316 316 315 314 314 313 313 313
320 319 319 318 317 317 317 313 307 308 308 309 309 316 322 322 320 319 321 321 321 322 322 325 323 327 323 323 323 324 324 324 325 323 321 322 323 319 318 318 318 317 316 317 317 316 316 316 315 314 314 314 313 313
318 317 317 316 316 315 308 309 310 310 309 310 317 321 322 319 319 321 321 321 322 324 323 323 323 325 324 325 327 324 324 324 325 324 322 323 322 318 318 318 316 317 316 316 317 316 316 314 313 312 312 313 313 313
315 314 312 311 311 312 312 310 309 310 317 318 319 321 320 320 319 322 323 322 324 326 325 324 324 323 324 324 325 323 323 323 323 319 320 321 319 318 317 316 315 316 315 315 316 315 315 314 315 314 314 314 313 313
308 307 306 306 307 307 309 310 311 313 312 317 317 319 319 320 322 323 324 326 327 325 325 324 326 326 324 325 325 324 323 322 319 320 325 319 317 318 317 316 315 314 315 315 316 315 315 316 314 315 314 315 314 314
309 309 308 307 307 308 307 308 310 310 314 319 319 316 320 322 323 324 327 328 326 326 325 326 326 327 324 323 324 322 322 320 320 320 320 319 318 318 317 316 314 315 314 315 314 315 314 313 313 313 314 314 313 313
312 310 309 308 309 309 310 309 308 308 317 318 317 317 320 318 319 322 325 323 324 324 324 328 326 325 325 325 323 320 319 319 319 318 318 318 317 317 318 316 314 314 313 312 312 311 311 310 310 309 309 310 310 312
314 314 309 309 311 312 310 310 309 312 316 317 317 318 318 318 319 319 325 324 323 325 327 327 327 327 326 322 319 316 317 318 317 318 318 317 318 317 316 314 313 311 310 310 310 310 310 309 309 309 308 308 308 309
313 312 310 309 312 314 313 314 316 317 317 318 318 317 316 317 317 317 317 317 320 325 328 326 327 326 318 316 317 316 317 318 317 317 318 319 317 315 313 311 310 310 309 309 309 307 307 308 309 308 308 307 308 308
311 311 310 311 312 313 315 312 317 318 318 317 317 316 316 317 317 318 319 323 325 326 327 326 324 324 318 316 318 318 317 317 318 317 318 317 316 314 312 310 309 309 308 308 307 307 308 308 309 308 307 306 306 306
307 308 310 311 310 309 314 316 316 317 318 319 318 317 318 318 318 319 320 327 326 326 325 323 322 320 319 317 318 317 317 317 317 317 317 316 314 312 310 309 308 307 307 308 308 307 307 308 307 305 304 305 306 305
309 309 308 307 307 312 315 316 318 318 319 319 319 319 319 320 321 323 326 325 324 326 325 324 323 320 320 318 317 317 318 315 314 315 316 315 313 312 309 307 307 308 307 307 308 306 306 307 305 305 303 305 305 306
309 311 312 315 315 313 316 317 319 318 318 318 318 319 321 324 323 320 323 325 326 326 325 324 321 320 318 318 318 318 317 317 314 313 311 312 309 308 308 307 307 306 306 306 306 306 307 305 305 304 303 303 304 303
314 312 313 315 316 318 318 317 317 319 319 320 319 320 322 325 325 325 322 326 326 324 324 323 322 322 322 320 319 318 318 314 310 308 306 307 309 308 307 307 306 306 306 306 306 307 307 306 305 305 304 303 302 303
313 312 313 316 317 319 318 319 319 320 321 322 324 325 327 325 321 323 327 326 324 323 324 323 323 320 317 320 318 317 315 311 309 308 307 307 307 307 307 306 306 306 307 306 306 306 306 306 306 306 305 305 305 304
312 314 316 317 318 318 319 320 322 322 322 325 326 325 327 325 326 327 326 323 323 322 322 319 319 319 318 317 316 314 311 309 308 308 308 307 307 307 307 306 305 306 306 306 306 306 306 306 305 305 305 304 304 304
314 312 315 314 319 320 320 321 322 325 325 325 326 327 327 325 328 326 325 322 322 321 319 320 319 318 316 316 313 311 309 309 308 308 308 307 306 307 306 305 305 305 305 306 306 305 305 305 304 304 302 301 302 303
316 316 317 318 318 319 321 322 324 324 324 325 325 326 326 323 323 325 324 321 321 320 319 319 317 317 317 313 310 309 309 308 308 307 306 307 307 307 307 306 306 305 305 305 304 304 304 304 304 304 304 303 302 302
317 316 317 317 318 319 321 320 321 322 322 324 327 327 326 325 325 323 321 320 320 319 318 318 318 317 312 310 309 308 307 307 308 307 306 306 306 307 307 307 307 305 305 305 305 304 304 303 303 303 303 303 302 303
318 317 318 318 317 317 318 319 320 321 322 324 324 326 325 325 325 322 320 320 319 318 316 314 312 311 310 309 308 308 307 307 306 305 305 305 306 306 306 306 305 304 305 304 304 305 304 304 303 303 303 303 303 303
318 319 318 318 318 319 319 319 320 320 325 324 325 325 323 323 322 321 319 317 315 313 312 310 309 309 309 308 307 307 306 306 306 306 306 306 306 306 306 304 302 304 304 302 302 301 302 302 303 303 303 304 303 304
318 318 318 318 318 319 318 318 318 320 324 324 325 325 324 324 322 319 316 314 313 311 310 310 309 309 309 308 308 307 307 307 307 307 307 307 307 306 305 305 305 305 305 305 303 303 303 303 303 303 304 304 304 304
318 318 318 318 318 317 317 316 317 321 323 325 325 324 323 322 321 319 316 314 313 312 311 310 310 309 309 309 308 308 308 307 307 307 306 306 306 305 305 305 305 305 305 306 306 306 305 305 305 305 305 305 304 304
318 318 318 318 317 317 318 321 322 325 323 325 327 326 324 323 322 321 319 316 315 314 313 313 312 312 311 311 310 310 309 308 307 307 306 305 305 305 305 305 305 305 305 305 305 305 305 305 305 305 305 305 305 305
318 317 317 317 317 318 320 322 325 326 327 328 326 326 324 324 323 323 321 320 318 316 315 315 314 313 313 312 312 311 310 309 308 307 306 304 305 305 305 305 305 305 305 305 305 306 305 305 305 305 305 305 305 305

GFSWCAN_850_thetae_081.txt.gz
Theta_e
320 324 324 324 323 322 321 318 319 323 317 309 310 309 313 313 312 317 322 323 317 324 324 319 318 319 319 321 322 319 319 320 318 319 325 327 325 325 322 321 321 323 323 323 321 322 324 320 319 323 322 318 318 319
313 317 323 323 321 318 317 317 321 322 314 309 310 309 312 313 314 314 324 323 320 318 324 321 318 318 319 320 320 318 318 319 318 320 321 323 324 320 321 323 319 319 322 321 322 323 321 319 321 320 319 318 317 317
314 313 314 317 316 316 316 317 321 322 316 309 310 311 313 313 314 317 320 322 320 322 322 321 318 317 318 318 319 320 321 319 318 317 319 320 322 320 321 322 321 319 317 319 319 322 321 319 319 319 319 317 317 316
316 315 316 314 314 316 316 318 321 323 314 310 310 311 313 313 313 313 315 321 321 323 324 321 320 319 318 317 318 320 320 319 319 316 316 319 321 320 321 320 321 321 320 318 319 318 317 318 318 318 316 316 316 315
318 318 318 316 314 315 316 319 321 323 312 311 310 311 313 311 310 311 314 320 321 322 325 325 322 319 319 318 318 319 320 319 320 320 320 319 319 320 320 319 320 319 321 320 320 320 321 318 316 316 314 313 315 313
318 318 320 317 315 315 317 319 321 322 310 311 312 312 311 311 314 315 324 321 320 321 322 326 321 320 319 318 319 319 320 320 320 319 319 320 320 319 319 322 320 319 319 318 319 318 318 318 318 318 316 314 313 313
318 318 317 317 316 317 316 320 321 322 309 311 311 310 310 310 312 320 324 323 320 318 322 325 324 322 320 320 320 320 320 320 320 320 320 319 320 318 319 319 319 317 316 318 318 317 318 318 318 318 317 315 313 313
319 319 318 316 316 315 317 319 320 321 310 311 310 310 309 310 315 317 317 320 318 316 323 325 327 323 321 320 321 321 321 321 320 320 320 321 320 320 320 319 318 317 317 316 317 317 317 318 316 317 316 316 314 313
320 319 319 319 318 317 318 319 320 318 310 310 310 309 310 315 321 322 322 321 318 321 325 325 328 327 322 321 322 321 321 323 322 322 322 321 322 317 318 319 319 317 317 316 316 316 317 317 316 315 315 315 314 313
319 319 319 319 318 317 317 318 312 310 311 309 309 312 321 322 321 318 321 322 321 321 322 325 326 327 324 323 324 324 323 324 325 323 322 322 320 320 318 318 317 318 317 316 315 316 316 316 315 316 315 314 315 314
317 317 316 316 315 316 315 308 308 311 311 309 315 320 323 320 316 321 320 321 322 323 323 322 321 325 324 325 326 323 325 324 325 325 323 323 321 320 318 319 318 317 317 316 316 316 317 316 316 315 314 314 314 314
313 312 312 311 310 309 309 311 310 309 317 318 318 321 320 320 321 321 323 323 323 325 326 325 324 325 325 324 324 323 324 323 324 321 321 319 319 317 319 317 315 316 316 315 316 316 315 315 315 314 314 313 312 313
307 307 307 308 308 309 310 310 309 309 314 314 315 319 320 319 317 321 323 324 326 325 325 325 329 325 324 324 322 323 323 324 319 320 320 317 318 318 318 317 316 315 316 316 315 315 315 315 315 315 314 314 314 314
309 308 307 307 307 307 307 309 310 312 312 319 320 310 320 321 322 323 323 327 323 325 323 325 324 325 324 324 324 322 320 319 319 320 321 320 317 315 315 315 316 315 315 314 314 314 314 313 313 313 313 313 312 313
313 311 310 308 308 309 309 308 308 309 316 320 318 314 320 318 319 321 323 323 321 324 319 322 320 323 324 324 319 318 318 319 319 321 321 317 317 316 317 316 314 313 312 312 312 312 311 311 310 310 310 309 309 309
314 314 313 308 310 312 310 310 309 308 316 317 317 319 319 319 319 320 322 325 323 324 323 322 325 325 325 322 318 318 318 318 319 321 318 317 317 317 316 314 312 311 310 310 309 308 307 308 308 308 309 309 309 308
314 314 312 309 310 313 313 311 312 315 317 318 318 317 316 317 318 318 317 318 324 326 330 325 325 325 319 319 319 317 317 320 318 318 318 317 316 314 313 311 310 309 309 309 307 306 307 308 308 308 308 307 307 307
314 313 310 310 310 312 313 313 317 319 318 318 318 318 317 317 318 317 318 320 326 326 324 325 324 325 324 320 319 318 318 318 318 316 317 317 315 313 311 309 309 309 307 308 308 308 308 308 307 307 305 304 304 305
311 308 311 311 311 310 315 318 316 317 318 319 319 320 319 319 318 321 323 327 326 325 325 323 324 324 321 318 319 319 318 317 318 317 317 316 311 308 309 310 309 308 309 309 308 308 307 306 306 305 304 304 305 305
308 308 308 307 307 310 315 316 317 319 319 319 318 319 320 320 322 322 322 322 321 320 323 325 325 322 322 320 318 318 318 318 316 317 317 315 312 309 307 307 307 308 307 307 306 307 306 304 304 304 304 305 305 305
310 311 311 312 315 315 315 318 318 319 320 320 319 319 320 323 322 322 321 321 320 319 324 324 323 321 320 318 319 318 317 316 314 313 315 314 313 312 310 309 307 307 306 306 307 305 304 304 303 303 303 303 304 305
314 314 313 315 316 316 317 317 317 318 319 320 320 320 321 324 324 321 321 323 324 324 323 323 321 319 319 318 319 319 316 312 310 307 309 309 309 308 307 307 307 307 306 306 306 306 305 305 305 305 305 305 303 304
313 313 313 315 317 316 318 319 319 320 322 321 323 324 326 324 322 321 325 326 325 324 323 323 321 320 320 320 319 317 314 311 309 308 308 308 307 307 307 307 307 307 307 306 306 306 307 306 305 305 306 304 304 304
313 314 317 317 316 317 318 320 320 321 321 322 326 326 323 324 323 322 326 324 324 323 323 321 320 318 319 318 317 313 310 311 309 308 308 308 307 307 306 306 306 306 307 307 306 306 305 306 305 305 304 304 304 304
314 313 315 313 318 320 320 320 321 323 325 325 326 325 323 323 327 327 326 324 322 322 321 320 320 319 318 318 315 312 309 309 309 308 308 307 307 307 306 306 306 307 306 307 307 306 305 305 304 304 303 302 302 303
313 315 314 317 318 318 319 322 323 324 324 324 325 324 324 325 325 327 325 323 322 321 320 320 320 318 318 315 312 310 308 309 309 308 307 307 307 307 307 306 305 305 305 305 305 304 304 304 304 304 304 303 303 303
315 317 317 317 318 319 321 321 320 322 323 324 329 327 327 327 326 323 322 321 320 319 319 319 317 318 315 311 310 309 308 308 308 308 307 306 307 307 308 308 306 305 305 305 305 304 304 304 304 304 303 303 303 303
317 318 319 318 319 318 319 320 320 321 322 325 325 327 325 325 326 322 321 321 319 317 318 319 319 318 311 310 309 308 308 308 307 306 306 306 307 307 307 307 306 305 305 305 305 305 305 304 304 303 303 303 303 303
316 318 318 320 319 319 320 321 321 320 321 323 328 327 324 323 323 321 320 319 320 319 317 312 311 310 309 309 308 308 307 306 306 306 306 306 306 306 306 305 301 303 303 302 303 303 304 304 304 303 304 304 304 304
316 317 319 320 321 319 318 318 319 320 323 324 325 322 321 323 323 319 317 315 314 314 312 310 310 310 309 308 308 307 307 307 307 307 307 307 307 306 306 305 305 305 305 304 304 304 304 303 303 303 305 305 304 304
318 318 319 319 319 318 318 318 318 319 324 325 325 323 325 323 320 317 315 314 313 312 311 310 310 309 309 309 308 308 307 307 307 308 307 307 307 306 306 306 306 306 306 306 305 305 305 305 305 305 305 305 305 305
318 319 320 321 319 318 318 318 319 326 326 324 321 319 322 323 322 319 316 315 314 313 312 311 311 310 310 310 309 309 309 308 307 307 307 306 306 305 305 305 305 305 306 306 306 306 306 305 306 305 305 305 305 305
319 319 319 319 319 319 318 321 326 326 324 322 321 322 325 324 323 321 318 318 319 317 316 314 314 313 312 312 311 311 310 309 308 308 307 306 306 305 305 305 305 306 306 306 306 306 306 306 305 306 305 305 305 305

GFSWCAN_850_thetae_084.txt.gz
Theta_e
315 314 313 321 323 323 322 320 318 319 322 314 309 309 310 311 312 315 322 322 319 319 322 319 318 319 321 320 314 317 315 318 313 314 317 313 312 315 313 319 319 318 314 311 314 316 318 320 319 319 317 318 322 322
316 315 313 313 320 321 317 316 317 320 322 313 309 309 311 312 313 315 323 321 320 315 322 320 318 318 319 320 318 317 319 318 316 314 315 314 314 315 314 314 315 313 316 315 316 316 318 320 320 318 317 318 319 320
317 317 315 314 313 314 315 316 317 320 322 313 310 309 312 313 313 318 320 319 318 322 320 320 320 317 317 318 319 320 319 319 317 316 316 314 317 312 315 314 317 316 316 312 314 319 319 320 320 319 317 316 316 317
318 317 317 316 316 314 315 316 317 321 322 310 310 310 313 312 312 313 315 320 322 322 323 320 319 319 317 317 317 320 320 319 319 316 314 311 315 316 314 314 314 316 316 313 313 315 317 319 319 319 318 316 316 315
319 318 317 319 318 314 314 315 319 321 322 310 311 310 312 311 310 311 312 320 321 321 322 324 323 319 318 317 318 318 319 319 319 319 314 314 317 315 315 313 313 317 314 314 314 318 317 317 318 318 318 318 317 315
318 317 317 317 318 315 314 317 319 322 322 310 311 312 311 310 312 316 320 320 320 320 318 319 323 319 319 318 319 319 320 319 319 319 317 319 320 317 313 310 317 318 318 319 319 318 318 318 318 318 317 316 316 315
321 319 317 316 315 317 316 317 319 321 321 310 311 311 310 309 310 320 323 322 320 319 318 322 322 320 319 318 319 319 319 320 319 319 319 318 319 318 311 310 317 318 316 318 318 318 317 318 318 318 318 316 314 314
320 320 319 317 316 314 314 317 318 320 316 310 311 310 309 309 311 313 316 321 320 316 322 320 320 320 320 319 319 320 320 320 319 319 319 319 319 318 313 316 317 317 317 317 317 317 316 317 317 317 317 317 317 314
318 318 318 318 318 317 316 316 319 320 314 311 310 309 309 313 320 322 320 319 319 316 324 323 320 323 321 320 320 320 321 317 322 317 318 319 313 313 314 317 318 317 317 317 316 316 315 316 317 317 316 316 316 313
318 317 318 318 318 317 317 318 319 320 311 310 310 310 321 321 321 319 320 320 320 318 319 321 325 323 322 321 321 321 322 318 319 319 321 315 315 319 319 318 316 317 317 316 316 315 316 316 316 316 315 315 315 315
314 315 315 316 316 316 316 314 311 311 312 312 313 320 321 321 318 320 319 320 320 320 321 322 320 320 324 320 321 323 321 319 316 317 318 311 317 318 318 319 318 318 318 317 315 315 315 315 315 315 315 315 315 315
313 312 310 310 312 312 310 310 311 310 313 317 318 319 320 318 319 319 317 320 320 320 323 322 322 320 325 324 322 322 322 321 322 320 320 316 316 318 319 319 319 317 316 315 315 315 316 315 315 315 314 314 313 314
307 308 309 309 311 311 311 311 309 309 311 314 315 317 321 319 314 318 319 320 321 323 324 326 324 325 323 321 319 318 322 323 318 319 317 314 317 317 316 316 316 316 316 316 316 315 315 315 315 315 314 312 313 312
311 308 307 307 307 307 308 309 310 312 314 317 320 311 315 317 318 317 318 320 322 324 324 320 322 324 323 320 318 320 319 317 320 319 317 315 317 315 315 315 315 315 315 315 314 313 313 313 313 312 312 312 312 312
313 310 310 308 308 308 308 308 308 310 311 318 319 312 316 317 319 320 320 321 322 322 321 322 320 323 321 320 318 318 319 319 316 314 314 317 316 316 316 315 313 312 311 311 311 311 310 310 310 310 309 309 309 309
314 314 314 311 310 311 311 309 309 308 310 316 317 317 318 317 317 317 318 322 321 320 320 318 319 322 322 320 318 319 317 315 313 315 317 316 316 317 314 312 311 310 309 309 308 307 306 307 308 308 308 308 309 309
314 314 314 310 309 312 312 310 309 309 313 317 317 316 316 316 316 316 318 321 322 320 321 321 322 321 317 317 318 316 314 312 317 317 317 316 316 314 312 311 310 308 307 307 307 307 307 307 307 306 306 305 304 304
313 314 313 310 309 310 312 313 316 319 318 318 317 316 315 317 317 318 325 324 324 324 323 320 321 319 317 316 315 313 316 317 318 317 315 316 314 313 311 311 308 307 307 308 308 308 308 307 305 305 304 304 304 304
312 311 310 310 311 312 314 317 314 316 317 317 317 318 319 320 322 323 325 325 324 324 324 323 320 320 317 316 316 317 317 317 318 317 315 310 309 311 309 309 309 309 308 308 308 307 306 304 304 305 305 305 304 304
309 308 309 308 307 307 313 315 317 317 319 319 318 318 318 319 322 322 322 322 322 321 320 321 321 321 321 320 318 318 318 318 317 317 316 310 307 307 308 308 308 308 307 305 306 304 303 303 304 304 304 304 304 304
309 310 310 311 312 313 313 316 318 318 319 320 320 320 321 322 321 321 321 321 320 319 321 322 322 322 322 320 318 317 316 317 317 316 316 314 311 308 308 308 307 306 305 305 303 303 303 304 304 303 303 303 304 304
314 314 313 314 314 315 315 315 316 317 318 318 318 318 319 324 323 322 321 321 321 321 320 322 323 321 319 319 318 318 316 313 313 315 315 313 312 312 311 307 306 306 305 305 304 304 304 305 305 305 305 305 304 304
313 313 312 314 316 316 316 317 318 319 319 320 322 323 322 322 322 321 322 324 325 324 323 323 320 318 318 319 318 314 311 308 307 310 309 311 309 307 307 307 307 306 305 305 306 306 305 305 304 304 304 304 303 304
312 314 316 316 315 314 316 319 320 320 321 319 321 324 321 321 322 319 322 323 324 323 323 321 319 320 319 319 318 315 312 309 308 308 308 307 307 307 306 306 306 306 306 306 306 305 305 306 305 304 304 304 304 304
314 313 313 313 317 318 319 319 319 320 322 322 323 323 322 320 323 323 324 324 324 323 321 320 320 320 319 318 313 310 311 310 308 308 308 307 307 306 306 306 306 307 306 307 306 306 305 304 304 303 302 302 303 303
311 314 314 316 317 316 318 321 322 322 321 323 324 324 324 322 323 325 321 323 323 322 320 319 319 318 319 317 316 311 309 309 309 308 308 307 307 307 306 306 306 306 306 305 305 305 305 304 304 304 303 303 303 303
312 316 317 316 316 317 319 321 320 319 321 323 323 323 323 325 325 322 323 322 322 321 319 319 319 318 318 318 315 309 309 309 309 308 307 307 307 307 307 306 305 305 305 305 305 304 304 304 303 304 303 303 303 303
315 316 318 318 318 318 318 318 319 320 320 325 324 325 324 324 323 322 321 320 319 319 319 318 318 318 315 314 310 309 308 308 308 307 307 307 308 307 307 306 305 305 305 305 305 304 304 304 304 303 303 303 303 303
315 317 318 318 319 319 320 319 319 319 320 322 325 324 322 321 323 322 321 319 316 317 318 319 320 316 310 309 308 308 307 308 307 306 306 306 307 307 307 306 306 305 305 305 305 304 304 304 304 303 304 304 304 304
314 315 316 318 319 320 320 320 319 318 320 324 324 323 323 323 323 320 320 320 319 318 317 314 313 310 309 308 308 308 307 306 306 305 305 305 306 306 306 306 303 303 302 304 304 304 303 303 303 302 303 305 304 304
316 317 316 317 318 319 319 318 318 323 325 324 322 321 320 322 320 317 317 317 316 313 311 310 310 309 309 308 307 307 306 307 307 307 307 307 306 306 306 306 306 306 305 305 305 305 305 305 305 305 305 305 305 304
316 317 317 318 319 319 319 319 319 324 323 322 321 321 321 322 321 318 317 314 313 312 311 310 310 309 309 309 309 308 308 307 307 307 307 307 307 307 306 306 306 306 306 305 306 306 306 305 305 305 305 305 305 305
318 319 319 319 319 319 319 319 324 323 324 323 323 323 321 319 321 318 319 318 317 317 313 312 312 311 310 309 309 309 309 308 307 307 307 307 306 306 305 305 305 305 305 306 306 306 306 306 305 305 305 305 305 305

GFSWCAN_850_thetae_087.txt.gz
Theta_e
314 315 315 315 313 320 323 322 320 318 318 322 310 309 309 311 311 319 322 317 319 319 321 318 318 319 319 317 312 315 314 316 310 314 314 309 311 313 311 316 318 316 311 308 311 314 317 319 318 318 315 318 321 323
315 315 317 316 314 313 319 319 316 316 319 321 310 309 310 312 312 318 322 321 318 317 320 319 318 318 319 319 317 317 317 317 315 312 313 311 312 312 310 312 313 314 314 314 314 313 315 319 318 318 318 320 320 321
314 316 317 317 315 314 313 314 315 316 320 321 310 310 311 312 312 318 320 318 317 317 317 320 319 318 318 318 319 319 318 318 316 316 315 311 314 310 314 313 315 314 314 311 314 317 317 319 317 317 317 317 320 321
317 319 318 317 317 316 315 314 315 317 321 320 309 310 311 312 312 313 319 319 321 321 321 320 319 320 317 317 317 319 320 319 317 316 312 310 313 313 311 312 312 314 312 311 311 313 315 318 319 318 317 316 316 319
318 320 317 317 316 318 315 314 315 318 321 319 310 310 311 312 310 310 312 319 320 321 321 323 320 319 317 317 317 319 319 318 319 317 312 312 314 313 311 310 311 315 312 313 313 315 315 316 318 317 317 316 316 316
319 320 318 317 316 316 315 314 316 319 322 318 310 310 312 310 310 315 316 319 320 320 317 319 323 320 317 317 318 319 319 319 319 318 316 317 319 315 311 308 314 316 318 318 318 318 318 318 318 318 317 316 315 316
320 320 319 317 316 314 315 314 318 318 321 313 311 311 310 309 310 318 322 321 320 320 317 322 321 318 318 318 318 318 319 319 319 318 317 317 318 317 309 307 315 317 317 318 318 318 317 317 317 317 318 318 317 315
318 318 319 318 317 315 313 314 317 317 320 311 311 310 309 309 309 312 320 322 320 318 319 319 318 319 318 318 319 319 319 319 318 318 317 317 317 315 311 314 317 316 316 316 317 318 317 316 316 316 316 317 316 316
316 317 318 318 317 316 314 315 317 318 319 310 310 309 309 313 320 321 317 317 318 316 322 320 318 318 319 319 319 320 320 316 319 316 316 317 310 312 315 317 318 317 317 317 317 316 315 315 314 313 316 316 316 316
315 315 316 318 317 317 316 315 317 318 316 309 309 314 321 319 322 319 319 318 318 317 315 318 322 321 320 319 320 320 320 319 317 315 319 313 313 318 319 319 318 316 317 317 316 315 315 313 315 316 316 315 315 315
312 314 315 315 316 316 316 317 318 315 311 311 313 320 321 321 318 319 319 319 319 318 320 320 321 319 321 318 321 322 319 316 319 315 317 311 314 316 318 318 319 317 317 318 317 315 314 313 314 314 315 314 313 314
311 311 310 312 314 314 313 312 311 312 313 313 318 319 319 318 318 318 316 316 317 318 320 320 321 319 324 322 321 320 319 317 321 319 320 317 313 317 318 317 318 318 317 317 316 315 315 315 315 315 315 314 314 314
307 307 308 310 310 309 311 311 310 309 314 315 316 316 321 318 315 317 317 316 318 321 322 324 322 323 322 320 318 317 320 318 318 319 318 313 315 317 316 316 317 316 316 315 315 315 316 316 314 314 315 314 313 312
312 308 306 307 309 310 309 309 310 311 311 316 319 309 314 316 315 315 315 316 320 323 324 323 322 322 321 319 316 319 316 316 321 320 317 312 317 317 315 315 315 315 315 315 314 314 313 313 312 313 313 313 313 311
314 313 310 308 307 307 308 308 308 310 310 317 318 312 315 316 318 319 318 318 321 323 321 321 320 321 318 316 315 316 319 320 318 316 311 316 317 315 314 315 314 313 312 311 311 311 310 310 310 310 309 309 309 308
314 313 313 313 312 310 311 310 309 308 308 312 316 316 317 315 315 315 316 317 319 322 320 317 316 319 320 315 318 318 319 317 312 311 317 317 316 315 316 312 311 310 309 309 308 307 306 306 307 307 307 307 307 307
314 313 314 313 308 312 312 309 309 309 309 315 316 316 316 316 315 316 316 319 321 320 317 318 320 319 314 315 317 315 314 310 313 316 317 316 315 316 313 311 310 307 306 306 306 306 306 307 307 307 305 304 304 304
313 314 314 313 309 310 312 312 315 318 317 316 316 313 315 315 315 317 319 323 320 321 320 320 319 317 316 316 314 312 315 315 316 317 316 316 316 313 311 311 307 306 307 307 308 308 307 307 305 304 304 304 304 304
312 312 310 310 310 311 312 315 313 314 315 317 317 317 317 317 317 319 322 322 323 321 321 321 317 316 315 315 315 316 316 317 317 316 315 314 311 312 311 308 307 308 308 308 308 308 305 304 304 304 304 304 304 304
311 310 308 308 308 307 310 313 316 316 316 318 317 316 316 317 318 322 323 323 323 323 320 319 317 320 320 321 320 318 316 317 317 316 314 311 311 311 309 308 308 309 309 308 306 304 304 303 304 304 303 303 304 304
310 309 309 308 309 309 310 313 316 318 318 319 319 319 319 321 322 322 320 320 319 318 317 320 320 321 322 322 320 318 318 317 318 317 313 308 307 308 308 308 308 307 306 304 303 303 303 303 304 304 305 304 304 304
313 313 313 313 313 315 314 313 313 315 316 317 317 317 317 321 322 321 321 320 320 320 320 320 320 321 322 319 318 317 317 316 317 316 315 312 308 308 308 308 306 305 304 304 303 303 304 304 304 304 305 304 304 304
313 313 312 313 315 316 315 315 317 318 316 318 319 321 321 320 322 321 321 322 323 323 324 323 323 322 319 318 317 316 315 314 314 315 315 315 311 310 309 308 306 305 305 304 305 305 304 304 304 304 303 303 303 303
312 314 315 315 314 313 315 317 319 319 319 317 317 322 321 320 322 319 319 321 320 322 323 322 320 319 318 317 315 313 311 309 309 311 314 314 312 311 309 308 306 306 305 304 304 305 305 305 304 303 303 304 304 303
313 313 313 311 315 316 317 317 317 316 320 320 323 323 322 321 319 323 320 322 324 323 321 319 318 318 318 315 312 310 308 308 308 308 308 308 307 307 307 306 306 306 305 305 305 305 305 304 304 303 302 302 302 303
311 314 312 313 314 314 318 320 320 321 322 323 322 323 322 318 321 323 319 323 324 323 322 321 320 319 319 319 316 311 311 310 308 308 307 307 307 306 306 306 306 306 305 305 306 305 305 304 304 304 303 303 303 302
312 315 315 314 315 316 316 319 319 318 320 322 322 323 322 324 323 320 322 321 322 322 321 319 318 317 318 318 313 311 310 309 308 308 308 307 307 307 306 306 306 306 305 305 305 305 304 304 303 304 303 303 303 302
313 315 314 316 316 317 317 317 317 317 320 322 321 321 324 323 321 322 321 320 320 321 321 319 319 316 316 316 317 316 312 309 309 309 308 307 306 307 307 306 306 305 305 305 304 304 303 303 303 303 303 302 303 303
314 315 315 315 316 317 318 317 317 318 319 322 322 323 322 322 322 323 322 318 317 319 319 319 320 319 319 319 318 316 309 308 308 307 306 307 307 307 307 307 307 305 305 305 305 304 304 304 304 303 303 303 304 304
313 313 315 315 316 317 319 319 319 319 318 320 321 322 323 322 323 321 321 317 315 315 315 316 317 319 319 315 312 309 308 308 307 307 307 306 306 306 306 306 306 305 305 305 305 304 304 304 303 303 303 303 303 304
314 314 314 314 314 315 317 318 318 318 323 324 323 322 321 320 319 320 320 318 317 317 317 317 317 317 314 310 309 308 307 307 307 306 306 306 306 306 306 306 306 303 304 304 305 305 305 304 304 304 304 304 305 304
314 314 314 314 316 317 318 318 319 320 322 321 321 321 321 322 320 318 318 317 318 319 318 314 312 313 312 310 309 308 308 307 307 307 307 307 306 306 306 306 306 304 305 305 305 305 305 305 305 305 305 305 305 305
315 315 316 317 317 317 319 321 323 323 323 323 323 323 320 320 321 319 317 315 314 312 311 310 309 309 309 308 309 309 309 308 307 307 307 307 307 307 306 306 306 305 305 305 305 306 306 306 305 305 305 305 305 305

GFSWCAN_850_thetae_090.txt.gz
Theta_e
312 314 316 315 316 315 312 321 322 321 318 317 321 310 309 310 311 317 319 316 319 319 320 318 318 317 317 315 312 314 313 314 309 314 313 308 310 311 311 315 317 312 310 307 310 313 315 317 317 318 315 318 322 324
312 315 317 316 316 316 314 313 319 317 316 317 321 310 309 311 312 317 321 320 318 318 319 318 318 319 320 319 317 315 315 315 313 311 311 308 310 310 307 309 311 313 313 313 311 312 312 318 318 317 317 318 320 324
314 317 318 317 316 316 314 313 313 315 315 319 320 310 309 312 312 317 321 320 316 316 317 319 318 317 318 318 318 317 317 316 315 316 314 309 313 308 313 311 313 312 312 313 314 315 317 318 317 317 317 318 319 321
316 317 318 319 317 316 316 315 313 314 315 320 317 310 310 312 312 315 319 319 319 317 318 320 320 320 317 317 317 318 319 318 316 316 312 309 312 311 310 311 311 312 311 310 311 312 316 318 319 318 317 317 318 320
317 317 319 318 316 315 316 315 313 315 317 321 312 310 310 312 311 311 314 318 318 320 319 322 320 319 317 317 317 317 319 319 317 316 311 312 312 311 309 309 310 313 311 311 312 315 316 316 318 318 317 317 317 317
316 316 319 318 316 315 314 315 314 315 319 321 310 310 311 311 310 311 312 314 319 320 318 318 321 318 317 317 317 318 318 318 318 318 315 315 317 314 311 307 313 316 316 316 316 318 316 317 317 317 317 316 316 316
316 316 318 319 317 316 314 315 314 317 319 320 310 311 310 309 309 315 320 319 319 319 318 319 320 318 317 318 318 318 319 319 319 317 316 316 316 315 307 307 314 316 316 317 317 318 317 318 317 316 317 317 317 316
314 315 316 318 317 316 314 313 316 317 318 317 310 310 309 309 309 313 321 322 319 318 317 318 318 318 317 317 317 318 318 319 318 317 316 316 315 313 310 313 316 316 316 316 318 317 317 316 316 315 316 315 316 316
314 315 316 318 317 315 313 313 315 317 319 312 310 310 309 312 319 317 316 316 319 317 319 319 316 317 317 317 319 319 319 315 317 314 314 315 309 311 314 316 317 317 316 316 316 317 317 316 315 314 313 314 316 316
312 314 316 317 317 316 315 314 316 318 316 309 309 311 318 319 322 321 319 318 319 318 317 318 320 320 318 318 317 319 319 316 316 313 317 311 310 316 318 318 318 317 316 316 316 315 315 315 313 313 315 315 315 314
310 310 313 314 315 315 316 315 316 318 311 310 314 320 321 321 318 317 319 318 317 317 318 318 320 319 320 317 317 321 319 316 317 315 317 311 314 314 317 317 317 318 317 317 316 316 315 314 313 313 314 314 313 313
307 310 309 310 312 313 314 313 313 312 312 314 318 319 318 320 317 318 315 315 316 317 318 319 319 319 322 321 321 320 319 316 320 317 320 315 313 317 317 317 317 318 317 317 317 316 314 314 315 314 314 314 314 312
314 306 306 308 309 311 310 309 309 313 313 313 317 318 320 317 314 317 316 316 316 318 320 321 320 322 320 320 317 318 320 319 317 319 319 311 315 316 316 317 318 318 317 317 316 315 315 315 315 314 313 314 313 312
315 312 307 307 308 309 309 308 309 310 310 316 316 309 314 315 315 314 313 314 318 321 322 323 321 320 320 317 315 319 316 315 321 321 316 313 316 316 315 315 315 315 315 315 315 315 314 313 312 312 311 312 312 310
314 313 313 308 307 307 307 307 308 310 310 315 318 313 314 316 316 317 317 316 320 323 321 321 319 320 315 316 313 314 319 321 319 318 313 315 316 316 314 314 314 314 314 313 312 311 310 309 309 309 308 308 308 307
314 313 312 311 309 308 310 309 308 308 308 309 314 316 316 314 314 314 314 315 316 320 321 317 315 317 319 313 316 316 316 316 313 311 315 316 316 314 314 313 312 311 310 309 308 307 306 305 306 306 306 306 305 304
314 313 314 313 310 311 312 309 309 308 308 312 315 314 315 314 314 315 315 316 319 320 316 316 318 318 312 315 316 312 314 311 314 314 316 316 315 315 315 312 311 310 307 306 306 306 306 307 307 306 304 304 304 303
312 313 314 314 309 309 312 312 311 314 314 312 314 312 315 316 315 316 317 319 320 320 319 318 317 317 316 316 313 312 315 315 314 315 316 316 315 315 313 311 309 306 307 307 307 307 307 307 304 304 304 304 304 304
312 313 311 311 310 311 312 313 313 314 315 316 317 317 317 317 316 316 317 320 320 320 319 319 315 315 313 313 316 316 316 315 315 317 316 315 314 313 311 310 306 307 308 308 308 307 306 304 304 304 303 303 304 304
312 312 311 308 309 309 308 311 315 315 315 316 315 315 314 315 315 316 318 322 321 322 320 317 315 320 320 321 321 320 318 316 316 316 315 314 312 311 311 308 307 308 308 307 308 305 303 304 304 303 303 303 304 304
311 309 308 308 308 309 309 312 315 317 317 317 318 318 318 318 321 321 321 321 321 319 316 321 322 322 321 321 321 320 317 317 317 316 314 312 311 311 311 308 308 308 307 307 304 303 303 303 303 304 304 304 304 304
311 310 310 308 310 313 313 312 312 313 314 316 316 316 316 318 320 320 320 319 319 320 320 320 321 320 320 321 321 319 317 316 317 316 315 312 309 308 307 307 307 306 304 303 302 302 303 303 304 304 304 304 303 303
312 313 311 312 314 315 315 315 316 317 315 316 318 318 318 319 320 320 320 320 321 321 321 321 323 323 320 321 319 318 317 317 317 317 317 313 309 307 307 307 307 305 304 303 303 303 304 304 304 303 303 303 303 303
312 313 313 314 313 313 314 315 316 317 317 316 315 321 319 319 321 320 320 319 321 321 323 323 323 322 321 319 318 317 316 316 316 316 316 314 308 307 308 309 307 305 304 302 304 304 304 304 304 303 303 303 303 303
312 312 313 309 314 316 316 316 315 315 317 317 321 320 320 321 321 321 320 319 321 320 321 322 322 322 318 317 317 316 316 314 313 314 315 315 313 310 310 310 308 306 305 304 304 304 304 304 304 304 303 302 302 302
307 313 311 312 313 313 316 320 320 320 319 321 322 322 321 319 321 320 318 322 323 322 322 321 320 319 317 317 316 313 310 309 308 309 311 312 312 311 308 307 307 306 305 305 305 304 304 304 304 304 303 303 303 302
312 314 314 313 313 314 315 317 318 319 321 322 322 323 321 323 322 319 322 322 321 322 322 321 319 318 318 317 316 315 310 309 308 307 307 307 307 307 307 306 306 306 306 305 305 305 305 304 304 304 304 303 302 302
312 313 313 314 315 316 315 316 317 317 318 320 321 320 320 321 320 322 321 320 319 321 322 320 319 320 319 318 317 311 310 310 309 308 307 307 307 307 307 306 306 306 306 305 305 304 304 304 303 303 303 303 302 302
313 314 314 313 315 315 316 317 317 318 318 321 321 320 320 321 321 322 322 321 318 320 321 319 317 316 316 317 316 314 314 311 309 308 308 308 307 307 306 306 307 306 306 305 305 304 304 304 303 303 303 303 303 303
312 313 314 313 313 314 316 317 318 318 318 318 319 321 321 322 321 321 321 321 319 317 319 318 317 316 317 318 317 317 317 317 313 309 308 308 308 307 306 306 306 306 306 305 305 305 304 304 304 304 303 303 303 303
312 312 313 313 312 313 314 315 315 315 316 319 322 321 320 319 318 319 320 320 319 319 318 317 318 317 318 319 318 316 315 311 308 307 307 307 307 307 306 306 306 306 305 305 305 305 304 304 303 302 303 303 303 303
313 312 313 312 314 316 316 317 317 318 321 320 320 320 320 321 321 319 318 318 318 318 316 317 316 315 315 314 313 312 309 308 307 306 306 306 306 306 305 305 306 306 304 303 304 304 305 305 305 305 305 305 305 305
313 313 313 313 314 316 317 320 321 321 321 321 322 322 320 320 320 319 316 314 314 313 312 314 311 311 311 310 311 308 309 310 307 307 307 307 307 306 306 305 305 306 304 304 305 305 305 305 305 305 305 305 305 305

GFSWCAN_850_thetae_093.txt.gz
Theta_e
312 311 312 315 317 317 316 314 314 322 321 320 317 320 309 309 310 313 318 316 320 319 319 316 317 316 316 315 319 315 317 317 317 323 322 323 326 322 322 321 323 320 322 322 320 322 323 319 320 322 321 320 321 326
312 311 313 316 318 317 315 316 313 317 320 315 316 319 309 310 311 313 319 318 317 318 319 318 318 319 319 319 317 314 318 317 316 321 320 317 322 319 317 322 317 325 321 328 321 322 318 318 320 317 317 320 321 322
311 312 316 317 317 318 316 315 314 313 315 315 317 318 309 311 312 314 320 319 317 316 316 318 317 318 318 318 317 318 316 316 315 316 318 317 321 318 320 320 319 318 315 323 323 322 320 320 318 317 317 318 318 321
311 316 317 316 318 317 315 315 315 313 313 315 319 314 309 311 312 314 319 319 317 316 319 319 319 318 317 317 318 318 319 317 315 315 316 319 320 314 319 319 320 318 316 320 321 317 318 319 318 318 317 317 317 318
316 316 315 317 318 316 315 314 315 313 314 316 320 310 309 311 311 311 316 319 317 318 318 321 320 320 317 317 317 316 318 317 316 317 317 318 315 317 314 316 320 316 320 322 324 319 321 320 319 318 318 318 317 317
315 314 314 317 318 317 315 314 315 313 314 318 317 309 309 311 310 310 311 313 316 318 319 321 319 317 316 317 317 318 318 318 318 318 318 315 315 317 321 323 319 317 316 316 319 317 317 317 316 317 317 317 317 317
314 314 315 316 319 317 316 315 314 313 315 319 312 310 310 310 309 314 317 317 316 318 318 319 323 317 316 318 318 318 318 318 318 317 318 319 318 316 319 324 319 316 316 316 316 317 317 317 319 317 317 317 317 316
313 313 315 316 318 317 316 314 313 315 318 318 310 310 309 308 309 312 320 320 318 318 317 323 323 318 317 317 319 318 318 318 317 317 316 320 316 316 323 320 317 316 315 316 317 317 318 317 316 315 315 315 315 315
312 313 316 317 317 316 314 313 314 315 318 316 309 309 308 310 314 313 317 319 319 317 318 321 325 323 316 316 318 318 318 322 317 319 319 319 320 321 322 320 318 317 316 317 317 317 315 316 316 315 313 312 314 316
311 311 314 316 316 315 314 314 315 316 318 309 309 309 315 318 320 316 317 318 318 318 317 321 319 325 317 318 319 322 320 322 325 321 317 321 323 319 318 317 317 317 317 316 316 317 317 316 314 312 313 315 315 314
310 310 311 314 314 314 314 314 316 318 310 309 313 320 319 320 318 317 319 319 317 318 317 318 321 323 318 323 324 322 324 321 326 323 324 323 319 320 317 317 317 318 318 316 316 317 315 315 313 313 313 314 314 313
312 309 308 309 310 313 314 315 315 315 311 314 318 319 319 319 317 320 320 317 319 319 317 319 319 321 321 320 324 321 324 321 325 320 324 321 321 318 316 317 317 317 317 316 315 315 315 314 313 314 314 314 313 313
314 313 307 307 309 310 310 310 311 312 314 316 318 317 319 317 318 320 319 319 320 318 319 320 321 322 320 319 321 323 324 325 320 323 323 320 318 316 316 317 317 316 317 317 316 315 314 314 315 315 313 311 312 312
314 314 311 307 310 310 310 308 310 311 313 315 316 317 318 319 318 320 318 319 318 320 321 322 321 323 320 322 321 324 321 321 323 323 323 320 318 316 315 316 317 317 316 315 315 315 315 314 313 312 311 310 310 309
314 314 313 309 307 307 307 307 307 310 310 314 317 316 318 317 316 317 316 316 319 321 322 321 321 321 321 321 317 320 321 323 322 323 321 318 315 316 315 315 315 315 314 314 313 311 310 310 309 307 307 306 306 306
313 313 313 312 309 307 308 309 308 308 308 309 314 318 317 316 317 315 316 317 317 322 320 319 322 323 322 321 322 322 322 322 321 319 318 315 316 316 315 314 314 312 311 310 309 307 306 305 306 306 306 304 304 303
313 313 313 313 312 312 311 309 308 308 308 311 314 313 315 315 315 315 314 315 315 320 324 321 322 322 318 322 322 320 322 321 318 316 315 316 316 315 314 313 311 310 309 306 306 306 307 307 307 304 304 303 304 304
311 312 314 313 309 310 312 311 310 312 313 312 313 313 314 315 316 315 315 318 319 320 319 323 318 323 324 323 323 321 318 317 315 315 316 316 315 315 314 312 310 307 306 306 307 307 307 306 304 304 303 303 304 304
311 313 312 312 311 311 311 313 313 313 315 316 316 316 317 316 316 315 316 316 319 320 319 320 322 323 323 319 320 320 318 317 316 314 316 315 315 314 312 311 308 306 307 307 307 307 305 304 304 303 303 303 304 303
312 312 311 309 310 309 309 310 313 315 315 315 314 314 313 314 314 315 315 318 319 319 321 323 324 322 321 320 320 320 320 317 315 316 315 315 314 312 311 309 306 307 307 307 307 307 303 304 304 302 303 303 303 304
311 310 309 309 308 308 309 310 313 315 317 317 317 317 318 316 317 319 319 319 321 323 324 322 321 320 321 321 321 321 320 318 316 317 315 314 313 311 310 307 306 307 308 307 307 304 304 305 303 304 304 304 303 303
310 309 309 309 308 310 312 312 312 313 313 316 315 316 317 320 321 320 319 321 322 322 321 321 320 321 321 320 320 320 320 317 316 316 315 313 311 310 310 307 307 307 306 306 304 303 303 302 303 304 303 303 303 303
311 311 312 312 312 313 314 313 315 316 318 317 317 319 320 320 320 318 322 321 321 320 320 320 321 320 321 321 321 320 317 316 316 316 315 313 311 310 308 306 307 306 305 303 302 303 303 303 303 303 303 303 303 304
312 312 312 312 312 312 314 315 315 316 317 318 320 321 322 321 320 322 324 323 321 320 321 321 320 321 322 320 320 318 317 316 317 316 316 314 312 308 307 306 307 305 304 303 303 303 304 304 303 303 303 303 303 303
312 312 312 310 314 315 316 317 317 319 320 321 321 322 322 321 323 322 324 323 321 320 320 321 322 322 321 319 318 317 317 316 316 316 316 316 312 308 307 307 307 305 304 303 303 303 303 303 304 304 304 303 303 302
309 311 311 313 314 315 316 318 319 319 320 321 321 320 320 321 322 324 323 323 321 322 321 321 321 322 321 319 318 317 317 316 315 315 315 315 314 311 308 308 308 306 305 304 304 304 304 304 304 304 304 303 302 302
311 314 314 313 313 314 315 316 316 320 320 321 319 321 324 324 325 323 322 322 320 320 322 321 321 321 320 318 317 317 315 312 310 308 308 313 314 314 309 308 307 306 306 305 304 304 304 304 304 304 305 304 303 303
311 313 315 314 315 315 316 317 319 319 319 319 321 323 323 323 324 321 321 321 320 319 321 321 320 320 319 318 317 315 312 310 308 307 307 307 308 308 309 309 306 306 306 306 305 304 304 304 304 304 303 303 303 302
312 314 313 314 315 316 317 318 319 318 317 319 321 323 322 320 321 321 321 321 320 320 321 320 319 319 318 317 316 316 313 310 309 308 307 308 307 307 307 307 306 306 306 306 306 305 304 304 304 303 303 303 303 303
313 313 314 314 315 316 316 317 318 318 317 316 317 319 320 320 319 319 320 321 320 321 320 320 317 315 317 317 317 315 311 310 310 309 308 308 308 308 307 307 306 306 306 306 306 305 305 304 304 304 304 303 303 303
312 312 313 313 313 313 313 314 313 313 313 315 318 320 320 320 319 318 318 318 318 319 320 320 319 317 316 316 317 317 316 315 315 314 313 309 308 308 307 306 306 306 305 305 305 305 305 305 304 304 304 303 303 303
312 313 314 315 315 315 314 315 316 317 320 320 321 319 319 321 322 319 318 318 316 318 318 317 315 317 317 316 314 310 309 309 310 308 307 307 307 306 306 306 306 306 306 303 305 305 305 304 303 303 303 304 304 304
313 313 313 313 314 316 317 320 322 322 322 323 323 321 320 320 321 319 318 315 315 315 317 316 315 313 311 310 309 309 309 308 307 307 306 306 306 306 306 306 305 305 306 305 303 304 304 305 305 305 305 305 305 305

GFSWCAN_850_thetae_096.txt.gz
Theta_e
320 315 313 313 313 314 317 317 317 314 320 321 320 318 316 309 310 310 320 316 321 323 322 319 318 320 319 319 321 320 320 320 320 321 322 325 325 325 325 325 324 323 324 324 324 324 325 322 323 325 326 324 325 329
318 314 313 312 314 317 317 317 317 316 313 320 317 317 315 309 310 310 320 317 317 322 323 319 320 319 320 321 320 319 322 320 320 321 322 323 322 323 324 325 323 327 323 326 323 325 323 323 323 322 323 323 324 326
313 311 312 314 317 316 318 318 316 316 313 316 316 317 314 309 311 311 316 319 317 321 321 320 320 319 319 319 319 320 320 321 320 321 321 321 322 320 320 320 320 324 321 325 323 322 322 323 322 322 322 321 321 324
312 311 314 316 315 318 318 317 316 316 313 313 315 319 312 309 311 311 317 319 319 320 321 321 319 319 317 317 319 319 320 318 320 320 320 321 321 320 322 323 321 320 321 322 323 322 323 323 322 321 320 320 319 322
311 314 316 315 314 318 317 316 315 316 314 313 316 319 310 310 311 311 315 319 318 322 320 321 321 320 317 319 319 318 319 319 319 320 320 321 320 320 320 321 321 321 321 322 322 320 319 320 320 321 320 320 320 320
314 315 314 314 315 318 317 315 315 316 313 314 318 314 309 310 311 310 316 315 318 317 321 320 321 320 318 319 319 320 319 319 319 319 320 319 320 320 322 324 322 321 320 320 321 321 320 322 321 321 320 321 320 320
314 313 313 315 315 318 317 316 315 315 313 314 318 310 309 310 310 316 318 319 315 316 322 320 323 319 319 320 320 320 320 320 321 321 320 321 321 319 322 326 321 320 320 321 320 320 321 321 321 320 320 320 318 319
314 312 313 316 316 316 316 316 315 313 313 318 314 309 310 309 309 311 320 318 317 320 321 324 325 320 319 320 321 321 321 321 321 322 321 322 322 321 326 324 323 321 320 320 320 320 321 321 321 321 320 318 318 317
313 311 312 315 316 316 315 314 313 315 317 317 309 309 308 308 314 317 316 320 318 320 320 322 327 325 319 321 322 321 321 324 322 322 323 322 325 329 325 324 323 322 321 321 320 320 319 320 320 319 318 317 316 316
313 310 310 314 315 315 314 313 314 315 317 311 309 309 314 317 316 314 316 320 321 320 319 322 324 325 320 321 322 323 323 325 326 325 322 325 328 324 324 324 323 322 321 321 321 320 319 319 318 318 317 316 315 316
313 308 309 310 313 314 314 314 315 316 314 308 311 319 319 319 318 320 320 319 318 319 320 319 322 325 321 324 324 324 325 325 326 327 326 328 326 325 323 323 323 322 321 320 320 319 319 319 318 317 316 316 316 316
313 310 306 307 308 311 314 314 316 315 309 313 319 319 319 319 320 320 319 319 319 319 319 320 321 324 322 324 324 324 326 326 325 324 325 328 325 324 322 321 321 321 321 320 319 319 318 317 316 316 316 316 316 316
313 313 309 306 309 310 310 314 315 312 314 317 318 318 318 318 319 319 320 319 320 319 320 320 322 325 323 325 324 326 324 325 324 325 327 325 324 322 321 321 321 320 320 319 318 318 318 318 318 318 318 317 316 316
313 314 313 306 310 310 309 311 312 314 314 315 316 315 319 320 320 320 318 318 320 322 322 320 323 322 324 325 324 324 324 325 326 327 326 324 324 322 320 320 320 320 320 319 319 319 319 318 316 314 313 312 312 311
312 313 314 309 308 308 306 307 312 313 313 315 316 318 319 318 319 319 318 320 322 324 324 323 323 323 324 325 325 325 326 325 324 325 324 323 323 321 320 320 320 320 319 319 318 316 315 314 313 311 310 309 309 309
312 313 313 313 309 307 307 309 308 310 309 311 316 319 319 319 319 319 320 321 323 323 323 323 324 324 324 326 326 326 325 325 324 323 322 323 322 321 320 319 319 318 317 316 314 313 312 310 309 309 309 308 308 308
313 313 313 313 310 310 309 309 308 310 311 312 313 313 317 319 319 316 317 319 321 323 326 324 325 325 324 326 326 325 325 322 321 322 322 321 322 321 319 318 317 315 314 313 311 310 310 309 309 308 308 307 307 307
312 312 313 312 311 313 312 311 311 313 313 312 313 313 315 316 317 317 318 321 321 322 323 324 323 324 325 325 324 323 322 322 321 321 321 322 321 319 318 316 315 314 312 310 310 310 310 309 308 308 307 307 307 306
311 312 313 313 309 310 311 312 312 314 316 317 317 316 316 316 316 316 318 320 322 324 323 322 324 324 324 323 322 322 322 322 322 320 320 321 320 318 316 315 313 311 310 310 310 310 309 308 307 306 306 306 306 306
311 311 310 310 310 310 310 311 313 316 317 317 316 316 317 317 318 318 318 320 321 322 323 324 324 322 322 321 321 320 322 323 321 318 319 319 318 316 315 313 310 309 310 311 310 309 307 307 306 306 306 306 306 306
311 311 312 310 309 308 308 311 315 316 317 318 319 319 319 319 319 320 321 321 322 322 323 322 322 321 322 323 323 323 323 321 321 321 320 318 316 314 313 310 309 309 309 309 309 308 306 306 306 306 306 306 305 305
310 309 308 308 308 310 312 312 314 315 316 318 318 319 319 321 322 322 323 321 321 320 321 321 322 321 321 325 324 322 323 322 321 321 319 317 315 313 312 310 309 309 309 309 308 307 306 306 305 305 305 305 304 305
309 310 311 311 312 313 313 315 315 316 317 318 318 320 320 320 322 321 322 322 322 322 322 322 322 325 324 324 324 321 321 321 321 319 317 316 314 313 313 310 309 309 309 308 306 306 306 305 304 305 306 304 305 305
311 312 313 313 313 314 315 316 317 318 318 319 319 320 322 323 321 323 325 323 323 324 323 324 324 324 324 322 323 322 321 320 319 318 317 315 314 313 312 310 309 308 307 307 305 305 305 305 305 304 306 305 305 305
312 312 312 312 315 316 316 316 317 318 319 320 321 321 323 323 324 324 325 323 324 324 325 325 324 323 323 323 323 322 321 319 318 318 317 316 314 313 310 309 309 308 307 306 305 305 305 305 305 306 306 306 305 304
312 313 313 315 316 316 317 319 319 320 320 320 321 321 321 322 323 325 324 324 323 323 324 324 324 323 323 323 322 320 319 318 318 318 318 317 315 312 311 310 309 308 307 306 305 305 305 306 306 306 306 305 303 303
311 315 315 315 315 316 317 317 317 319 320 318 316 319 322 325 324 324 324 324 323 323 324 323 323 323 324 322 320 319 318 318 318 318 317 316 315 313 311 310 309 308 307 307 306 306 306 306 306 306 306 306 305 304
313 314 316 316 316 316 317 318 319 318 318 318 320 322 323 323 325 324 324 323 323 322 324 322 322 322 321 319 317 315 315 314 312 312 312 313 313 312 311 310 309 308 308 307 307 307 307 306 306 306 306 306 305 305
313 314 314 316 316 317 317 318 319 318 318 319 321 321 321 323 323 322 322 321 321 322 323 322 321 320 320 318 316 314 312 311 309 309 309 310 311 312 312 311 310 309 308 308 306 306 307 307 307 306 306 306 305 305
314 314 315 315 316 317 317 317 319 319 319 319 319 319 322 323 321 320 320 321 322 323 323 323 322 320 319 318 316 315 312 309 309 310 309 309 309 308 307 307 307 307 307 308 308 307 306 305 306 306 305 305 305 305
314 314 314 315 315 315 315 315 316 317 316 318 322 322 324 324 322 320 320 319 318 320 320 320 319 318 318 318 317 315 313 311 311 311 310 310 309 309 309 308 307 307 306 307 307 308 307 306 306 306 306 305 305 305
313 314 315 316 317 317 316 316 316 317 321 324 324 323 323 323 323 322 320 318 317 317 316 316 317 315 316 315 316 316 316 315 315 314 313 310 309 307 307 307 307 306 306 306 306 307 308 307 306 306 306 305 305 306
315 314 314 315 316 317 318 320 321 324 324 323 322 321 321 321 322 320 319 315 313 313 315 315 314 314 315 315 312 309 309 309 309 308 307 307 307 306 306 306 306 306 306 307 306 306 306 307 306 306 306 306 306 306

GFSWCAN_850_thetae_099.txt.gz
Theta_e
320 320 317 312 312 312 313 315 317 317 317 314 322 320 318 317 309 309 322 320 325 323 323 321 321 320 319 321 323 322 321 321 322 324 323 325 326 326 325 326 327 327 328 327 327 330 329 324 324 326 330 327 329 331
318 316 314 312 312 313 316 316 317 317 317 314 321 321 318 318 309 310 319 321 317 325 325 322 321 321 321 322 321 321 323 322 323 323 323 325 324 325 323 325 325 327 325 328 326 331 327 325 327 326 326 327 327 328
314 312 312 312 314 316 315 316 318 317 316 314 317 319 316 317 310 310 318 322 320 323 321 321 320 320 319 319 318 321 321 323 320 322 323 323 324 322 325 325 325 323 325 325 326 325 323 323 323 323 324 324 324 325
314 312 312 314 315 315 314 317 316 315 315 314 314 316 317 315 310 311 315 319 321 323 322 321 322 321 320 319 318 319 323 321 322 319 321 323 323 322 323 325 323 322 325 324 325 325 324 323 323 322 322 321 321 323
312 311 314 315 314 314 315 317 316 314 314 314 313 315 318 312 310 311 313 317 321 324 323 322 322 321 319 320 320 320 320 320 320 320 321 323 322 323 321 323 323 322 323 323 323 323 323 322 322 322 321 321 321 321
310 312 314 314 314 315 316 317 316 315 314 313 313 317 317 310 311 311 317 316 319 321 324 324 323 322 319 320 320 320 321 321 321 322 322 322 322 320 323 325 325 323 322 322 323 322 322 322 322 322 321 321 321 321
310 313 313 313 315 316 317 317 317 315 313 313 315 318 311 309 311 316 320 321 318 321 321 320 324 323 321 321 321 321 320 321 322 323 322 323 323 319 323 327 325 323 322 322 323 324 322 323 322 322 321 322 321 320
311 313 312 312 316 317 316 316 316 314 313 313 317 312 309 310 310 312 315 319 314 319 319 321 324 323 321 321 321 322 322 322 323 324 324 323 325 324 326 326 325 324 323 323 323 322 322 323 322 322 322 321 320 320
311 312 312 311 315 316 316 315 314 313 313 317 313 309 309 309 314 316 316 320 316 322 320 320 325 325 321 321 321 323 323 325 325 325 324 325 326 331 327 326 326 325 324 323 323 322 322 323 322 322 321 320 319 319
311 312 311 310 314 315 315 313 314 315 317 311 309 311 314 315 317 315 316 322 319 317 321 324 321 327 320 321 323 324 323 324 327 326 326 327 328 326 327 326 327 325 324 324 323 323 322 322 322 322 320 319 318 317
311 312 311 309 309 313 314 314 314 315 314 308 312 318 320 315 315 319 317 319 320 320 318 317 321 325 322 324 324 323 326 325 326 327 327 330 333 327 328 327 327 325 324 323 323 323 322 321 321 320 319 318 317 317
311 312 312 307 307 310 313 314 315 315 309 314 318 320 320 320 320 320 320 319 320 319 319 318 320 325 323 325 325 326 326 326 326 326 326 330 328 328 326 325 325 325 325 323 322 322 321 321 320 319 318 318 318 317
311 313 313 306 309 310 311 313 315 313 311 317 318 318 321 319 321 320 321 321 320 319 320 318 318 324 325 324 325 326 326 325 325 326 328 329 328 327 325 324 323 323 322 322 321 321 320 319 319 318 318 319 317 317
312 313 313 308 310 310 310 312 313 311 315 316 317 315 319 320 321 321 321 321 319 319 320 320 321 323 322 325 323 324 324 325 326 327 328 328 328 326 324 323 323 322 321 321 320 320 320 321 321 320 318 317 315 315
311 312 313 310 309 309 306 308 312 314 314 315 316 320 320 321 320 320 320 320 321 321 320 320 322 323 324 324 323 324 326 325 325 326 326 329 327 325 324 323 322 321 321 320 320 321 320 319 318 317 315 313 312 311
311 312 313 313 309 308 307 309 313 312 311 311 316 320 319 320 320 320 320 320 323 325 325 324 324 323 323 322 323 323 324 326 325 325 326 328 326 325 323 322 321 321 321 320 320 319 318 317 315 314 311 310 310 310
311 313 313 313 311 308 309 312 310 311 312 314 315 315 317 320 320 320 320 322 324 326 328 325 325 324 323 324 326 324 324 324 323 323 324 326 326 325 323 322 321 320 319 318 318 317 315 313 312 311 310 310 310 310
311 312 312 312 310 310 310 312 313 314 314 314 314 315 315 317 320 319 320 322 323 325 324 323 322 325 324 325 325 325 323 323 323 323 324 326 326 324 322 321 320 319 318 317 315 313 312 311 310 310 310 310 309 309
311 311 311 311 310 311 312 313 314 315 317 317 316 315 316 316 318 319 319 321 323 324 324 324 325 324 324 323 323 323 322 323 324 324 324 326 325 323 321 320 318 317 316 313 312 312 312 311 309 309 309 308 308 308
311 311 312 311 309 311 311 313 313 316 318 318 318 319 319 318 317 318 319 320 322 324 324 325 324 323 322 322 321 321 322 323 323 324 325 324 323 321 319 318 316 314 312 312 312 312 311 309 309 308 308 308 307 307
311 310 309 310 309 311 312 311 316 317 318 319 319 320 320 320 319 319 319 318 320 322 323 322 322 322 321 323 323 322 322 323 323 324 323 323 322 320 318 316 314 312 311 312 312 311 309 309 308 308 308 306 307 307
311 311 311 310 310 312 312 314 315 317 318 319 320 321 321 322 322 322 321 322 322 320 319 320 320 321 321 323 323 325 322 326 326 324 322 322 321 319 317 315 312 311 311 311 311 310 308 308 308 308 307 307 306 306
310 309 312 310 310 313 313 316 317 317 318 319 319 320 321 321 322 324 324 323 322 322 320 320 320 322 322 322 325 327 327 326 324 324 323 321 320 318 316 314 312 311 311 311 310 310 308 308 307 307 307 306 306 307
310 311 313 314 314 316 316 318 318 318 319 319 321 322 323 324 324 323 324 322 321 322 322 322 323 323 324 326 325 325 325 325 323 323 322 320 318 316 315 314 312 311 310 310 309 308 308 307 307 305 307 308 307 307
312 312 313 314 315 316 317 317 318 319 321 321 321 322 324 324 326 325 325 325 324 324 324 326 326 325 324 324 323 322 325 324 323 322 320 318 316 316 315 314 312 311 310 309 308 307 308 307 306 307 307 307 307 307
312 312 315 316 317 318 318 318 319 321 320 321 323 323 322 324 323 324 324 324 323 322 322 323 324 325 324 324 323 323 324 323 322 320 319 317 316 316 315 313 311 310 309 308 307 307 307 307 307 307 308 307 306 305
311 315 316 316 317 317 318 318 319 320 320 321 321 322 322 325 324 324 324 323 323 322 323 323 322 323 324 324 323 323 323 322 321 320 319 318 317 316 314 312 311 310 309 307 307 307 307 307 307 307 307 308 307 306
314 315 317 317 317 317 317 318 319 317 316 316 318 322 323 323 325 322 325 326 325 324 324 323 322 323 323 323 322 321 321 320 320 320 319 318 318 316 314 313 312 310 309 308 308 308 307 307 308 308 307 308 308 307
314 314 315 317 317 318 318 318 318 315 315 318 321 322 322 323 324 324 324 324 324 324 325 323 322 322 322 321 319 319 320 318 317 317 317 316 316 314 313 312 311 310 309 308 307 308 308 308 308 307 308 308 307 307
314 314 315 316 317 317 317 318 319 319 319 319 320 321 323 325 324 323 323 323 324 325 325 325 325 322 321 320 319 317 316 316 314 313 313 312 312 313 313 312 311 310 309 309 308 307 307 307 307 307 307 307 307 307
314 314 315 315 315 316 317 317 317 319 320 320 323 324 324 324 324 323 322 321 321 321 322 322 323 322 321 320 318 317 315 312 312 312 312 311 310 310 310 310 310 309 309 309 309 309 309 307 307 308 308 307 307 306
313 314 315 317 317 317 317 317 318 319 321 324 324 323 323 324 324 322 319 318 318 318 317 317 319 317 318 319 318 317 316 316 314 313 311 311 311 310 310 310 309 309 309 309 308 308 308 309 309 308 308 308 308 307
315 316 316 316 317 318 317 319 320 323 324 324 322 321 321 321 321 321 317 316 316 316 315 315 315 315 316 315 314 314 314 314 314 314 313 312 312 310 309 309 309 308 308 308 307 307 307 308 309 308 308 308 308 307

GFSWCAN_850_thetae_102.txt.gz
Theta_e
319 320 318 317 314 313 312 313 315 316 316 317 317 317 320 319 317 309 318 323 323 327 326 323 321 322 321 322 325 323 322 322 322 324 324 327 327 328 328 328 329 330 329 330 332 334 334 327 327 327 332 329 331 333
317 317 314 313 313 312 313 316 316 316 317 317 317 319 321 319 318 310 311 324 322 324 328 326 322 321 321 323 323 324 325 326 323 325 325 325 325 325 326 326 326 328 329 331 330 335 329 327 329 328 329 329 329 330
315 314 314 312 312 314 315 315 314 317 317 317 316 318 321 318 318 311 313 322 323 319 319 322 323 322 321 320 320 320 323 322 324 322 325 324 326 324 325 325 326 325 326 327 328 330 326 325 325 325 326 326 325 327
317 315 312 312 314 315 314 314 315 316 315 315 314 315 319 316 316 311 310 318 320 323 323 320 319 321 320 320 320 319 322 324 323 322 321 324 324 323 323 327 324 325 326 324 325 326 325 324 323 324 323 322 322 324
317 315 311 313 314 314 314 315 317 317 316 315 313 314 316 317 313 310 310 316 319 323 326 325 322 322 321 320 320 319 320 322 321 321 322 324 323 325 324 323 324 322 323 324 324 325 327 324 324 323 323 322 321 322
316 313 311 313 313 314 314 315 317 316 315 315 314 313 316 316 310 311 317 311 316 321 324 327 324 323 321 320 321 320 321 322 321 322 323 324 324 324 323 325 325 323 323 323 324 324 324 323 324 324 322 322 323 322
315 311 312 313 313 315 316 317 317 317 316 315 313 314 317 311 310 315 319 321 317 321 323 325 325 324 322 320 321 321 321 322 322 323 323 324 325 321 321 326 326 325 324 323 323 325 325 324 324 323 322 322 322 322
314 310 311 313 312 315 317 317 316 316 315 314 313 317 310 309 310 311 316 318 317 320 319 319 324 324 323 321 322 322 322 322 323 324 324 325 327 326 326 325 326 326 324 323 324 324 324 324 323 324 323 323 322 321
310 309 312 312 311 314 316 316 315 314 314 313 317 310 309 309 314 314 315 316 315 321 321 318 321 326 323 321 321 322 323 325 324 325 324 324 326 335 329 327 327 327 326 326 325 324 323 324 324 324 323 322 321 321
308 310 312 310 309 312 315 315 314 314 315 315 309 312 315 313 318 316 315 323 318 318 323 324 320 328 324 321 322 325 323 325 328 328 325 328 330 327 326 328 328 328 326 325 325 324 323 324 324 323 322 321 321 319
308 310 312 310 308 309 314 314 314 315 313 308 313 318 319 315 317 318 317 320 319 316 315 320 322 326 322 324 325 325 325 325 327 329 328 329 330 330 328 327 328 327 327 325 325 324 323 323 322 322 321 320 319 319
308 310 312 312 307 308 312 314 314 315 309 313 316 319 319 316 319 320 321 318 321 320 319 318 318 324 321 325 325 325 328 326 327 325 327 336 328 329 330 327 328 328 326 325 324 323 323 322 322 321 319 319 319 319
309 311 312 312 307 310 311 313 314 315 311 314 317 319 319 319 321 322 322 321 320 319 319 319 320 326 326 325 326 327 328 326 323 328 328 330 329 330 328 326 326 326 326 325 324 323 322 321 320 319 319 320 319 318
308 311 313 313 308 309 309 312 312 314 313 316 317 316 320 321 322 321 322 322 321 320 321 319 319 326 324 324 324 324 323 324 326 327 327 326 331 329 327 326 325 325 324 324 323 321 320 321 321 321 321 320 318 317
308 311 312 313 309 309 306 310 312 313 314 315 316 319 320 320 321 322 322 321 320 321 321 320 318 320 327 325 324 324 323 325 325 325 326 331 330 328 326 325 324 323 322 322 322 322 322 321 320 319 318 317 315 314
309 310 312 313 310 308 306 310 313 313 313 313 315 319 320 321 322 322 321 321 322 321 321 321 324 324 324 325 323 323 323 324 324 328 331 331 329 327 326 325 323 322 322 321 321 321 320 320 319 317 316 313 312 311
309 311 313 313 311 307 308 312 311 311 312 313 316 317 317 319 321 320 321 322 324 325 327 325 324 325 324 325 323 322 323 323 324 327 329 329 328 327 326 324 324 322 322 322 320 319 319 318 317 316 313 311 312 311
311 312 313 312 311 308 311 313 315 314 315 316 316 317 317 317 320 321 320 321 320 325 326 324 323 325 326 324 324 324 322 325 322 328 329 329 328 327 325 324 322 322 321 319 319 318 317 316 314 313 312 312 311 311
310 311 312 311 310 310 314 314 315 316 316 317 316 316 317 317 319 320 321 323 324 324 324 321 321 323 324 324 324 323 324 324 326 326 330 329 328 327 325 323 322 321 320 319 318 316 314 313 312 312 312 311 310 311
310 311 311 311 311 311 311 313 312 316 319 320 319 319 319 318 317 319 319 320 322 319 319 325 323 321 323 322 322 324 324 324 325 327 328 328 327 326 324 323 321 320 319 317 315 313 313 313 311 311 310 310 310 309
310 311 311 310 310 312 313 314 316 317 319 320 320 320 321 320 320 319 319 319 320 322 323 323 323 323 323 322 323 325 324 324 324 324 325 327 325 324 322 321 319 319 316 314 313 312 312 312 311 310 310 309 308 308
311 310 310 310 311 313 315 315 316 318 318 319 319 321 321 322 321 321 321 321 321 320 320 321 321 322 323 324 325 325 324 325 324 324 324 325 324 322 321 320 319 316 313 313 313 313 312 310 310 310 310 309 308 308
311 311 313 313 313 313 313 316 318 317 318 319 319 320 321 322 323 323 324 323 322 322 322 322 321 320 320 321 324 326 327 326 325 322 324 324 323 322 320 319 318 314 313 313 313 312 312 310 310 310 309 308 309 308
311 313 315 315 314 315 317 318 318 318 319 320 320 322 323 323 323 325 326 324 323 323 323 322 323 322 322 323 323 326 327 327 325 323 324 323 322 321 320 319 316 314 313 312 312 312 311 310 309 309 309 309 308 308
312 313 314 312 316 317 318 318 319 319 321 321 322 323 325 325 326 326 325 325 324 325 325 324 324 324 324 324 324 324 323 324 323 324 324 322 321 321 319 318 316 315 313 312 312 311 310 310 309 308 307 308 309 308
312 314 313 316 317 318 318 319 320 320 321 321 322 324 325 326 324 324 327 323 322 321 322 324 324 323 325 325 324 324 323 324 323 324 323 322 321 319 317 317 315 314 312 311 311 310 309 309 308 308 308 308 308 308
315 316 316 316 317 318 319 319 320 321 322 323 322 324 323 323 325 324 321 324 325 323 323 323 323 324 325 324 324 324 323 325 324 323 322 321 318 318 317 317 316 313 312 310 310 309 309 309 309 308 309 309 309 307
315 316 317 318 318 317 318 320 321 320 319 319 320 323 323 323 324 318 319 323 326 325 324 323 323 325 325 324 324 323 323 323 322 321 320 319 317 317 317 317 315 312 311 310 309 308 308 308 308 308 308 308 309 309
315 315 315 317 318 319 319 320 318 316 314 317 321 321 320 320 322 324 325 325 325 325 325 323 323 323 323 323 323 322 322 322 321 320 320 320 319 319 318 316 314 312 311 309 308 308 308 308 308 308 308 308 309 309
314 314 315 317 318 319 318 317 317 318 318 318 320 321 323 325 324 324 323 323 323 323 324 324 324 324 323 321 320 320 321 320 320 319 319 317 318 317 314 313 312 311 311 310 308 308 308 308 308 308 308 308 309 309
314 315 315 316 317 318 318 318 319 320 319 320 320 321 325 324 324 323 320 320 321 321 321 321 321 322 321 321 321 319 317 316 314 314 313 313 315 314 313 313 313 311 311 310 309 309 308 308 308 308 308 308 308 308
314 315 315 317 317 317 318 318 318 319 322 324 323 323 323 324 325 320 318 318 318 318 318 318 318 317 317 318 318 318 316 314 316 313 313 312 311 312 312 312 312 311 310 310 310 310 310 309 309 309 309 309 309 309
315 315 315 316 316 318 319 319 320 323 324 324 322 321 321 321 321 320 318 317 317 317 317 316 316 316 316 316 316 316 316 316 315 313 313 313 311 311 311 310 310 310 310 310 309 309 309 309 309 309 310 310 309 309

GFSWCAN_850_thetae_105.txt.gz
Theta_e
319 318 317 317 316 314 314 313 313 314 316 316 316 317 315 320 318 318 311 316 322 325 325 325 326 325 321 321 326 323 323 322 322 324 325 330 326 325 324 327 332 331 329 331 325 327 332 328 328 327 330 330 331 337
318 318 315 315 314 313 313 313 314 315 314 315 317 317 315 320 319 317 310 318 323 323 320 324 325 324 321 322 323 324 326 326 325 325 327 328 327 323 324 329 325 329 329 332 329 328 323 328 329 329 329 327 327 329
317 317 317 315 313 312 313 315 314 314 314 317 317 317 316 321 319 318 311 321 323 323 319 314 322 323 321 321 320 320 322 324 323 322 326 327 326 325 328 326 328 328 327 329 330 328 329 328 325 325 325 324 324 326
318 317 317 316 312 312 314 315 315 314 316 315 316 316 315 321 318 318 313 316 319 321 325 320 318 320 322 321 319 320 321 324 323 322 323 322 326 323 325 327 325 327 326 324 330 329 325 324 324 324 323 321 321 324
318 317 316 315 312 313 314 314 314 315 317 316 315 314 314 319 316 317 315 312 320 319 324 324 323 322 320 320 320 320 320 322 323 322 322 323 327 326 325 321 323 324 325 323 327 327 326 324 324 323 322 321 322 322
317 317 316 314 312 313 314 316 315 317 316 315 316 313 314 316 316 312 312 313 315 317 322 327 326 322 321 321 320 320 320 321 321 322 323 325 324 324 322 327 324 324 323 323 327 325 324 323 324 323 322 322 322 323
315 317 316 313 311 313 313 316 317 317 317 316 315 313 313 316 313 311 319 320 313 317 322 326 327 324 322 320 321 321 321 322 322 323 324 325 324 322 321 324 325 325 324 323 325 325 324 324 324 324 323 323 322 323
315 315 314 311 311 312 313 316 316 315 316 315 314 313 316 316 313 311 317 318 318 321 322 323 325 324 323 322 321 321 322 321 323 323 324 327 325 326 326 325 325 326 324 324 324 324 325 324 324 323 322 323 322 321
314 313 310 310 311 311 313 315 316 315 315 314 314 316 312 310 310 313 313 315 316 319 323 320 323 329 323 323 321 322 323 326 323 325 324 326 327 331 329 327 326 327 326 325 325 325 324 324 324 324 323 323 322 321
313 310 309 311 311 310 310 314 314 313 313 314 313 310 314 313 318 315 315 319 317 317 322 325 322 329 324 324 323 325 323 326 328 327 326 328 331 328 327 327 327 328 327 325 325 324 324 324 325 323 322 321 320 320
310 308 309 311 311 309 308 312 313 315 315 310 312 317 319 314 317 318 318 322 320 318 316 320 322 326 322 326 326 325 328 327 330 330 330 331 330 328 326 327 327 327 327 325 325 325 324 324 324 322 321 320 319 319
308 308 309 311 311 308 309 312 314 314 310 312 315 318 317 318 317 319 322 319 323 320 317 316 320 323 322 322 327 325 329 329 329 327 330 331 331 329 329 328 329 328 327 326 325 324 323 323 322 321 320 319 319 319
307 308 310 311 312 308 310 312 314 314 310 313 317 317 317 318 318 321 322 323 322 321 319 316 319 321 320 323 325 327 327 328 323 330 330 327 332 331 330 328 328 328 326 325 324 323 323 322 321 320 319 319 319 319
307 309 310 312 312 309 309 311 313 314 312 316 317 316 319 320 320 322 322 322 320 321 320 320 322 327 320 324 326 327 327 325 329 330 329 329 333 329 327 326 326 326 326 325 324 323 322 320 319 319 320 319 319 318
307 308 311 313 312 309 308 308 312 312 314 316 316 317 319 319 320 321 322 321 321 320 322 321 321 326 326 328 326 324 324 325 327 327 326 331 330 328 327 326 326 325 324 324 322 320 320 320 320 320 319 317 317 316
307 308 311 312 311 309 307 308 312 313 314 313 315 318 319 320 322 322 322 322 322 322 322 321 326 326 325 325 325 326 323 325 325 333 333 331 329 327 326 325 325 324 323 322 321 321 321 321 320 319 318 315 314 312
306 309 310 312 312 308 309 312 312 313 313 313 315 315 317 319 319 320 322 322 322 323 325 326 326 325 324 325 325 324 324 324 331 333 332 329 327 326 326 324 324 323 322 322 321 321 320 319 318 317 316 313 312 311
308 310 311 312 310 307 310 313 314 312 314 315 316 317 318 318 319 319 320 321 322 323 321 323 322 324 326 326 325 323 323 328 331 328 329 325 324 325 325 325 323 322 322 321 320 319 318 317 317 316 314 312 312 311
310 311 312 312 309 310 312 313 314 316 316 316 316 316 317 318 317 318 322 321 320 319 319 322 325 325 325 326 325 325 325 327 328 324 325 325 321 322 325 325 322 321 321 320 319 318 318 317 315 313 312 312 311 311
310 311 311 310 309 310 312 313 314 316 317 320 319 319 319 320 319 319 321 321 322 322 320 321 323 322 321 321 321 322 323 324 323 322 323 325 324 325 325 324 322 321 321 320 319 318 316 315 313 312 312 312 310 310
310 310 310 310 311 312 312 314 316 317 318 319 320 321 321 321 321 320 321 322 324 323 321 318 318 319 320 323 321 322 322 325 326 326 327 328 327 325 325 323 322 321 320 319 318 315 314 313 312 312 311 311 310 309
310 310 310 310 310 311 314 315 316 317 318 319 319 320 321 322 322 322 322 322 321 322 323 323 322 321 322 322 322 321 323 324 326 326 328 328 327 326 324 323 321 320 319 317 315 314 313 313 311 311 311 310 309 308
311 310 312 311 313 314 313 315 317 317 318 319 320 321 322 322 321 320 324 323 322 322 322 322 322 324 323 323 323 322 322 325 326 324 325 326 325 323 323 322 320 319 318 315 314 314 313 312 311 311 310 310 309 308
311 312 314 315 314 313 316 318 319 319 319 320 321 322 323 322 322 323 325 323 323 323 323 323 322 323 325 323 321 324 327 326 326 325 325 325 325 324 322 321 319 319 317 314 313 314 313 312 310 310 310 309 309 308
312 311 314 310 316 317 318 319 320 321 321 322 322 323 325 323 327 327 326 325 325 325 325 324 325 325 325 324 325 323 324 325 326 325 324 325 325 324 322 320 320 319 315 313 313 313 312 311 310 309 309 309 309 308
311 313 312 316 317 318 318 319 320 321 321 321 323 322 323 326 325 326 327 323 323 325 325 325 324 323 323 323 323 326 325 325 325 326 324 324 324 322 321 320 320 316 315 313 313 312 311 310 310 309 309 308 308 309
312 314 315 316 317 317 318 319 320 322 322 323 324 324 325 324 326 324 319 320 322 324 324 324 325 322 324 324 322 322 325 324 323 323 324 324 323 322 320 320 318 316 315 313 312 312 310 310 310 309 308 307 308 309
313 315 317 318 319 318 318 319 320 321 319 320 320 323 324 323 322 319 319 321 323 324 325 324 325 325 326 325 325 325 325 325 324 324 323 323 321 319 319 318 317 316 314 312 311 310 309 309 309 309 308 308 309 309
315 316 316 317 317 319 320 320 318 317 318 319 322 323 321 320 319 321 324 324 325 325 323 322 323 324 324 324 324 324 323 323 323 322 321 318 317 318 318 317 317 317 314 311 310 309 309 308 308 308 308 308 308 309
314 314 315 316 318 320 319 317 318 318 318 317 320 317 318 321 323 322 321 321 322 324 323 323 323 323 322 322 321 322 322 322 321 321 320 320 319 318 318 317 315 312 311 311 309 308 308 308 308 308 308 309 309 309
314 315 315 316 317 318 319 318 318 319 319 320 320 319 320 322 320 318 318 318 319 319 319 320 319 320 321 321 320 318 317 316 317 316 316 315 316 316 316 317 315 313 312 310 309 308 308 308 308 308 308 308 308 308
314 314 316 317 317 317 318 319 319 321 322 322 323 321 322 323 322 319 318 317 317 318 318 318 317 316 317 316 316 315 316 315 315 317 317 314 316 314 314 313 312 312 311 310 310 309 309 308 308 308 308 308 308 308
315 315 316 317 318 319 320 320 322 323 323 322 321 322 321 321 321 319 318 317 315 317 316 316 316 316 316 317 317 316 316 316 317 315 312 312 312 312 312 312 312 311 311 311 310 310 310 309 309 309 309 309 309 309

GFSWCAN_850_thetae_108.txt.gz
Theta_e
316 318 318 318 316 316 315 314 313 313 314 315 315 315 316 316 315 319 318 311 317 323 322 319 318 324 321 322 318 320 319 319 316 319 322 322 323 321 321 322 328 329 324 327 321 325 327 326 327 328 328 333 332 331
316 318 317 317 317 315 313 312 313 314 315 314 314 316 317 317 315 319 318 313 320 319 322 320 320 323 321 321 323 323 323 323 322 319 319 321 322 320 318 324 321 326 325 327 327 323 321 326 327 329 329 334 331 337
315 318 317 317 317 315 313 312 314 315 315 314 315 316 316 316 317 319 318 312 319 323 321 316 317 323 323 321 319 319 322 323 322 322 322 319 320 318 322 320 325 324 324 324 323 325 326 326 323 323 322 325 329 330
314 317 318 317 316 315 312 313 314 315 314 315 316 316 315 315 319 319 318 312 318 320 321 321 318 318 321 322 321 319 323 323 322 321 321 314 319 318 318 320 321 321 320 321 323 325 327 324 324 324 321 322 325 327
311 314 318 318 316 314 312 313 314 315 316 316 315 315 314 314 319 319 318 316 312 316 320 321 320 317 319 320 321 319 320 323 323 320 315 315 322 320 317 314 317 321 317 320 323 325 322 323 323 323 322 321 322 325
311 313 315 317 315 313 312 312 315 316 317 316 316 316 313 315 317 316 314 316 311 312 318 322 325 320 320 321 320 319 319 320 321 321 320 323 324 320 315 318 321 322 323 323 327 325 324 323 323 322 321 321 322 322
311 313 313 316 315 312 311 312 315 316 316 316 315 315 313 314 316 312 316 317 312 313 319 322 323 324 321 320 320 320 320 320 321 321 322 323 322 320 314 317 321 324 324 325 324 323 324 323 322 322 322 322 323 323
311 312 313 315 314 311 311 312 315 315 315 315 315 314 313 315 315 315 318 316 316 316 322 318 318 323 322 321 321 320 321 321 321 322 323 323 323 322 320 319 325 324 324 324 324 324 324 324 323 323 322 322 322 322
310 312 313 313 311 310 310 311 314 315 315 315 314 314 315 313 313 315 315 315 318 320 319 318 318 324 323 322 321 321 321 317 321 319 320 323 319 322 321 324 327 323 323 323 324 324 324 324 323 322 323 322 321 322
311 312 314 310 310 310 309 310 314 314 312 314 315 309 309 312 315 316 314 316 316 316 318 321 324 321 323 323 320 321 322 319 322 321 323 318 318 324 325 325 327 326 325 324 324 324 324 324 323 323 322 322 321 320
312 312 310 308 310 310 308 308 314 314 315 314 311 315 318 314 316 318 318 319 320 317 317 319 319 320 322 323 321 324 323 318 321 321 322 322 323 325 327 326 328 328 327 325 325 325 324 324 323 322 321 320 320 319
312 309 308 308 311 310 309 310 313 314 313 311 314 317 317 316 318 316 317 317 319 318 316 316 319 319 322 323 323 323 323 323 325 321 324 322 322 326 327 327 326 327 327 325 325 324 324 324 323 322 320 319 319 319
308 307 307 310 311 311 309 311 313 314 311 312 317 317 317 316 312 317 318 318 318 320 318 315 320 321 322 321 323 320 324 323 322 323 324 319 325 327 327 327 328 327 327 325 324 324 323 323 322 321 319 319 319 319
307 307 308 310 312 309 309 310 313 314 311 315 316 316 315 315 316 317 319 319 319 320 320 315 321 321 320 319 320 323 322 322 323 324 324 321 327 327 328 328 328 327 326 326 324 323 322 321 320 319 319 319 319 318
307 307 308 311 312 309 308 307 312 312 313 316 316 316 317 317 318 319 320 321 321 321 322 317 322 322 322 322 323 323 325 326 322 324 321 324 327 329 328 327 326 327 326 325 323 322 321 320 319 319 319 319 318 318
306 307 309 311 312 309 308 307 312 312 313 314 315 317 317 318 318 320 321 321 321 322 322 321 320 323 323 322 323 323 322 322 320 321 324 324 330 329 327 326 325 326 325 324 323 322 321 319 319 319 319 319 318 317
306 307 310 311 312 308 307 310 313 313 313 314 314 314 315 315 317 319 320 321 319 322 321 322 322 321 319 322 323 321 320 317 329 330 329 327 330 327 326 326 325 325 324 323 322 321 320 320 320 319 318 317 316 314
307 308 310 312 312 307 312 312 312 312 313 313 313 314 314 317 317 319 319 321 322 322 321 323 320 321 321 323 321 318 322 322 326 327 329 330 328 325 324 325 324 324 323 322 321 320 321 320 319 318 317 315 314 312
307 310 311 311 309 308 310 311 313 315 315 315 316 316 317 317 317 318 318 319 321 320 320 319 320 321 318 318 320 323 324 326 328 328 328 326 322 324 325 325 324 323 322 321 321 320 319 318 318 317 316 315 313 311
310 310 311 311 308 311 311 312 314 314 316 317 317 318 319 319 319 319 318 320 320 320 318 320 319 321 321 320 320 321 323 324 327 326 326 324 323 325 325 324 323 322 322 321 321 320 318 317 316 316 315 312 311 310
309 310 310 310 309 310 312 312 314 315 317 318 318 319 319 320 321 321 320 321 322 321 320 319 319 319 319 320 321 322 324 324 322 322 323 325 325 324 326 325 323 322 321 320 319 318 318 317 316 314 313 312 310 310
310 310 310 310 311 311 312 313 314 315 316 317 318 318 320 321 321 321 322 323 323 322 322 321 320 321 319 319 321 321 323 324 324 322 322 324 326 323 325 325 322 321 320 319 319 318 316 316 313 312 312 312 312 310
310 311 311 311 311 312 314 314 315 316 315 317 319 318 318 320 321 321 321 322 322 322 322 322 323 322 321 321 322 322 321 320 321 324 322 325 325 324 323 325 323 322 321 320 319 319 315 313 313 311 311 311 310 309
311 312 312 313 313 311 314 316 317 318 318 317 317 320 320 320 321 322 321 323 322 322 322 323 323 323 323 323 322 323 323 323 321 323 324 323 325 324 324 323 324 323 321 320 319 316 313 312 312 311 311 311 310 309
312 310 313 310 315 315 317 318 318 318 319 318 320 320 319 322 320 321 322 323 323 325 326 325 325 324 323 324 324 324 323 324 324 324 324 325 325 324 324 323 323 323 320 319 317 315 313 313 312 311 311 310 310 309
308 312 311 315 316 317 317 319 319 319 319 320 320 321 322 320 322 324 323 321 322 323 324 324 324 325 325 324 324 324 324 324 325 326 325 325 325 324 324 323 323 322 320 319 317 314 314 314 313 311 310 310 309 308
310 313 314 314 315 317 317 317 318 318 320 321 321 321 322 324 324 322 319 320 321 323 324 323 324 324 324 322 323 323 323 322 322 324 325 325 324 324 323 323 322 319 319 319 316 314 313 312 312 310 310 309 309 309
312 313 315 316 317 317 317 318 319 320 318 319 319 322 323 322 319 319 321 323 323 321 322 323 323 324 324 324 324 326 325 325 325 325 324 323 322 320 322 323 321 320 319 316 314 313 312 312 311 310 310 309 308 307
314 315 316 316 316 318 318 318 317 317 318 319 319 322 320 319 321 321 320 321 322 322 322 322 323 323 324 325 325 324 324 324 324 324 323 318 319 320 322 320 319 318 317 315 313 312 312 311 310 310 309 308 308 308
313 314 315 315 316 320 317 318 319 318 317 319 317 317 319 318 319 319 319 320 321 322 322 320 321 321 321 321 323 323 323 323 322 322 321 318 318 317 317 316 314 314 312 312 314 312 310 309 309 309 309 308 308 308
313 314 315 316 316 319 317 318 318 319 319 319 317 318 320 321 319 317 316 316 317 318 319 319 319 320 320 318 318 320 319 320 320 320 319 318 317 318 317 318 316 316 316 316 312 311 309 308 308 308 308 308 308 309
313 313 315 316 317 317 318 318 318 319 321 321 321 320 320 321 320 318 315 314 315 317 316 317 317 317 315 315 315 315 315 315 316 317 318 318 319 316 314 317 317 316 312 310 308 309 310 309 308 308 308 308 308 308
313 313 314 315 317 318 320 321 321 322 321 321 321 322 321 320 319 318 316 315 314 315 315 316 316 316 317 317 316 316 316 317 316 314 312 312 314 313 312 312 312 312 312 312 311 309 309 309 308 308 308 308 308 308

GFSWCAN_850_thetae_111.txt.gz
Theta_e
316 314 314 317 317 316 316 313 312 312 313 314 314 315 314 315 316 315 318 317 317 316 320 321 320 321 321 319 315 317 318 318 313 317 320 320 320 320 320 320 326 325 323 322 319 323 324 324 325 327 326 333 332 335
314 313 313 317 317 316 316 314 313 313 314 314 314 313 313 315 315 315 317 316 314 314 317 320 320 320 318 319 318 321 321 320 319 317 317 318 320 318 316 322 321 326 322 323 323 322 320 324 326 328 331 332 330 331
310 310 313 317 317 317 316 315 312 313 314 314 314 313 314 313 314 314 317 313 312 315 319 319 312 316 318 320 318 320 322 324 322 321 319 316 320 316 319 319 321 321 322 323 322 322 324 323 326 329 331 331 333 328
307 310 312 314 317 317 315 313 312 313 315 315 315 313 314 313 313 315 317 317 312 317 318 319 320 318 316 319 321 319 322 323 322 321 318 312 316 316 316 318 320 321 320 321 321 324 325 322 322 326 328 331 332 332
308 310 312 310 315 317 316 313 312 313 315 316 315 315 314 314 314 318 319 317 312 314 317 319 316 316 317 319 321 320 322 323 321 319 313 314 317 317 313 312 317 320 315 321 321 324 323 323 322 325 324 326 329 330
308 309 310 311 314 316 315 313 312 313 315 317 316 315 314 313 316 318 314 318 315 310 316 318 321 321 316 316 319 319 320 323 322 321 318 319 323 317 314 314 316 320 321 323 324 326 323 323 321 321 322 323 323 326
307 309 310 312 313 315 314 312 311 313 315 315 315 315 313 313 316 314 314 315 314 310 316 320 320 324 324 320 320 319 319 320 320 320 319 320 320 317 312 319 321 322 322 323 324 325 323 322 321 321 321 322 322 321
307 309 311 312 312 314 313 311 311 312 315 315 315 314 313 313 315 315 316 316 313 314 320 318 317 320 320 319 320 320 320 320 320 320 322 321 322 318 316 316 321 323 324 324 324 324 323 322 321 322 322 322 322 322
308 308 309 311 312 312 310 310 310 313 314 315 314 314 314 314 314 314 315 314 313 314 318 314 314 322 323 320 320 320 320 316 318 317 317 320 317 320 319 321 326 323 324 324 323 323 323 322 322 322 322 322 322 322
308 309 310 310 311 310 310 310 310 313 314 313 314 312 311 312 312 314 314 315 316 317 318 318 321 320 323 322 319 320 319 317 320 318 319 317 317 323 323 324 325 324 324 324 324 323 323 322 322 322 322 321 322 322
309 310 312 311 309 309 310 308 309 314 314 314 310 313 318 314 315 318 317 316 318 316 316 318 318 318 321 323 321 322 318 316 320 318 319 319 318 320 324 324 325 323 323 323 324 324 324 323 322 322 322 321 321 321
310 311 311 308 308 310 310 309 311 314 314 311 314 316 316 317 317 315 315 316 316 316 315 315 317 317 318 324 323 323 323 322 323 320 322 319 319 324 322 324 326 325 324 324 324 325 324 323 323 322 322 321 320 320
311 310 308 308 309 310 310 309 312 313 313 311 316 317 316 315 311 315 316 316 315 318 317 317 319 320 322 322 321 321 323 322 320 321 322 318 321 325 326 325 327 327 327 326 325 324 324 323 322 322 321 320 319 319
308 307 307 308 309 311 309 310 311 314 311 314 316 313 313 313 314 314 314 315 318 319 320 316 320 319 319 318 318 322 320 320 323 321 322 319 323 323 324 326 326 327 326 326 325 324 324 323 322 320 320 319 319 318
307 307 307 308 310 311 308 307 312 312 313 315 315 315 315 314 316 317 318 319 320 321 321 316 321 320 319 319 319 320 323 324 322 322 321 322 321 323 325 327 327 327 327 325 325 323 323 322 320 319 319 319 319 318
306 306 308 310 311 311 308 308 312 312 313 314 314 315 316 315 316 318 319 320 320 321 320 319 320 320 321 320 323 322 323 324 320 317 321 321 323 324 326 328 327 328 327 325 324 323 322 321 320 319 319 319 318 317
306 307 308 310 311 309 307 309 312 313 313 314 314 314 314 314 314 316 318 320 318 320 320 321 322 322 319 320 321 320 320 315 321 325 324 325 324 324 327 328 327 326 326 325 323 322 321 320 319 319 318 318 318 317
306 308 309 311 311 308 309 312 312 312 313 313 312 314 314 314 316 316 319 320 319 317 319 322 320 319 320 322 320 318 323 324 324 322 324 326 327 328 328 327 325 325 325 324 323 322 321 319 319 319 319 318 317 314
307 308 308 311 310 308 311 311 312 314 314 313 314 314 314 315 316 316 317 318 319 321 321 320 319 319 319 318 319 322 321 322 325 328 329 327 328 327 326 325 325 325 324 323 322 321 320 320 319 319 318 317 316 313
308 310 311 310 308 311 311 312 313 314 314 316 315 316 316 318 319 318 318 318 319 319 318 317 317 318 320 320 319 319 319 320 324 327 328 327 327 324 322 321 324 324 323 323 322 320 320 319 319 318 317 315 314 312
309 310 310 310 309 310 311 312 313 314 315 316 317 318 319 319 321 320 319 319 320 320 317 318 318 319 319 319 320 320 320 321 323 326 323 325 326 326 325 325 324 324 323 322 321 320 321 320 319 317 316 315 312 309
309 309 310 309 310 310 311 312 313 314 315 316 317 317 317 319 320 321 320 320 321 321 321 321 320 321 321 320 319 319 321 322 323 324 324 324 324 324 323 324 324 323 322 321 321 321 320 319 318 317 315 314 311 310
309 310 310 310 311 311 312 313 315 316 314 315 317 317 316 318 320 320 321 321 322 321 321 321 322 322 322 322 320 320 321 322 323 323 322 322 322 323 323 324 324 324 322 321 321 320 319 318 317 316 313 312 312 311
309 311 312 312 311 311 313 314 315 316 317 316 315 318 318 318 320 320 319 320 321 321 321 322 322 322 322 322 320 321 322 322 322 321 322 321 322 323 324 323 324 324 324 323 321 319 318 318 316 314 312 312 312 312
312 310 312 310 314 314 314 317 317 316 317 317 318 318 317 321 318 319 319 320 323 323 324 324 324 324 323 322 322 322 322 322 322 322 322 322 323 319 319 322 324 324 324 323 322 320 319 317 313 313 312 311 311 311
308 310 311 314 314 314 316 318 318 317 316 318 318 319 320 318 321 321 321 320 320 323 323 322 323 324 324 324 324 323 323 323 323 323 323 322 323 322 322 323 324 324 323 323 322 321 319 317 313 312 312 312 311 311
308 310 312 313 314 315 315 316 317 316 318 320 318 320 321 323 324 320 319 321 323 323 323 321 322 323 324 324 323 323 323 323 323 322 323 323 323 323 324 324 324 323 322 322 322 321 320 318 316 313 313 312 311 311
311 312 313 316 315 316 316 316 317 318 317 318 317 321 322 321 318 320 321 321 322 322 322 322 322 322 323 324 324 324 324 324 322 323 323 322 322 323 323 322 321 321 322 322 321 321 319 319 317 314 313 313 312 310
312 313 315 314 315 316 317 317 316 316 316 318 318 319 318 320 319 319 320 320 322 323 321 322 322 322 323 324 324 323 324 324 324 324 324 323 323 323 322 321 319 321 322 320 320 320 318 318 316 314 313 312 310 309
312 313 314 313 316 317 315 317 318 318 317 318 318 319 318 317 317 316 316 316 317 319 320 320 320 320 321 321 324 324 323 323 322 323 322 322 320 318 318 319 319 319 316 313 313 314 315 313 313 311 310 310 309 308
313 313 313 313 316 315 317 318 318 317 318 318 318 319 320 319 317 315 315 316 316 317 317 317 318 318 318 318 320 321 321 320 321 320 319 317 317 317 317 316 316 317 317 316 315 313 313 313 312 311 310 310 309 308
312 313 313 313 315 318 317 318 319 317 320 320 319 318 320 321 319 316 314 314 315 317 316 316 316 315 315 315 316 317 317 317 317 317 317 318 318 318 318 315 316 317 316 315 314 314 313 311 310 310 309 309 309 308
312 312 312 313 315 318 318 316 315 319 319 320 321 321 321 320 318 317 315 315 314 315 315 316 316 316 316 316 316 316 317 316 314 314 312 312 314 314 315 314 312 312 311 312 311 311 310 309 309 308 308 308 308 308

GFSWCAN_850_thetae_114.txt.gz
Theta_e
314 314 315 314 313 316 316 316 315 313 312 313 314 314 314 313 313 313 315 316 310 313 313 317 321 320 320 318 314 315 316 317 312 316 318 319 318 319 319 318 324 321 321 321 318 322 322 322 325 328 325 330 334 337
313 313 313 313 313 315 316 316 315 314 312 313 314 314 314 311 313 312 314 315 315 315 315 317 318 318 321 320 319 318 317 317 316 314 315 316 319 316 314 321 319 324 320 321 319 319 319 322 324 326 330 332 332 335
306 306 307 309 311 313 316 316 314 312 312 314 314 314 312 312 312 312 313 314 313 312 314 314 314 312 314 315 317 317 321 323 321 321 317 316 319 314 318 318 320 320 320 321 320 322 323 324 328 332 333 331 331 331
306 306 306 307 310 311 314 316 314 312 311 314 315 313 313 313 312 311 313 314 314 314 315 319 318 315 318 316 318 317 318 321 321 321 316 312 315 315 315 316 319 319 319 319 319 322 324 324 326 329 330 332 331 331
306 306 307 308 311 311 312 315 314 312 311 314 316 315 314 312 312 312 313 315 315 313 314 317 316 313 316 317 318 321 318 320 320 317 312 313 314 314 311 312 315 318 318 321 320 324 322 323 326 326 325 330 330 329
306 306 306 308 310 310 311 313 314 312 311 315 315 315 315 313 312 313 316 319 315 313 312 314 317 315 318 317 319 320 321 321 321 320 316 316 320 316 314 314 315 321 320 323 322 325 322 323 325 326 324 325 331 331
305 306 306 308 309 309 312 313 313 311 311 315 313 314 314 312 312 314 312 314 317 312 314 317 318 322 322 321 317 318 320 321 321 319 318 319 319 316 311 316 320 321 321 321 322 324 321 322 323 323 320 320 320 324
305 306 307 307 309 310 311 312 312 310 311 314 314 315 314 312 312 316 315 312 314 311 315 318 316 318 320 318 319 319 318 319 319 319 318 318 319 314 315 316 320 321 322 322 323 324 324 321 321 322 321 321 321 323
306 306 307 308 309 309 311 311 310 310 312 312 314 314 313 313 313 312 313 314 311 312 317 314 314 318 322 318 318 319 319 316 317 316 317 319 315 319 317 318 320 322 323 323 323 323 323 322 321 321 322 321 321 322
306 307 308 307 309 310 310 309 309 310 313 312 313 313 313 311 311 312 312 312 311 312 317 316 319 319 322 321 318 318 317 315 318 316 317 317 317 322 323 322 322 322 323 323 322 321 321 321 321 322 322 322 321 321
307 308 308 309 309 311 309 309 307 311 313 313 313 311 316 316 314 316 316 316 316 316 315 317 317 316 318 322 321 321 316 315 320 318 318 317 316 316 322 323 322 323 323 323 323 323 323 323 321 322 322 322 321 321
309 309 309 310 309 309 309 309 308 312 314 312 312 315 315 316 316 315 314 314 315 314 314 314 317 316 316 323 322 321 321 320 322 318 321 320 318 321 320 321 323 323 323 323 323 323 323 323 322 322 322 321 322 322
309 310 309 309 307 308 309 308 309 312 313 311 314 316 316 315 313 315 316 316 314 316 316 316 317 318 321 322 321 320 321 321 319 320 321 319 319 322 322 320 322 324 323 323 323 323 323 323 322 321 321 321 321 321
309 309 308 307 307 309 310 309 310 312 312 312 316 313 313 314 313 313 313 313 316 318 318 316 319 318 319 318 319 323 321 320 322 320 321 320 322 322 323 323 322 323 324 324 323 323 324 324 323 321 321 322 321 320
308 307 307 307 309 311 309 307 311 312 312 314 316 315 316 314 314 316 316 317 319 320 320 318 319 319 316 318 318 319 322 322 321 321 318 319 320 321 322 324 324 325 325 325 325 325 324 324 323 322 321 321 320 319
307 307 307 308 309 311 308 307 311 312 313 314 315 316 314 314 314 316 317 318 320 320 319 319 318 317 319 317 321 321 322 323 321 318 319 321 323 321 321 321 324 326 326 326 326 325 324 323 323 322 321 320 319 318
306 306 307 310 310 311 308 308 311 312 313 313 314 314 314 314 314 314 316 318 319 318 318 319 319 320 316 319 321 319 320 317 318 322 323 324 324 324 323 324 326 326 326 326 325 324 324 323 323 321 319 318 318 318
306 308 309 310 311 309 307 309 311 312 313 314 312 313 313 313 314 315 317 319 319 318 320 321 320 321 321 322 321 318 319 321 322 322 321 320 323 324 324 325 327 327 327 326 325 324 323 322 321 320 319 319 318 317
306 308 309 310 310 308 310 311 312 313 314 313 313 313 313 313 314 315 315 317 320 318 319 319 320 321 320 318 319 320 322 322 322 323 323 323 322 326 326 327 327 326 324 325 325 323 322 322 321 320 319 318 317 317
307 308 308 309 308 310 311 312 312 314 313 314 315 315 315 316 317 317 317 316 318 321 318 318 318 319 319 320 320 322 320 319 319 321 324 326 327 327 327 327 326 324 324 324 323 322 321 320 320 319 319 318 318 316
308 309 309 309 309 310 310 312 312 312 314 314 316 317 318 318 319 319 319 318 319 320 316 318 319 320 319 319 319 319 319 319 319 320 325 326 326 325 325 325 324 324 324 324 323 322 321 321 320 319 318 318 317 315
309 309 309 308 309 309 310 311 313 313 314 315 315 316 316 317 319 319 319 319 319 319 319 319 320 320 321 320 321 320 319 319 320 321 322 324 325 324 322 323 324 324 324 323 323 322 321 320 319 319 318 317 315 313
309 309 309 310 310 311 311 312 314 315 313 314 316 316 315 316 318 319 319 319 320 320 320 320 321 321 321 321 321 321 320 319 320 322 323 324 324 324 322 322 323 323 323 323 323 322 321 320 319 319 318 316 315 312
309 310 311 311 311 311 312 312 313 314 316 315 314 317 317 317 319 319 317 317 321 322 322 321 321 321 321 321 320 320 321 321 321 322 323 322 322 322 322 322 322 322 322 323 323 322 321 321 320 319 317 316 315 313
310 311 312 310 313 312 312 314 315 314 316 316 317 317 316 319 318 317 318 319 322 322 322 322 323 323 323 322 323 322 321 320 321 321 322 322 322 321 322 323 324 323 323 323 323 322 321 321 320 319 318 316 313 312
308 310 309 313 313 313 316 318 318 317 315 317 317 318 319 317 320 320 321 320 321 322 322 322 322 323 323 324 324 323 323 322 321 321 322 322 322 322 322 322 320 321 322 322 323 323 322 321 319 318 317 316 314 312
308 309 311 312 313 314 315 315 316 316 317 319 318 319 320 322 322 319 320 320 321 321 321 321 321 321 323 323 323 323 323 323 323 323 323 323 323 323 323 322 323 323 323 323 323 322 321 321 320 318 314 312 312 312
309 311 311 314 314 314 315 315 315 317 316 317 316 320 322 321 317 319 320 320 320 322 321 320 320 321 323 323 323 323 323 323 324 323 322 321 321 322 322 322 323 323 323 322 320 320 321 321 320 319 317 314 313 312
310 312 314 314 314 316 316 316 315 316 316 317 317 317 317 319 317 316 317 317 318 322 321 320 320 320 321 323 322 323 323 323 323 323 323 324 323 323 322 323 322 321 321 321 321 321 321 321 320 319 317 315 314 314
310 312 314 313 315 315 314 316 318 318 317 318 318 318 317 317 316 315 316 316 316 317 317 317 318 318 319 320 322 323 323 322 322 322 321 321 320 319 318 318 319 318 318 319 320 319 318 315 314 315 316 314 311 311
312 312 312 313 316 315 315 318 318 317 317 318 318 319 319 318 318 314 314 316 316 316 316 315 316 316 318 319 319 320 320 319 320 320 318 317 316 316 317 318 317 317 316 316 316 315 315 316 315 314 314 311 311 310
311 311 311 312 316 317 316 318 317 317 318 319 319 318 319 320 318 315 314 315 316 316 316 315 315 315 316 316 316 316 316 317 317 316 316 316 317 317 317 317 316 316 316 315 314 314 313 314 313 313 312 312 310 310
312 311 311 314 316 317 317 316 316 319 319 320 320 319 320 319 318 316 315 314 313 314 314 313 313 315 315 316 317 316 315 314 312 312 312 312 313 315 315 315 314 311 311 311 313 313 313 312 312 312 311 310 309 309

GFSWCAN_850_thetae_117.txt.gz
Theta_e
312 313 314 314 314 314 314 315 316 315 314 313 312 313 314 314 312 312 313 313 314 312 316 314 321 321 320 318 319 316 319 317 320 325 325 328 328 328 325 324 328 329 331 333 328 331 329 324 326 332 329 331 335 338
309 311 310 311 311 312 312 312 314 315 314 312 312 314 314 313 312 312 312 313 314 312 314 316 317 314 317 319 321 317 319 319 320 322 323 325 327 324 324 328 322 332 327 332 329 329 325 324 326 326 326 334 335 336
306 306 306 306 305 306 310 311 313 316 314 311 313 314 313 312 312 312 312 312 313 312 315 315 317 317 315 316 315 317 318 319 318 320 322 324 329 323 327 327 327 325 323 329 327 327 326 326 326 327 330 333 334 335
305 305 306 306 306 307 310 310 312 315 313 312 312 314 313 312 312 312 311 312 312 313 314 318 318 317 316 314 315 316 317 319 319 320 320 324 325 320 324 324 326 325 325 328 328 326 327 327 327 328 331 331 332 332
305 305 305 305 306 308 309 310 311 313 314 312 313 313 313 312 312 312 311 312 312 313 314 314 315 315 314 317 317 317 317 317 318 318 321 322 319 321 318 320 325 323 328 329 324 328 329 328 326 328 330 332 330 329
305 305 305 305 306 308 309 310 310 313 313 312 312 313 313 312 311 311 312 315 313 313 312 317 317 316 320 317 318 320 319 318 318 319 319 316 319 322 324 326 324 322 322 324 326 323 324 325 324 323 323 330 329 329
304 305 305 305 306 307 307 309 310 312 312 311 312 312 313 312 310 313 312 312 315 314 311 317 320 320 321 319 317 316 318 320 319 318 320 322 320 319 322 326 324 320 322 320 322 324 322 324 325 324 322 323 329 331
305 305 305 305 305 307 308 309 310 311 310 310 312 313 313 312 311 312 315 315 313 315 311 320 322 319 321 318 319 318 319 319 318 318 318 322 318 318 324 322 320 321 321 321 321 325 324 323 323 321 321 320 321 330
304 305 305 306 307 308 309 309 310 310 310 311 311 313 312 312 313 312 312 312 313 311 316 317 320 323 321 318 318 318 318 322 317 322 321 321 323 330 325 324 319 321 322 322 322 323 323 322 322 321 321 321 321 328
305 306 306 307 307 308 309 310 310 309 310 312 312 312 312 311 310 311 311 312 312 313 312 319 318 321 321 322 320 321 319 322 322 321 318 323 325 321 321 321 321 322 322 322 323 322 321 323 321 321 321 321 321 322
306 306 306 307 307 308 309 309 309 308 312 312 313 311 312 316 313 314 317 315 313 317 316 318 318 318 317 327 325 322 322 321 324 323 323 325 324 322 320 322 322 321 321 323 323 323 323 322 321 321 321 321 321 321
307 307 307 308 309 310 310 309 308 308 312 313 311 314 315 315 315 316 319 316 317 318 315 315 317 317 315 322 325 323 326 325 326 321 325 329 325 321 320 319 320 322 322 322 323 323 323 322 322 321 321 322 321 321
307 308 309 309 309 309 308 309 308 309 312 312 312 315 316 315 316 318 319 319 319 318 317 316 319 319 320 321 323 325 324 326 322 325 328 326 322 321 321 320 319 322 323 323 323 322 322 322 322 322 322 322 322 321
308 309 309 309 309 308 308 309 309 311 311 311 315 313 316 316 316 317 317 317 317 317 318 316 320 321 319 323 324 324 323 322 325 326 325 325 322 321 321 321 319 320 323 323 323 323 323 323 323 322 322 322 322 322
308 309 308 308 308 309 310 309 309 311 311 313 315 317 316 315 314 315 315 316 317 318 318 318 320 320 322 322 323 323 324 325 324 324 323 321 320 320 320 320 323 321 321 324 323 322 322 323 324 323 321 321 322 322
308 307 307 307 309 310 309 307 310 311 312 313 314 316 316 316 316 316 317 318 317 319 317 319 322 323 322 322 323 324 324 325 324 323 322 319 320 324 320 320 320 323 322 322 324 323 322 323 324 323 321 320 321 321
307 307 307 308 309 310 309 308 311 312 312 314 314 314 315 315 315 315 315 315 319 319 323 321 322 321 320 322 323 323 323 323 321 319 320 321 322 325 324 321 320 322 324 324 324 324 324 324 323 323 322 321 320 320
306 307 307 309 310 310 308 309 311 312 313 314 314 314 313 314 314 314 315 317 318 318 319 321 320 321 322 321 322 322 321 320 319 321 321 321 321 321 324 323 324 324 324 326 326 326 325 325 323 323 322 321 320 319
307 307 309 310 310 308 309 310 311 312 314 313 313 313 313 313 314 314 314 314 319 318 319 320 322 321 321 321 322 321 320 319 321 321 321 322 322 321 321 323 325 326 326 326 326 325 325 324 323 323 322 320 319 318
306 307 308 309 308 310 310 311 311 312 314 314 314 314 314 315 316 316 315 315 319 319 319 321 322 320 321 320 319 320 319 321 318 319 319 322 325 326 326 325 326 326 326 325 325 324 323 322 322 321 321 319 318 318
307 308 309 309 308 310 310 311 312 313 313 314 314 315 316 315 316 318 317 316 318 319 320 320 320 319 319 319 319 318 319 319 319 318 319 323 325 326 326 325 326 325 323 323 324 324 323 323 322 321 320 319 319 319
308 308 309 308 309 309 310 310 312 313 313 314 314 315 317 318 319 319 319 319 319 319 318 319 319 319 319 320 321 321 320 319 319 319 321 321 324 325 325 325 324 324 324 324 323 323 323 322 321 321 320 319 318 318
308 309 309 309 310 310 311 311 313 314 315 315 315 317 318 318 318 318 320 320 319 319 319 320 320 320 320 320 321 320 320 319 319 319 320 322 323 325 324 323 323 323 323 323 323 322 322 322 321 320 319 319 318 317
308 309 310 311 310 311 312 313 312 314 315 317 318 318 319 318 318 321 322 319 320 322 322 322 322 322 321 320 320 320 321 320 320 320 322 323 323 324 324 323 323 322 323 323 323 323 322 322 321 320 319 318 318 317
309 311 311 312 312 312 313 315 315 316 318 318 319 320 320 318 322 321 322 321 320 321 322 322 322 322 323 323 322 322 322 322 320 320 321 322 322 322 322 322 322 322 322 322 323 323 322 321 321 320 319 319 318 317
310 310 311 313 314 315 316 318 318 318 318 318 319 318 319 322 322 323 321 320 321 321 321 322 321 321 321 322 323 323 323 323 322 321 321 321 321 321 321 321 322 322 323 323 322 323 323 322 321 320 320 319 319 317
309 311 310 311 312 313 315 315 316 318 319 320 320 320 322 322 322 320 320 320 319 320 321 320 319 318 319 321 322 323 323 323 323 322 322 322 322 322 322 322 322 322 322 322 322 322 322 321 321 321 320 320 318 317
310 310 313 314 313 314 316 317 318 319 319 317 317 322 321 321 321 318 317 317 318 321 320 319 319 319 321 323 323 323 323 323 324 323 323 322 322 321 322 322 322 322 322 322 322 322 321 321 321 321 320 319 317 314
310 311 312 314 315 316 317 318 318 317 316 317 320 321 320 317 315 315 315 316 317 319 318 318 318 319 319 321 323 323 323 323 323 322 323 323 322 322 322 322 322 322 322 321 321 321 321 321 320 320 320 318 317 315
311 310 314 315 315 315 315 315 318 318 317 318 318 318 317 317 315 314 315 316 316 316 315 315 316 317 319 321 321 322 322 321 320 319 320 318 317 317 318 318 317 316 317 318 319 319 320 320 320 319 319 319 318 316
311 311 313 315 315 315 316 316 318 317 318 318 318 317 318 318 315 314 315 316 315 314 315 316 317 317 317 317 317 317 317 317 317 317 317 317 317 318 318 316 315 316 316 316 315 315 315 315 315 315 315 315 315 316
310 311 313 315 316 314 314 318 317 318 318 318 318 317 318 318 317 315 314 315 316 315 315 315 315 315 316 316 315 315 315 314 313 313 312 313 314 315 317 317 316 316 314 314 314 314 314 315 315 314 315 315 313 313
311 311 314 314 313 315 316 316 317 319 319 319 318 318 319 319 317 315 315 313 313 312 311 311 311 313 314 312 310 310 310 310 310 312 312 312 312 315 315 315 313 311 311 311 311 311 311 312 312 312 312 313 311 311

GFSWCAN_850_thetae_120.txt.gz
Theta_e
308 310 311 312 313 313 312 313 313 313 315 315 313 312 313 314 313 313 313 313 313 316 317 317 318 322 324 322 322 321 320 320 321 324 324 325 323 328 328 327 328 329 331 330 329 331 331 327 329 333 333 335 338 341
305 307 307 308 309 309 310 309 311 312 313 315 312 312 314 313 312 312 312 312 312 313 316 317 317 317 318 319 322 320 323 321 321 323 325 325 326 329 327 329 327 332 329 332 329 331 331 329 329 330 330 336 339 339
305 305 305 306 306 306 305 305 308 311 313 314 312 312 314 312 312 312 313 312 312 313 316 317 317 317 318 316 318 321 321 323 322 326 324 325 327 327 327 327 329 329 329 329 331 331 330 330 330 330 334 337 339 336
305 305 305 305 305 306 306 306 308 309 312 314 312 312 313 313 312 312 313 312 312 314 318 319 319 319 319 317 315 317 319 320 322 324 324 325 325 327 327 329 329 329 329 328 327 329 330 331 333 334 335 338 337 335
305 305 305 305 305 305 306 307 309 309 311 313 311 312 313 313 313 313 313 313 312 313 318 318 317 318 316 318 319 318 317 320 322 324 325 324 325 326 326 326 326 328 329 326 327 326 332 331 331 334 336 335 335 335
305 305 305 305 305 305 306 308 310 310 311 312 311 312 312 313 313 312 312 314 312 311 315 319 318 319 320 319 319 320 320 321 321 323 324 324 325 325 325 325 325 325 327 328 326 327 330 328 329 330 333 334 333 334
304 304 305 305 305 305 306 308 308 309 310 312 310 312 312 313 312 311 314 312 313 312 315 318 321 321 321 320 320 322 321 320 322 323 323 324 325 323 323 324 324 324 327 328 327 328 328 327 327 329 331 334 333 334
304 303 305 305 305 305 307 308 308 310 311 310 310 311 313 313 311 311 313 313 313 314 314 319 322 321 322 320 320 320 321 322 322 323 323 323 323 323 322 322 321 325 326 326 325 327 326 326 327 326 327 329 333 334
303 304 305 305 305 307 307 308 309 309 309 310 310 311 313 312 312 315 312 313 313 313 317 320 322 324 323 322 322 321 323 324 323 323 323 324 323 327 323 322 322 324 326 325 325 327 327 327 327 326 327 328 328 330
304 305 305 305 306 307 308 309 309 309 308 311 311 312 312 314 311 311 312 314 312 313 314 317 320 322 322 322 322 322 322 324 324 324 323 323 324 322 322 323 326 325 326 326 326 327 327 327 327 326 326 326 327 331
305 306 306 306 306 307 308 309 309 308 309 312 312 313 313 312 312 315 318 317 316 318 317 318 319 320 321 327 324 323 323 323 325 325 324 325 326 323 323 323 323 326 327 327 326 326 326 326 326 326 326 326 327 328
306 306 306 307 307 308 308 310 309 307 311 313 312 312 315 315 317 318 319 318 319 320 319 318 319 319 319 324 327 325 325 325 325 324 325 328 327 323 322 323 324 326 326 326 326 326 326 325 325 326 326 326 326 327
306 307 308 308 308 309 309 309 309 308 310 312 312 314 315 317 320 319 320 320 320 318 319 317 320 319 321 324 325 327 325 324 324 327 325 326 324 323 323 323 325 324 327 325 326 327 327 325 325 325 326 326 326 327
307 307 308 309 308 309 308 308 308 309 311 312 314 318 318 317 318 319 319 319 319 319 320 319 319 320 321 323 324 324 325 325 324 325 326 325 324 326 328 327 327 325 326 326 327 327 327 327 326 326 327 327 327 326
308 308 308 309 309 308 308 309 309 310 311 312 314 319 317 317 317 317 318 318 320 321 320 320 321 321 322 322 322 323 323 325 324 323 323 322 323 330 328 327 326 325 325 326 327 327 327 327 327 327 327 327 327 326
307 308 308 308 308 308 310 309 308 310 312 313 315 317 317 318 318 318 318 319 319 318 318 320 321 321 321 320 321 321 321 322 323 324 324 326 327 329 330 328 326 326 326 325 327 327 327 326 326 326 327 327 326 324
306 307 307 307 309 310 309 307 310 311 312 314 316 316 317 318 317 318 319 319 319 321 322 321 321 321 322 322 321 321 322 321 320 322 325 327 328 326 323 326 325 326 328 327 328 327 327 327 327 327 326 326 326 325
307 308 307 308 309 310 308 309 311 312 314 314 316 316 317 317 317 316 318 319 319 321 320 321 321 323 323 322 322 322 321 322 323 323 324 327 324 321 321 323 329 327 329 329 329 328 328 327 327 327 326 325 325 323
307 309 308 309 310 309 309 310 311 313 314 315 315 316 316 316 316 316 316 317 319 319 319 321 322 323 322 321 320 320 321 322 320 322 325 325 322 323 321 321 325 328 329 330 329 328 327 326 327 326 325 324 323 323
307 307 308 309 309 310 312 312 310 313 315 316 316 316 317 317 318 319 318 318 319 320 321 322 322 321 321 322 322 323 323 322 323 323 323 326 326 325 326 326 328 329 329 329 328 327 327 326 326 325 324 323 323 322
306 307 308 308 308 310 311 312 313 314 315 315 316 317 318 317 318 319 320 320 320 320 319 320 320 321 322 321 321 321 322 322 323 323 323 324 328 327 326 327 326 327 327 327 326 325 325 326 325 324 322 322 322 322
307 308 308 308 309 310 310 311 313 312 314 316 315 315 318 320 319 318 319 319 319 319 320 321 321 322 322 322 322 323 324 322 319 321 320 321 325 328 327 327 327 326 326 325 324 324 325 325 324 322 321 321 321 320
308 308 309 309 310 310 310 312 313 314 317 317 317 319 319 319 319 318 321 322 322 322 322 322 323 323 323 323 324 323 320 320 323 323 323 323 324 328 328 326 326 326 325 325 324 323 324 323 322 322 321 320 320 319
308 309 310 311 310 311 311 314 314 315 317 318 319 320 320 321 321 322 322 322 322 323 325 326 325 325 325 326 325 324 325 324 324 324 325 326 327 328 327 325 324 324 325 325 324 324 323 323 321 320 321 320 320 318
309 309 310 310 311 312 314 316 317 317 319 319 320 320 322 321 324 323 324 324 324 324 325 325 323 322 324 325 326 326 325 324 324 324 325 325 325 326 326 326 325 325 325 325 324 324 323 323 321 320 320 319 319 319
312 310 311 312 314 315 317 318 318 319 319 321 321 321 322 324 323 325 324 323 321 321 323 323 322 320 322 324 325 326 327 325 325 325 325 325 325 325 324 324 322 323 322 322 324 324 324 323 321 321 321 320 319 318
311 312 312 312 312 314 315 316 318 320 320 321 322 322 322 323 324 321 320 322 321 322 322 320 320 321 321 322 323 324 325 325 325 326 325 325 325 325 325 325 325 325 324 322 322 322 323 322 322 321 320 320 320 318
312 313 315 314 313 314 317 319 320 321 321 320 320 322 322 322 322 320 319 318 319 322 322 320 319 319 320 322 322 324 326 325 324 324 324 323 322 322 322 323 324 323 322 322 322 322 322 322 322 321 321 320 320 320
312 312 314 317 317 317 319 319 320 319 319 320 321 322 321 315 316 315 315 316 316 316 318 318 318 320 322 324 324 325 325 325 324 324 324 325 325 323 323 324 323 322 322 322 322 321 321 321 321 321 321 320 321 320
313 311 315 316 317 317 317 318 320 319 320 320 320 317 317 315 318 317 317 317 317 317 317 318 318 320 321 320 320 319 320 320 319 319 319 319 319 318 318 319 319 319 320 320 320 320 320 320 320 320 319 319 319 318
314 314 315 316 316 315 315 317 318 318 318 318 317 317 319 318 316 316 317 317 317 318 319 319 319 319 319 318 318 317 317 316 315 316 316 318 318 319 318 318 317 317 317 317 317 317 317 318 318 318 317 316 318 317
313 314 315 316 317 316 314 317 317 319 319 318 316 316 318 319 316 315 316 317 318 318 317 318 318 318 317 316 315 315 314 314 313 314 314 316 317 317 318 318 317 315 315 316 316 315 316 316 316 316 316 315 314 314
314 315 314 313 313 314 315 317 318 318 317 316 316 319 319 317 316 315 315 315 315 314 314 314 315 314 314 314 314 314 314 313 312 312 312 312 312 314 316 315 315 314 314 313 313 313 314 314 314 315 315 313 313 312

GFSWCAN_850_thetae_123.txt.gz
Theta_e
304 307 308 310 310 311 312 312 311 313 313 313 315 313 312 313 313 312 316 314 315 318 319 319 319 320 324 326 328 324 324 324 324 325 325 326 328 327 326 326 328 329 330 331 331 333 334 329 330 330 335 334 336 342
304 305 305 306 306 307 308 308 309 309 311 312 314 313 311 312 312 312 314 314 313 314 317 318 318 319 320 321 322 325 323 324 322 324 326 325 327 326 328 328 329 330 331 335 331 333 332 331 329 332 332 334 337 341
304 305 305 305 305 306 306 306 306 305 309 312 314 313 312 313 312 312 314 313 312 315 317 318 318 316 316 318 320 322 323 326 324 327 326 326 326 327 328 328 331 330 329 328 331 332 330 330 331 330 333 338 341 341
305 305 305 305 306 306 305 306 307 307 309 310 313 313 312 313 312 312 313 314 313 314 319 322 320 319 320 320 319 319 320 322 324 325 325 326 325 325 327 330 329 330 330 328 328 327 329 331 333 335 337 337 338 339
305 305 305 305 306 306 305 305 306 308 308 310 312 312 312 312 313 313 314 314 313 314 317 320 319 319 320 320 320 319 319 320 324 325 325 326 325 328 325 327 326 329 328 327 329 328 334 333 334 336 337 336 335 335
305 305 305 305 305 306 305 306 306 309 310 310 311 312 312 312 313 313 313 314 313 313 314 322 320 320 320 319 320 320 319 320 323 325 325 325 326 324 326 326 325 326 326 325 328 327 332 332 334 336 335 335 334 334
304 304 304 305 305 305 305 306 307 309 310 310 311 311 312 313 313 313 316 314 313 312 314 321 322 320 321 321 319 321 322 321 323 323 324 326 326 322 324 325 326 325 325 327 325 327 330 328 328 330 332 333 334 333
304 304 304 304 305 305 305 306 308 308 309 310 310 311 312 313 313 313 314 313 313 313 316 321 323 322 321 320 321 323 324 323 323 322 322 325 327 323 324 324 323 322 325 326 325 325 327 328 328 329 331 331 333 333
303 303 303 305 305 305 306 307 308 309 309 310 310 311 312 313 313 315 315 312 312 314 318 320 323 325 322 321 322 323 323 325 323 326 326 325 328 327 325 324 324 323 324 326 325 324 327 327 328 327 327 329 333 332
303 303 304 305 306 306 306 307 308 309 309 309 311 312 313 314 313 314 313 314 313 314 316 320 320 325 323 323 323 323 324 325 326 326 324 326 328 326 325 325 325 324 323 324 325 325 326 326 328 327 327 327 327 330
304 305 306 306 306 306 307 308 309 309 308 310 312 313 314 312 314 317 318 319 319 320 319 319 319 321 321 326 325 323 328 327 328 328 328 329 330 328 324 325 325 325 324 325 326 325 325 326 327 327 326 327 328 328
304 307 306 306 306 307 307 308 309 308 311 312 313 313 314 315 317 319 320 320 321 320 320 320 319 320 321 323 325 325 327 326 329 326 327 331 327 325 324 324 324 324 324 325 326 325 325 325 325 327 326 327 328 329
305 306 308 307 308 308 308 308 310 309 310 311 311 313 316 318 320 321 321 322 322 320 320 319 322 321 321 322 324 326 327 329 326 328 328 328 325 325 325 325 323 324 325 324 324 325 326 325 325 325 325 327 327 329
305 306 306 308 309 308 309 309 309 308 309 311 313 320 319 320 320 320 320 320 320 320 322 320 320 321 320 322 324 324 326 326 327 328 326 325 326 326 325 324 324 325 325 325 324 325 326 326 325 324 325 327 327 330
307 307 307 308 309 309 308 308 308 308 310 311 314 317 317 318 319 319 319 320 320 320 321 322 322 321 322 322 322 324 325 326 325 325 324 324 324 326 328 329 327 326 325 325 325 326 325 327 326 326 326 327 327 329
307 307 308 309 309 308 308 309 309 309 310 312 314 317 318 319 319 319 319 319 320 320 320 321 322 321 321 320 322 322 323 325 325 325 325 327 329 330 331 330 328 327 326 326 325 326 326 327 328 328 328 328 329 329
306 307 308 308 308 308 309 308 309 310 311 314 316 316 317 319 320 320 321 321 320 319 321 321 321 322 321 321 322 321 322 322 322 322 325 330 331 331 332 332 332 329 328 327 326 328 328 329 328 329 329 329 329 330
307 307 307 307 309 308 308 308 310 312 315 315 316 318 318 318 319 319 319 319 319 319 321 321 321 324 323 322 323 322 322 323 323 324 325 328 331 332 332 331 331 331 329 330 326 328 329 329 329 329 330 330 329 330
307 308 307 308 309 309 309 310 310 313 315 315 316 316 317 317 317 318 318 320 321 319 320 322 322 323 323 324 324 322 322 322 323 323 323 326 328 330 331 331 331 332 330 331 330 329 328 329 329 329 330 329 329 329
307 309 308 309 309 309 312 313 312 314 316 317 317 317 317 318 318 318 318 319 320 319 322 322 323 322 321 322 321 323 323 324 324 324 323 323 326 328 330 331 329 331 331 331 331 330 329 330 329 328 329 329 328 328
307 307 308 308 309 310 311 314 315 315 316 317 318 319 318 319 318 319 321 320 321 321 322 322 322 321 322 324 323 324 324 324 325 324 324 324 327 328 328 329 330 328 329 331 331 329 329 330 329 328 328 328 327 326
307 307 308 308 309 310 313 313 314 315 315 317 317 318 319 321 321 321 321 322 322 321 321 321 322 323 320 324 323 324 325 326 327 324 323 322 322 324 328 328 328 329 327 328 329 329 328 328 327 327 327 326 326 325
307 308 308 309 310 312 312 314 315 316 317 318 318 319 320 321 322 319 320 322 322 323 323 324 324 325 326 326 326 326 327 327 326 325 325 324 324 324 326 328 328 328 327 327 327 326 326 326 327 326 326 326 325 325
308 309 310 312 312 311 312 314 315 316 317 319 320 321 322 322 321 322 324 324 325 325 324 326 326 326 325 326 325 324 327 327 324 324 325 325 326 327 328 328 328 327 327 326 326 325 325 325 325 325 325 325 324 324
308 309 310 311 312 313 314 317 317 318 319 320 321 322 323 322 325 324 325 326 326 326 326 326 326 326 325 325 324 326 328 325 323 323 325 325 326 328 327 327 326 325 325 325 325 324 323 323 324 323 323 323 323 323
308 309 309 312 314 315 317 318 319 320 320 321 322 322 322 325 324 325 325 324 323 324 325 325 325 325 325 326 327 327 327 328 327 324 325 325 325 325 325 326 326 326 326 326 325 324 324 324 324 324 323 323 323 323
311 313 312 311 313 315 317 317 317 320 322 321 322 323 324 324 325 324 323 322 322 323 323 322 323 323 324 325 326 327 327 327 328 327 328 327 326 326 326 326 327 327 327 324 323 323 323 323 324 323 323 323 322 321
312 314 316 314 314 313 318 320 321 321 322 322 322 323 323 323 322 320 320 320 321 321 323 320 322 322 324 326 327 326 326 326 326 327 326 327 326 327 327 327 328 325 327 326 325 324 325 325 325 324 323 322 321 320
314 315 316 317 317 319 320 321 321 321 322 322 323 323 320 318 318 319 319 319 319 320 321 320 321 322 325 326 326 325 324 323 324 324 325 323 323 322 324 326 327 326 326 325 323 324 324 322 321 321 320 319 318 320
315 315 317 318 318 319 319 320 321 321 321 321 320 319 318 318 318 318 318 319 319 320 320 320 320 322 322 322 322 320 320 321 321 320 321 321 320 320 320 321 321 322 323 323 323 322 321 321 321 321 320 321 320 319
316 316 317 318 316 317 317 319 320 320 321 319 319 320 319 318 317 318 318 319 319 319 319 319 319 319 320 320 320 319 318 318 318 318 317 318 319 320 319 319 319 319 318 318 319 319 320 319 320 320 320 319 319 318
316 316 316 318 319 317 318 319 320 320 319 319 317 317 320 319 316 316 318 318 318 318 318 318 318 317 316 316 316 316 315 315 314 314 315 317 318 319 319 319 317 316 316 316 316 316 316 316 316 316 316 317 317 317
315 316 316 316 317 318 317 320 319 318 317 317 318 320 320 316 316 316 315 316 315 315 316 315 315 314 314 315 315 315 314 313 311 311 312 312 313 315 316 316 315 315 315 315 314 315 315 314 315 315 315 315 315 314

GFSWCAN_850_thetae_126.txt.gz
Theta_e
303 303 304 306 308 309 310 308 310 312 311 312 312 313 313 312 313 313 316 316 317 319 320 320 321 321 321 324 329 328 327 326 326 329 328 327 327 330 330 328 326 329 334 333 332 335 335 332 331 334 336 335 327 325
304 304 304 305 305 305 305 306 307 308 309 309 311 312 313 312 311 312 314 317 316 315 317 318 319 319 320 321 322 324 326 327 325 325 328 326 327 330 328 328 328 327 329 332 334 335 333 332 332 330 330 331 334 328
304 304 304 305 305 305 306 306 306 306 307 307 310 312 313 312 312 312 313 315 315 315 317 319 319 319 319 317 320 323 324 324 325 326 329 327 332 329 329 329 331 331 330 332 333 330 331 331 330 331 331 332 326 335
304 304 305 305 305 306 306 306 306 306 308 308 310 311 313 311 312 312 314 314 314 314 317 320 322 322 321 319 318 320 322 322 321 322 327 328 330 327 328 330 331 331 331 330 330 329 332 333 333 332 336 337 339 339
304 304 305 305 305 305 306 306 306 306 307 309 309 311 312 312 313 313 313 314 314 314 318 318 318 321 321 321 321 320 320 321 321 324 326 329 327 326 328 328 330 330 330 330 332 332 330 329 327 334 337 334 326 337
304 304 304 305 305 305 305 306 305 306 307 309 309 310 312 312 312 313 314 316 315 314 314 320 321 320 321 321 322 322 321 321 321 322 326 325 326 327 330 329 331 329 327 328 329 334 332 332 332 334 336 335 335 335
303 303 304 305 305 304 305 306 305 306 309 309 310 311 311 312 313 314 316 315 315 314 314 320 323 321 321 321 321 321 321 321 321 322 323 326 326 327 327 327 327 327 327 327 326 329 332 330 337 336 336 335 334 333
302 303 304 304 304 305 306 306 306 308 308 309 310 311 311 312 313 313 315 314 314 314 316 322 323 323 322 322 322 321 322 322 322 322 322 325 326 327 329 326 326 325 326 328 325 327 329 329 330 330 331 333 333 332
302 304 304 304 304 305 305 306 307 308 308 310 310 311 311 312 313 315 315 315 314 314 317 322 323 327 322 324 322 321 324 327 323 327 326 326 327 331 328 329 325 325 324 327 326 325 326 330 329 329 330 329 332 332
303 303 304 304 305 305 305 306 308 308 309 309 310 312 313 314 315 315 313 314 314 314 315 320 320 325 323 324 325 325 325 327 328 327 324 327 328 324 324 327 325 326 325 324 326 325 325 329 329 327 327 332 333 333
303 303 305 306 306 305 306 307 308 309 309 309 312 313 315 314 315 316 318 319 318 320 319 319 319 322 323 326 327 325 330 329 331 330 328 328 329 330 328 327 326 327 326 325 325 326 325 327 328 328 327 327 329 333
303 304 307 307 306 306 307 308 309 310 311 311 313 313 315 316 316 319 321 321 321 322 320 321 320 320 323 324 325 324 328 329 330 328 328 330 331 327 328 327 327 327 327 325 325 326 327 325 327 328 327 327 328 331
302 304 307 307 306 307 307 308 309 309 310 311 312 312 316 318 320 320 322 323 323 321 322 321 322 321 321 323 326 325 326 329 327 331 330 329 329 328 328 327 327 326 326 326 325 326 327 325 325 328 326 327 328 331
304 305 306 307 308 308 308 308 309 309 308 310 312 313 317 320 320 321 321 323 321 322 322 320 320 322 322 323 325 326 326 325 330 330 330 328 329 327 327 327 327 327 326 326 325 325 326 326 326 327 327 327 328 329
306 306 307 307 308 309 309 309 309 308 310 311 313 316 318 318 319 320 320 321 321 322 322 323 322 321 323 324 324 325 325 326 327 326 329 328 329 328 327 327 326 326 326 326 326 326 325 326 327 326 326 327 329 330
307 307 307 307 308 309 308 308 308 308 310 311 313 316 318 320 320 320 321 319 322 322 321 321 324 324 324 324 324 325 323 325 327 327 327 330 332 332 332 331 329 328 327 327 327 326 325 325 328 326 326 327 330 330
307 307 308 308 308 308 308 309 309 309 310 313 315 317 317 318 319 319 320 320 321 321 320 320 322 324 323 323 322 322 322 323 324 327 329 323 324 329 334 333 332 330 329 327 326 326 326 326 328 327 327 327 331 330
306 307 307 308 308 308 308 309 309 311 314 314 317 317 318 318 319 319 318 320 319 319 320 321 321 325 326 326 324 325 323 324 324 327 327 325 326 330 330 331 332 332 333 331 329 327 328 327 329 330 328 328 330 330
307 307 307 307 308 308 308 308 309 313 316 316 316 317 317 317 318 318 319 320 321 320 319 321 324 325 324 325 325 325 323 324 325 325 325 327 329 330 331 331 331 332 333 331 331 329 330 328 330 330 330 330 330 332
307 308 308 308 308 309 310 313 312 314 317 318 317 317 317 318 318 319 319 320 320 320 320 321 322 322 324 324 324 324 323 325 325 325 325 325 325 327 329 328 327 329 332 332 332 330 328 330 330 330 331 331 331 331
307 308 308 308 308 309 310 313 316 316 316 317 319 319 320 319 319 319 319 320 320 321 322 321 322 322 323 324 325 324 325 324 326 325 325 326 323 322 326 328 327 327 329 331 331 330 330 330 330 329 329 330 330 330
307 308 308 308 309 309 312 314 315 316 317 317 317 319 320 321 321 321 321 323 323 322 322 321 322 322 322 324 325 325 325 327 327 327 326 324 323 322 325 327 326 327 327 327 330 329 329 330 329 329 329 330 329 329
307 307 307 308 310 311 312 315 316 317 318 318 320 320 321 321 323 322 321 321 321 322 322 323 322 325 326 325 326 327 327 328 328 327 326 325 325 325 324 327 328 328 327 325 327 328 329 329 329 329 329 324 328 327
307 308 309 311 311 314 313 315 316 316 317 318 320 322 323 323 322 322 325 325 325 325 324 324 326 326 326 326 327 326 325 324 326 326 325 325 326 325 326 328 328 328 329 328 327 327 328 328 327 327 328 328 327 327
309 310 310 311 314 315 315 316 317 318 319 320 320 322 324 322 325 325 326 323 323 323 327 328 327 326 325 325 325 323 322 324 325 325 322 322 325 322 325 327 328 327 327 327 326 326 326 326 326 326 326 325 326 326
310 311 309 313 314 315 317 319 319 320 320 321 322 322 323 325 325 326 325 323 325 326 325 327 326 326 326 326 326 326 327 328 327 327 326 323 326 326 326 326 326 326 326 328 326 325 324 324 323 322 322 322 322 324
310 312 313 311 313 315 318 318 318 320 322 322 323 324 324 325 326 325 323 322 323 324 324 323 325 324 324 325 326 327 327 327 328 328 328 328 328 328 327 327 326 323 321 322 327 327 326 324 324 324 323 322 323 324
312 314 315 315 316 316 317 320 321 322 323 322 323 324 324 323 322 321 321 321 322 323 324 321 322 323 325 327 327 324 322 323 325 326 325 325 324 325 328 327 326 324 328 327 326 327 325 324 322 323 322 320 321 322
315 314 314 315 316 318 319 320 321 321 322 324 324 323 320 319 320 320 320 322 322 322 323 322 323 324 325 325 323 323 323 323 324 324 323 323 323 323 323 324 325 326 326 323 322 325 325 324 325 324 323 322 322 321
316 316 318 318 320 320 319 319 321 322 322 321 320 319 318 318 319 320 320 321 320 321 321 321 322 322 322 322 322 320 320 320 320 320 320 320 320 320 320 320 320 321 322 323 322 322 321 321 322 322 322 322 322 321
317 317 318 319 319 319 319 321 322 322 321 321 321 321 319 318 318 318 319 319 319 320 320 320 319 319 320 319 319 318 318 317 316 317 318 318 320 320 320 319 318 318 318 318 318 319 318 319 321 319 320 320 320 320
316 316 317 320 319 319 321 321 322 321 321 320 320 321 320 318 317 318 319 319 318 318 318 318 317 317 316 317 316 315 313 313 312 312 313 317 318 318 317 318 317 316 316 316 316 316 315 316 316 316 316 317 316 317
316 317 317 317 318 319 321 320 319 318 318 320 321 320 321 317 317 316 317 317 317 317 316 315 315 316 316 316 316 315 316 315 313 312 311 311 313 314 314 315 315 316 316 316 315 316 316 316 315 315 315 316 316 315